[[{"header":{"parameterUnit":"m.s-1","parameterCategory":1,"la1":31.0,"la2":29.5877,"lo1":-88.7671,"lo2":-86.6584,"dx":0.0162,"dy":0.0185,"nx":115,"ny":88,"refTime":"2022-11-18T18:00:00:Z","depth":0,"parameterNumber":2,"parameterNumberName":"U-component_of_WINDS"},"data":[0.0,0.0,0.0,0.0,0.0,0.0,0.0,0.0,0.0,0.0,0.0,0.0,0.0,0.0,0.0,0.0,0.0,0.0,0.0,0.0,0.0,0.0,0.0,0.0,0.0,0.0,0.0,0.0,0.0,0.0,0.0,0.0,0.0,0.0,0.0,0.0,0.0,0.0,0.0,0.0,0.0,0.0,0.0,0.0,0.0,0.0,0.0,0.0,0.0,0.0,0.0,0.0,0.0,0.0,0.0,0.0,0.0,0.0,0.0,0.0,0.0,0.0,0.0,0.0,0.0,0.0,0.0,0.0,0.0,0.0,0.0,0.0,0.0,0.0,0.0,0.0,0.0,0.0,0.0,0.0,0.0,0.0,0.0,0.0,0.0,0.0,0.0,0.0,0.0,0.0,0.0,0.0,0.0,0.0,0.0,0.0,0.0,0.0,0.0,0.0,0.0,0.0,0.0,0.0,0.0,0.0,0.0,0.0,0.0,0.0,0.0,0.0,0.0,0.0,0.0,0.0,0.0,0.0,0.0,0.0,0.0,0.0,0.0,0.0,0.0,0.0,0.0,0.0,0.0,0.0,0.0,0.0,0.0,0.0,0.0,0.0,0.0,0.0,0.0,0.0,0.0,0.0,0.0,0.0,0.0,0.0,0.0,0.0,0.0,0.0,0.0,0.0,0.0,0.0,0.0,0.0,0.0,0.0,0.0,0.0,0.0,0.0,0.0,0.0,0.0,0.0,0.0,0.0,0.0,0.0,0.0,0.0,0.0,0.0,0.0,0.0,0.0,0.0,0.0,0.0,0.0,0.0,0.0,0.0,0.0,0.0,0.0,0.0,0.0,0.0,0.0,0.0,0.0,0.0,0.0,0.0,0.0,0.0,0.0,0.0,0.0,0.0,0.0,0.0,0.0,0.0,0.0,0.0,0.0,0.0,0.0,0.0,0.0,0.0,0.0,0.0,0.0,0.0,0.0,0.0,0.0,0.0,0.0,0.0,0.0,0.0,0.0,0.0,0.0,0.0,0.0,0.0,0.0,0.0,0.0,0.0,0.0,0.0,0.0,0.0,0.0,0.0,0.0,0.0,0.0,0.0,0.0,0.0,0.0,0.0,0.0,0.0,0.0,0.0,0.0,0.0,0.0,0.0,0.0,0.0,0.0,0.0,0.0,0.0,0.0,0.0,0.0,0.0,0.0,0.0,0.0,0.0,0.0,0.0,0.0,0.0,0.0,0.0,0.0,0.0,0.0,0.0,0.0,0.0,0.0,0.0,0.0,0.0,0.0,0.0,0.0,0.0,0.0,0.0,0.0,0.0,0.0,0.0,0.0,0.0,0.0,0.0,0.0,0.0,0.0,0.0,0.0,0.0,0.0,0.0,0.0,0.0,0.0,0.0,0.0,0.0,0.0,0.0,0.0,0.0,0.0,0.0,0.0,0.0,0.0,0.0,0.0,0.0,0.0,0.0,0.0,0.0,0.0,0.0,0.0,0.0,0.0,0.0,0.0,0.0,0.0,0.0,0.0,0.0,0.0,0.0,0.0,0.0,0.0,0.0,0.0,0.0,0.0,0.0,0.0,0.0,0.0,0.0,0.0,0.0,0.0,0.0,0.0,0.0,0.0,0.0,0.0,0.0,0.0,0.0,0.0,0.0,0.0,0.0,0.0,0.0,0.0,0.0,0.0,0.0,0.0,0.0,0.0,0.0,0.0,0.0,0.0,0.0,0.0,0.0,0.0,0.0,0.0,0.0,0.0,0.0,0.0,0.0,0.0,0.0,0.0,0.0,0.0,0.0,0.0,0.0,0.0,0.0,0.0,0.0,0.0,0.0,0.0,0.0,0.0,0.0,0.0,0.0,0.0,0.0,0.0,0.0,0.0,0.0,0.0,0.0,0.0,0.0,0.0,0.0,0.0,0.0,0.0,0.0,0.0,0.0,0.0,0.0,0.0,0.0,0.0,0.0,0.0,0.0,0.0,0.0,0.0,0.0,0.0,0.0,0.0,0.0,0.0,0.0,0.0,0.0,0.0,0.0,0.0,0.0,0.0,0.0,0.0,0.0,0.0,0.0,0.0,0.0,0.0,0.0,0.0,0.0,0.0,0.0,0.0,0.0,0.0,0.0,0.0,0.0,0.0,0.0,0.0,0.0,0.0,0.0,0.0,0.0,0.0,0.0,0.0,0.0,0.0,0.0,0.0,0.0,0.0,0.0,0.0,0.0,0.0,0.0,0.0,0.0,0.0,0.0,0.0,0.0,0.0,0.0,0.0,0.0,0.0,0.0,0.0,0.0,0.0,0.0,0.0,0.0,0.0,0.0,0.0,0.0,0.0,0.0,0.0,0.0,0.0,0.0,0.0,0.0,0.0,0.0,0.0,0.0,0.0,0.0,0.0,0.0,0.0,0.0,0.0,0.0,0.0,0.0,0.0,0.0,0.0,0.0,0.0,0.0,0.0,0.0,0.0,0.0,0.0,0.0,0.0,0.0,0.0,0.0,0.0,0.0,0.0,0.0,0.0,0.0,0.0,0.0,0.0,0.0,0.0,0.0,0.0,0.0,0.0,0.0,0.0,0.0,0.0,0.0,0.0,0.0,0.0,0.0,0.0,0.0,0.0,0.0,0.0,0.0,0.0,0.0,0.0,0.0,0.0,0.0,0.0,0.0,0.0,0.0,0.0,0.0,0.0,0.0,0.0,0.0,0.0,0.0,0.0,0.0,0.0,0.0,0.0,0.0,0.0,0.0,0.0,0.0,0.0,0.0,0.0,0.0,0.0,0.0,0.0,0.0,0.0,0.0,0.0,0.0,0.0,0.0,0.0,0.0,0.0,0.0,0.0,0.0,0.0,0.0,0.0,0.0,0.0,0.0,0.0,0.0,0.0,0.0,0.0,0.0,0.0,0.0,0.0,0.0,0.0,0.0,0.0,0.0,0.0,0.0,0.0,0.0,0.0,0.0,0.0,0.0,0.0,0.0,0.0,0.0,0.0,0.0,0.0,0.0,0.0,0.0,0.0,0.0,0.0,0.0,0.0,0.0,0.0,0.0,0.0,0.0,0.0,0.0,0.0,0.0,0.0,0.0,0.0,0.0,0.0,0.0,0.0,0.0,0.0,0.0,0.0,0.0,0.0,0.0,0.0,0.0,0.0,0.0,0.0,0.0,0.0,0.0,0.0,0.0,0.0,0.0,0.0,0.0,0.0,0.0,0.0,0.0,0.0,0.0,0.0,0.0,0.0,0.0,0.0,0.0,0.0,0.0,0.0,0.0,0.0,0.0,0.0,0.0,0.0,0.0,0.0,0.0,0.0,0.0,0.0,0.0,0.0,0.0,0.0,0.0,0.0,0.0,0.0,0.0,0.0,0.0,0.0,0.0,0.0,0.0,0.0,0.0,0.0,0.0,0.0,0.0,0.0,0.0,0.0,0.0,0.0,0.0,0.0,0.0,0.0,0.0,0.0,0.0,0.0,0.0,0.0,0.0,0.0,0.0,0.0,0.0,0.0,0.0,0.0,0.0,0.0,0.0,0.0,0.0,0.0,0.0,0.0,0.0,0.0,0.0,0.0,0.0,0.0,0.0,0.0,0.0,0.0,0.0,0.0,0.0,0.0,0.0,0.0,0.0,0.0,0.0,0.0,0.0,0.0,0.0,0.0,0.0,0.0,0.0,0.0,0.0,0.0,0.0,0.0,0.0,0.0,0.0,0.0,0.0,0.0,0.0,0.0,0.0,0.0,0.0,0.0,0.0,0.0,0.0,0.0,0.0,0.0,0.0,0.0,0.0,0.0,0.0,0.0,0.0,0.0,0.0,0.0,0.0,0.0,0.0,0.0,0.0,0.0,0.0,0.0,0.0,0.0,0.0,0.0,0.0,0.0,0.0,0.0,0.0,0.0,0.0,0.0,0.0,0.0,0.0,0.0,0.0,0.0,0.0,0.0,0.0,0.0,0.0,0.0,0.0,0.0,0.0,0.0,0.0,0.0,0.0,0.0,0.0,0.0,0.0,0.0,0.0,0.0,0.0,0.0,0.0,0.0,0.0,0.0,0.0,0.0,0.0,0.0,0.0,0.0,0.0,0.0,0.0,0.0,0.0,0.0,0.0,0.0,0.0,0.0,0.0,0.0,0.0,0.0,0.0,0.0,0.0,0.0,0.0,0.0,0.0,0.0,0.0,0.0,0.0,0.0,0.0,0.0,0.0,0.0,0.0,0.0,0.0,0.0,0.0,0.0,0.0,0.0,0.0,0.0,0.0,0.0,0.0,0.0,0.0,2.24,0.0,0.0,0.0,2.0725,0.0,0.0,0.0,0.0,0.0,0.0,0.0,0.0,0.0,0.0,0.0,0.0,0.0,0.0,0.0,0.0,0.0,0.0,0.0,0.0,0.0,0.0,0.0,0.0,0.0,0.0,0.0,0.0,0.0,0.0,0.0,0.0,0.0,0.0,0.0,0.0,0.0,0.0,0.0,0.0,0.0,0.0,0.0,0.0,0.0,0.0,0.0,0.0,0.0,0.0,0.0,0.0,0.0,0.0,0.0,0.0,0.0,0.0,0.0,0.0,0.0,0.0,0.0,0.0,0.0,0.0,0.0,0.0,0.0,0.0,0.0,0.0,0.0,0.0,0.0,0.0,0.0,0.0,0.0,0.0,0.0,0.0,0.0,0.0,0.0,0.0,0.0,0.0,0.0,0.0,0.0,0.0,0.0,0.0,0.0,0.0,0.0,0.0,0.0,0.0,0.0,0.0,0.0,0.0,0.0,0.0,0.0,0.0,0.0,0.0,2.2191,2.1995,2.1668,2.1381,2.1017,0.0,0.0,0.0,0.0,0.0,0.0,0.0,0.0,0.0,0.0,0.0,0.0,0.0,0.0,0.0,0.0,0.0,0.0,0.0,0.0,0.0,0.0,0.0,0.0,0.0,0.0,0.0,0.0,0.0,0.0,0.0,0.0,0.0,0.0,0.0,0.0,0.0,0.0,0.0,0.0,0.0,0.0,0.0,0.0,0.0,0.0,0.0,0.0,0.0,0.0,0.0,0.0,0.0,0.0,0.0,0.0,0.0,0.0,0.0,0.0,0.0,0.0,0.0,0.0,0.0,0.0,0.0,0.0,0.0,0.0,0.0,0.0,0.0,0.0,0.0,0.0,0.0,0.0,0.0,0.0,0.0,0.0,0.0,0.0,0.0,0.0,0.0,0.0,0.0,0.0,0.0,0.0,0.0,0.0,0.0,0.0,0.0,0.0,0.0,0.0,0.0,0.0,0.0,0.0,0.0,0.0,0.0,0.0,0.0,0.0,0.0,0.0,2.2152,2.1694,2.1263,0.0,0.0,0.0,0.0,0.0,0.0,0.0,0.0,0.0,0.0,0.0,0.0,0.0,0.0,0.0,0.0,0.0,0.0,0.0,0.0,0.0,0.0,0.0,0.0,0.0,0.0,0.0,0.0,0.0,0.0,0.0,0.0,0.0,0.0,0.0,0.0,0.0,0.0,0.0,0.0,0.0,0.0,0.0,0.0,0.0,0.0,0.0,0.0,0.0,0.0,0.0,0.0,0.0,0.0,0.0,0.0,0.0,0.0,0.0,0.0,0.0,0.0,0.0,0.0,0.0,0.0,0.0,0.0,0.0,0.0,0.0,0.0,0.0,0.0,0.0,0.0,0.0,0.0,0.0,0.0,0.0,0.0,0.0,0.0,0.0,0.0,0.0,0.0,0.0,0.0,0.0,0.0,0.0,0.0,0.0,0.0,0.0,0.0,0.0,0.0,0.0,0.0,0.0,0.0,0.0,0.0,0.0,0.0,0.0,0.0,2.3066,2.3118,2.3066,0.0,2.1248,0.0,0.0,0.0,0.0,0.0,0.0,0.0,0.0,0.0,0.0,0.0,0.0,0.0,0.0,0.0,0.0,0.0,0.0,0.0,0.0,0.0,0.0,0.0,0.0,0.0,0.0,0.0,0.0,0.0,0.0,0.0,0.0,0.0,0.0,0.0,0.0,0.0,0.0,0.0,0.0,0.0,0.0,0.0,0.0,0.0,0.0,0.0,0.0,0.0,0.0,0.0,0.0,0.0,0.0,0.0,0.0,0.0,0.0,0.0,0.0,0.0,0.0,0.0,0.0,0.0,0.0,0.0,0.0,0.0,0.0,0.0,0.0,0.0,0.0,0.0,0.0,0.0,0.0,0.0,0.0,0.0,0.0,0.0,0.0,0.0,0.0,0.0,0.0,0.0,0.0,0.0,0.0,0.0,0.0,0.0,0.0,0.0,0.0,0.0,0.0,0.0,0.0,0.0,0.0,0.0,0.0,0.0,0.0,0.0,0.0,2.3745,2.3745,2.2926,2.1907,0.0,0.0,0.0,0.0,0.0,0.0,0.0,0.0,0.0,0.0,0.0,0.0,0.0,0.0,0.0,0.0,0.0,0.0,0.0,0.0,0.0,0.0,0.0,0.0,0.0,0.0,0.0,0.0,0.0,0.0,0.0,0.0,0.0,0.0,0.0,0.0,0.0,0.0,0.0,0.0,0.0,0.0,0.0,0.0,0.0,0.0,0.0,0.0,0.0,0.0,0.0,0.0,0.0,0.0,0.0,0.0,0.0,0.0,0.0,0.0,0.0,0.0,0.0,0.0,0.0,0.0,0.0,0.0,0.0,0.0,0.0,0.0,0.0,0.0,0.0,0.0,0.0,0.0,0.0,0.0,0.0,0.0,0.0,0.0,0.0,0.0,0.0,0.0,0.0,0.0,0.0,0.0,0.0,0.0,0.0,0.0,0.0,0.0,0.0,0.0,0.0,0.0,0.0,0.0,0.0,0.0,0.0,0.0,0.0,0.0,2.3954,2.3849,2.3823,2.2829,2.1659,2.0348,0.0,0.0,0.0,0.0,0.0,0.0,0.0,0.0,0.0,0.0,0.0,0.0,0.0,0.0,0.0,0.0,0.0,0.0,0.0,0.0,0.0,0.0,0.0,0.0,0.0,0.0,0.0,0.0,0.0,0.0,0.0,0.0,0.0,0.0,0.0,0.0,0.0,0.0,0.0,0.0,0.0,0.0,0.0,0.0,0.0,0.0,0.0,0.0,0.0,0.0,0.0,0.0,0.0,0.0,0.0,0.0,0.0,0.0,0.0,0.0,0.0,0.0,0.0,0.0,0.0,0.0,0.0,0.0,0.0,0.0,0.0,0.0,0.0,0.0,0.0,0.0,0.0,0.0,0.0,0.0,0.0,0.0,0.0,0.0,0.0,0.0,0.0,0.0,0.0,0.0,0.0,0.0,0.0,0.0,0.0,0.0,0.0,0.0,0.0,0.0,0.0,0.0,0.0,0.0,0.0,0.0,0.0,0.0,2.4006,2.3536,2.3249,2.3287,2.3055,2.2114,0.0,0.0,0.0,0.0,0.0,0.0,0.0,0.0,0.0,0.0,0.0,0.0,0.0,0.0,0.0,0.0,0.0,0.0,0.0,0.0,0.0,0.0,0.0,0.0,0.0,0.0,0.0,0.0,0.0,0.0,0.0,0.0,0.0,0.0,0.0,0.0,0.0,0.0,0.0,0.0,0.0,0.0,0.0,0.0,0.0,0.0,0.0,0.0,0.0,0.0,0.0,0.0,0.0,0.0,0.0,0.0,0.0,0.0,0.0,0.0,0.0,0.0,0.0,0.0,0.0,0.0,0.0,0.0,0.0,0.0,0.0,0.0,0.0,0.0,0.0,0.0,0.0,0.0,0.0,0.0,0.0,0.0,0.0,0.0,0.0,0.0,0.0,0.0,0.0,0.0,0.0,0.0,0.0,0.0,0.0,0.0,0.0,0.0,0.0,0.0,0.0,0.0,0.0,0.0,0.0,0.0,0.0,0.0,0.0,2.2987,2.2806,2.3393,2.4738,2.2642,2.125,0.0,0.0,0.0,0.0,0.0,0.0,0.0,0.0,0.0,0.0,0.0,0.0,0.0,0.0,0.0,0.0,0.0,0.0,0.0,0.0,0.0,0.0,0.0,0.0,0.0,0.0,0.0,0.0,0.0,0.0,0.0,0.0,0.0,0.0,0.0,0.0,0.0,0.0,0.0,0.0,0.0,0.0,0.0,0.0,0.0,0.0,0.0,0.0,0.0,0.0,0.0,0.0,0.0,0.0,0.0,0.0,0.0,0.0,0.0,0.0,0.0,0.0,0.0,0.0,0.0,0.0,0.0,0.0,0.0,0.0,0.0,0.0,0.0,0.0,0.0,0.0,0.0,0.0,0.0,0.0,0.0,0.0,0.0,0.0,0.0,0.0,0.0,0.0,0.0,0.0,0.0,0.0,0.0,0.0,0.0,0.0,0.0,0.0,0.0,0.0,0.0,0.0,0.0,0.0,0.0,0.0,0.0,0.0,0.0,2.2935,2.316,2.38,2.479,2.2574,2.0965,0.0,0.0,0.0,0.0,0.0,0.0,0.0,0.0,0.0,0.0,0.0,0.0,0.0,0.0,0.0,0.0,0.0,0.0,0.0,0.0,0.0,0.0,0.0,0.0,0.0,0.0,0.0,0.0,0.0,0.0,0.0,0.0,0.0,0.0,0.0,0.0,0.0,0.0,0.0,0.0,0.0,0.0,0.0,0.0,0.0,0.0,0.0,0.0,0.0,0.0,0.0,0.0,0.0,0.0,0.0,0.0,0.0,0.0,0.0,0.0,0.0,0.0,0.0,0.0,0.0,0.0,0.0,0.0,0.0,0.0,0.0,0.0,0.0,0.0,0.0,0.0,0.0,0.0,0.0,0.0,0.0,0.0,0.0,0.0,0.0,0.0,0.0,0.0,0.0,0.0,0.0,0.0,0.0,0.0,0.0,0.0,0.0,0.0,0.0,0.0,0.0,0.0,0.0,0.0,0.0,0.0,0.0,0.0,2.236,2.3992,2.4626,2.4387,2.3313,2.2942,2.1465,0.0,0.0,0.0,0.0,0.0,0.0,0.0,0.0,0.0,0.0,0.0,0.0,0.0,0.0,0.0,0.0,0.0,0.0,0.0,0.0,0.0,0.0,0.0,0.0,0.0,0.0,0.0,0.0,0.0,0.0,0.0,0.0,0.0,0.0,0.0,0.0,0.0,0.0,0.0,0.0,0.0,0.0,0.0,0.0,0.0,0.0,0.0,0.0,0.0,0.0,0.0,0.0,0.0,0.0,0.0,0.0,0.0,0.0,0.0,0.0,0.0,0.0,0.0,0.0,0.0,0.0,0.0,0.0,0.0,0.0,0.0,0.0,0.0,0.0,0.0,0.0,0.0,0.0,0.0,0.0,0.0,0.0,0.0,0.0,0.0,0.0,0.0,0.0,0.0,0.0,0.0,0.0,0.0,0.0,0.0,0.0,0.0,0.0,0.0,0.0,0.0,0.0,0.0,0.0,0.0,0.0,0.0,0.0,0.0,2.3484,2.4058,2.4779,2.5484,2.3204,2.1807,0.0,0.0,0.0,0.0,0.0,0.0,0.0,0.0,0.0,0.0,0.0,0.0,0.0,0.0,0.0,0.0,0.0,0.0,0.0,0.0,0.0,0.0,0.0,0.0,0.0,0.0,0.0,0.0,0.0,0.0,0.0,0.0,0.0,0.0,0.0,0.0,0.0,0.0,0.0,0.0,0.0,0.0,0.0,0.0,0.0,0.0,0.0,0.0,0.0,0.0,0.0,0.0,0.0,0.0,0.0,0.0,0.0,0.0,0.0,0.0,0.0,0.0,0.0,0.0,0.0,0.0,0.0,0.0,0.0,0.0,0.0,0.0,0.0,0.0,0.0,0.0,0.0,0.0,0.0,0.0,0.0,0.0,0.0,0.0,0.0,0.0,0.0,0.0,0.0,0.0,0.0,0.0,0.0,0.0,0.0,0.0,0.0,0.0,0.0,0.0,0.0,0.0,0.0,0.0,0.0,0.0,0.0,0.0,0.0,2.4827,2.5329,2.5944,2.6677,2.4107,2.2602,2.227,0.0,0.0,0.0,0.0,0.0,0.0,0.0,0.0,0.0,0.0,0.0,0.0,0.0,0.0,0.0,0.0,0.0,0.0,0.0,0.0,0.0,0.0,0.0,0.0,0.0,0.0,0.0,0.0,0.0,0.0,0.0,0.0,0.0,0.0,0.0,0.0,0.0,0.0,0.0,0.0,0.0,0.0,0.0,0.0,0.0,0.0,0.0,0.0,0.0,0.0,0.0,0.0,0.0,0.0,0.0,0.0,0.0,0.0,0.0,0.0,0.0,0.0,0.0,0.0,0.0,0.0,0.0,0.0,0.0,0.0,0.0,0.0,0.0,0.0,0.0,0.0,0.0,0.0,0.0,0.0,0.0,0.0,0.0,0.0,0.0,0.0,0.0,0.0,0.0,0.0,0.0,0.0,0.0,0.0,0.0,0.0,0.0,0.0,0.0,0.0,0.0,0.0,0.0,0.0,0.0,0.0,0.0,0.0,2.7577,2.8023,2.7807,2.6886,2.5548,2.3794,0.0,0.0,0.0,0.0,0.0,0.0,0.0,0.0,0.0,0.0,0.0,0.0,0.0,0.0,0.0,0.0,0.0,0.0,0.0,0.0,0.0,0.0,0.0,0.0,0.0,0.0,0.0,0.0,0.0,0.0,0.0,0.0,0.0,0.0,0.0,0.0,0.0,0.0,0.0,0.0,0.0,0.0,0.0,0.0,0.0,0.0,0.0,0.0,0.0,0.0,0.0,0.0,0.0,0.0,0.0,0.0,0.0,0.0,0.0,0.0,0.0,0.0,0.0,0.0,0.0,0.0,0.0,0.0,0.0,0.0,0.0,0.0,0.0,0.0,0.0,0.0,0.0,0.0,0.0,0.0,0.0,0.0,0.0,0.0,0.0,0.0,0.0,0.0,0.0,0.0,0.0,0.0,0.0,0.0,0.0,0.0,0.0,0.0,0.0,0.0,0.0,0.0,0.0,0.0,0.0,0.0,0.0,0.0,0.0,2.8576,2.9518,2.9564,2.8595,2.6628,2.5158,0.0,0.0,0.0,0.0,0.0,0.0,0.0,0.0,0.0,0.0,0.0,0.0,0.0,0.0,0.0,0.0,0.0,0.0,0.0,0.0,0.0,0.0,0.0,0.0,0.0,0.0,0.0,0.0,0.0,0.0,0.0,0.0,0.0,0.0,0.0,0.0,0.0,0.0,0.0,0.0,0.0,0.0,0.0,0.0,0.0,0.0,0.0,0.0,0.0,0.0,0.0,0.0,0.0,0.0,0.0,0.0,0.0,0.0,0.0,0.0,0.0,0.0,0.0,0.0,0.0,0.0,0.0,0.0,0.0,0.0,0.0,0.0,0.0,0.0,0.0,0.0,0.0,0.0,0.0,0.0,0.0,0.0,0.0,0.0,0.0,0.0,0.0,0.0,0.0,0.0,0.0,0.0,0.0,0.0,0.0,0.0,0.0,0.0,0.0,0.0,0.0,0.0,0.0,0.0,0.0,0.0,0.0,0.0,2.8829,2.9816,3.0953,3.1024,2.9923,2.7858,2.6346,0.0,0.0,0.0,0.0,0.0,0.0,0.0,0.0,0.0,0.0,0.0,0.0,0.0,0.0,0.0,0.0,0.0,0.0,0.0,0.0,0.0,0.0,0.0,0.0,0.0,0.0,0.0,0.0,0.0,0.0,0.0,0.0,0.0,0.0,0.0,0.0,0.0,0.0,0.0,0.0,0.0,0.0,0.0,0.0,0.0,0.0,0.0,0.0,0.0,0.0,0.0,0.0,0.0,0.0,0.0,0.0,0.0,0.0,0.0,0.0,0.0,0.0,0.0,0.0,0.0,0.0,0.0,0.0,0.0,0.0,0.0,0.0,0.0,0.0,0.0,0.0,0.0,0.0,0.0,0.0,0.0,0.0,0.0,0.0,0.0,0.0,0.0,0.0,0.0,0.0,0.0,0.0,0.0,0.0,0.0,0.0,0.0,0.0,0.0,0.0,0.0,0.0,0.0,0.0,0.0,0.0,0.0,0.0,3.0999,3.1059,3.2123,3.2098,3.0839,2.9119,2.7445,0.0,0.0,0.0,0.0,0.0,0.0,0.0,0.0,0.0,0.0,0.0,0.0,0.0,0.0,0.0,0.0,0.0,0.0,0.0,0.0,0.0,0.0,0.0,0.0,0.0,0.0,0.0,0.0,0.0,0.0,0.0,0.0,0.0,0.0,0.0,0.0,0.0,0.0,0.0,0.0,0.0,0.0,0.0,0.0,0.0,0.0,0.0,0.0,0.0,0.0,0.0,0.0,0.0,0.0,0.0,0.0,0.0,0.0,0.0,0.0,0.0,0.0,0.0,0.0,0.0,0.0,0.0,0.0,0.0,0.0,0.0,0.0,0.0,0.0,0.0,0.0,0.0,0.0,0.0,0.0,0.0,0.0,0.0,0.0,0.0,0.0,0.0,0.0,0.0,0.0,0.0,0.0,0.0,0.0,0.0,0.0,0.0,0.0,0.0,0.0,0.0,0.0,0.0,0.0,0.0,0.0,0.0,0.0,3.1107,3.1396,3.2228,3.2339,3.1583,2.9769,2.828,0.0,0.0,0.0,0.0,0.0,0.0,0.0,0.0,0.0,0.0,0.0,0.0,0.0,0.0,0.0,0.0,0.0,0.0,0.0,0.0,0.0,0.0,0.0,0.0,0.0,0.0,0.0,0.0,0.0,0.0,0.0,0.0,0.0,0.0,0.0,0.0,0.0,0.0,0.0,0.0,0.0,0.0,0.0,0.0,0.0,0.0,0.0,0.0,2.3401,0.0,0.0,0.0,0.0,0.0,0.0,0.0,0.0,0.0,0.0,0.0,0.0,0.0,0.0,0.0,0.0,0.0,0.0,0.0,0.0,0.0,0.0,0.0,0.0,0.0,0.0,0.0,0.0,0.0,0.0,0.0,0.0,0.0,0.0,0.0,0.0,0.0,0.0,0.0,0.0,0.0,0.0,0.0,0.0,0.0,0.0,0.0,0.0,0.0,0.0,0.0,0.0,0.0,0.0,0.0,0.0,0.0,0.0,0.0,3.1461,3.1934,3.2584,3.261,3.194,3.0849,2.9523,0.0,0.0,0.0,0.0,0.0,0.0,0.0,0.0,0.0,0.0,0.0,0.0,0.0,0.0,0.0,0.0,0.0,0.0,0.0,0.0,0.0,0.0,0.0,0.0,0.0,0.0,0.0,0.0,0.0,0.0,0.0,0.0,0.0,0.0,0.0,0.0,0.0,0.0,0.0,0.0,0.0,0.0,0.0,0.0,0.0,0.0,0.0,0.0,0.0,0.0,0.0,0.0,0.0,0.0,0.0,0.0,0.0,0.0,0.0,0.0,0.0,0.0,0.0,0.0,0.0,0.0,0.0,0.0,0.0,0.0,0.0,0.0,0.0,0.0,0.0,0.0,0.0,0.0,0.0,0.0,0.0,0.0,0.0,0.0,0.0,0.0,0.0,0.0,0.0,0.0,0.0,0.0,0.0,0.0,0.0,0.0,0.0,0.0,0.0,0.0,0.0,0.0,0.0,0.0,0.0,0.0,0.0,3.0691,3.2012,3.2702,3.3193,3.3137,3.247,3.2047,3.0751,2.848,0.0,0.0,0.0,0.0,0.0,0.0,0.0,0.0,0.0,0.0,0.0,0.0,0.0,0.0,0.0,0.0,0.0,0.0,0.0,0.0,0.0,0.0,0.0,0.0,0.0,0.0,0.0,0.0,0.0,0.0,0.0,0.0,0.0,0.0,0.0,0.0,0.0,0.0,2.2849,2.418,0.0,0.0,0.0,0.0,0.0,0.0,0.0,0.0,2.4757,0.0,0.0,0.0,0.0,0.0,0.0,0.0,0.0,0.0,0.0,0.0,0.0,0.0,0.0,0.0,0.0,0.0,0.0,0.0,0.0,0.0,0.0,0.0,0.0,0.0,0.0,0.0,0.0,0.0,0.0,0.0,0.0,0.0,0.0,0.0,0.0,0.0,0.0,0.0,0.0,0.0,0.0,0.0,0.0,0.0,0.0,0.0,0.0,0.0,0.0,0.0,0.0,0.0,0.0,0.0,0.0,3.131,3.2123,3.3031,3.4131,3.4452,3.4457,3.4093,3.2992,3.1391,2.9369,0.0,0.0,0.0,0.0,0.0,0.0,0.0,0.0,0.0,0.0,0.0,0.0,0.0,0.0,0.0,0.0,0.0,0.0,0.0,0.0,0.0,0.0,0.0,0.0,0.0,0.0,0.0,0.0,0.0,0.0,0.0,0.0,0.0,0.0,0.0,0.0,0.0,0.0,0.0,2.6047,2.6399,0.0,0.0,0.0,0.0,0.0,0.0,0.0,0.0,2.5937,0.0,0.0,0.0,0.0,0.0,0.0,0.0,0.0,0.0,0.0,0.0,0.0,0.0,0.0,0.0,0.0,0.0,0.0,0.0,0.0,0.0,0.0,0.0,0.0,0.0,0.0,0.0,0.0,0.0,0.0,0.0,0.0,0.0,0.0,0.0,0.0,0.0,0.0,0.0,0.0,0.0,0.0,0.0,0.0,0.0,0.0,0.0,0.0,0.0,0.0,0.0,0.0,0.0,0.0,0.0,3.1021,3.2685,3.3905,3.4783,3.4944,3.4944,3.4787,3.3781,3.2014,0.0,0.0,0.0,0.0,0.0,0.0,0.0,0.0,0.0,0.0,0.0,0.0,0.0,0.0,0.0,0.0,0.0,0.0,0.0,0.0,0.0,0.0,0.0,0.0,0.0,0.0,0.0,0.0,0.0,0.0,0.0,0.0,0.0,0.0,0.0,0.0,0.0,0.0,0.0,0.0,2.716,2.7519,2.8072,0.0,0.0,0.0,0.0,0.0,0.0,2.6155,2.5862,0.0,0.0,0.0,0.0,0.0,0.0,0.0,0.0,0.0,0.0,0.0,0.0,0.0,0.0,0.0,0.0,0.0,0.0,0.0,0.0,0.0,0.0,0.0,0.0,0.0,0.0,0.0,0.0,0.0,0.0,0.0,0.0,0.0,0.0,0.0,0.0,0.0,0.0,0.0,0.0,0.0,0.0,0.0,0.0,0.0,0.0,0.0,0.0,0.0,0.0,0.0,0.0,0.0,0.0,0.0,3.065,3.3034,3.4603,3.5322,3.5418,3.5418,3.5347,3.4435,3.2454,0.0,0.0,0.0,0.0,0.0,0.0,0.0,0.0,0.0,0.0,0.0,0.0,0.0,0.0,0.0,0.0,0.0,0.0,0.0,0.0,0.0,0.0,0.0,0.0,0.0,0.0,0.0,0.0,0.0,0.0,0.0,0.0,0.0,0.0,0.0,0.0,0.0,0.0,0.0,0.0,0.0,2.8549,2.8856,2.8072,0.0,0.0,0.0,0.0,2.7228,2.6934,0.0,0.0,0.0,0.0,0.0,0.0,0.0,0.0,0.0,0.0,0.0,0.0,0.0,0.0,0.0,0.0,0.0,0.0,0.0,0.0,0.0,0.0,0.0,0.0,0.0,0.0,0.0,0.0,0.0,0.0,0.0,0.0,0.0,0.0,0.0,0.0,0.0,0.0,0.0,0.0,0.0,0.0,0.0,0.0,0.0,0.0,0.0,0.0,0.0,0.0,0.0,0.0,0.0,0.0,0.0,0.0,3.1749,3.3564,3.5048,3.6199,3.6415,3.6438,3.6251,3.4723,3.2591,0.0,0.0,0.0,0.0,0.0,0.0,0.0,0.0,0.0,0.0,0.0,0.0,0.0,0.0,0.0,0.0,0.0,0.0,0.0,0.0,0.0,0.0,0.0,0.0,0.0,0.0,0.0,0.0,0.0,0.0,0.0,0.0,0.0,0.0,0.0,0.0,0.0,0.0,0.0,0.0,0.0,2.9428,2.8982,2.838,2.8147,0.0,0.0,2.8881,2.998,3.0061,0.0,0.0,0.0,0.0,0.0,0.0,0.0,0.0,0.0,0.0,0.0,0.0,0.0,0.0,0.0,0.0,0.0,0.0,0.0,0.0,0.0,0.0,0.0,0.0,0.0,0.0,0.0,0.0,0.0,0.0,0.0,0.0,0.0,0.0,0.0,0.0,0.0,0.0,0.0,0.0,0.0,0.0,0.0,0.0,0.0,0.0,0.0,0.0,0.0,0.0,0.0,0.0,0.0,0.0,0.0,3.0522,3.2475,3.5111,3.6748,3.7286,3.7383,3.7408,3.7311,3.5656,3.3438,0.0,0.0,0.0,0.0,0.0,0.0,0.0,0.0,0.0,0.0,0.0,0.0,0.0,0.0,0.0,0.0,0.0,0.0,0.0,0.0,0.0,0.0,0.0,0.0,0.0,0.0,0.0,0.0,0.0,0.0,0.0,0.0,0.0,0.0,0.0,0.0,0.0,0.0,0.0,0.0,0.0,0.0,3.0713,3.0061,0.0,0.0,0.0,2.9559,3.008,0.0,0.0,0.0,0.0,0.0,0.0,0.0,0.0,0.0,0.0,0.0,0.0,0.0,0.0,0.0,0.0,0.0,0.0,0.0,0.0,0.0,0.0,0.0,0.0,0.0,0.0,0.0,0.0,0.0,0.0,0.0,0.0,0.0,0.0,0.0,0.0,0.0,0.0,0.0,0.0,0.0,0.0,0.0,0.0,0.0,0.0,0.0,0.0,0.0,0.0,0.0,0.0,0.0,0.0,0.0,0.0,0.0,3.2837,3.6243,3.799,3.799,3.799,3.799,3.7965,3.666,0.0,0.0,0.0,0.0,0.0,0.0,0.0,0.0,0.0,0.0,0.0,0.0,0.0,0.0,0.0,0.0,0.0,0.0,0.0,0.0,0.0,0.0,0.0,0.0,0.0,0.0,0.0,1.9635,0.0,0.0,0.0,0.0,0.0,0.0,0.0,0.0,0.0,0.0,0.0,0.0,0.0,0.0,3.0809,3.1863,3.1311,3.1165,0.0,0.0,3.0281,3.0583,3.0959,3.0688,0.0,0.0,0.0,0.0,0.0,0.0,0.0,0.0,0.0,0.0,0.0,0.0,0.0,0.0,0.0,0.0,0.0,0.0,0.0,0.0,0.0,0.0,0.0,0.0,0.0,0.0,0.0,0.0,0.0,0.0,0.0,0.0,0.0,0.0,0.0,0.0,0.0,0.0,0.0,0.0,0.0,0.0,0.0,0.0,0.0,0.0,0.0,0.0,0.0,0.0,0.0,0.0,0.0,0.0,0.0,3.2863,3.6243,3.8015,3.8015,3.799,3.799,3.799,3.7412,3.5301,0.0,0.0,0.0,0.0,0.0,0.0,0.0,0.0,0.0,0.0,0.0,0.0,0.0,0.0,0.0,0.0,0.0,0.0,0.0,0.0,0.0,0.0,0.0,0.0,0.0,0.0,0.0,0.0,0.0,0.0,0.0,0.0,0.0,0.0,0.0,0.0,0.0,0.0,0.0,0.0,0.0,3.0231,3.1306,3.1406,3.1758,0.0,0.0,3.1637,3.2713,3.2889,3.1989,2.9358,0.0,0.0,0.0,0.0,0.0,0.0,0.0,0.0,0.0,0.0,0.0,0.0,0.0,0.0,0.0,0.0,0.0,0.0,0.0,0.0,0.0,0.0,0.0,0.0,0.0,0.0,0.0,0.0,0.0,0.0,0.0,0.0,0.0,0.0,0.0,0.0,0.0,0.0,0.0,0.0,0.0,0.0,0.0,0.0,0.0,0.0,0.0,0.0,0.0,0.0,0.0,0.0,0.0,3.2389,3.3854,3.7278,3.9044,3.9044,3.9044,3.9044,3.9044,3.819,3.6207,0.0,0.0,0.0,0.0,0.0,0.0,0.0,0.0,0.0,0.0,0.0,0.0,0.0,0.0,0.0,0.0,0.0,0.0,0.0,0.0,0.0,0.0,0.0,0.0,0.0,0.0,0.0,0.0,2.5795,2.6222,2.6339,0.0,0.0,0.0,0.0,0.0,0.0,0.0,0.0,0.0,0.0,3.2236,3.3294,3.3423,0.0,0.0,3.3646,3.3093,3.3542,3.3316,3.2612,3.1165,3.0507,0.0,0.0,0.0,0.0,0.0,0.0,0.0,0.0,0.0,0.0,0.0,0.0,0.0,0.0,0.0,0.0,0.0,0.0,0.0,0.0,0.0,0.0,0.0,0.0,0.0,0.0,0.0,0.0,0.0,0.0,0.0,0.0,0.0,0.0,0.0,0.0,0.0,0.0,0.0,0.0,0.0,0.0,0.0,0.0,0.0,0.0,0.0,0.0,0.0,0.0,0.0,0.0,3.3189,3.4656,3.8314,4.0099,3.9948,3.9948,3.9848,3.9672,3.8919,3.7287,0.0,0.0,0.0,0.0,0.0,0.0,0.0,0.0,0.0,0.0,0.0,0.0,0.0,0.0,0.0,0.0,0.0,0.0,0.0,0.0,0.0,0.0,0.0,0.0,0.0,0.0,0.0,0.0,2.767,2.772,2.7336,0.0,0.0,0.0,0.0,0.0,0.0,0.0,0.0,0.0,0.0,3.3202,3.4125,3.4192,3.4215,3.4615,3.3828,3.3194,3.337,3.2956,3.2395,3.1653,0.0,0.0,0.0,0.0,0.0,0.0,0.0,0.0,0.0,0.0,0.0,0.0,0.0,0.0,0.0,0.0,0.0,0.0,0.0,0.0,0.0,0.0,0.0,0.0,0.0,0.0,0.0,0.0,0.0,0.0,2.3195,0.0,0.0,0.0,0.0,0.0,0.0,0.0,0.0,0.0,0.0,0.0,0.0,0.0,0.0,0.0,0.0,0.0,0.0,0.0,0.0,0.0,0.0,3.3705,3.5018,3.9095,4.1001,4.0499,4.0501,4.0249,3.9747,3.9672,3.8617,3.6356,0.0,0.0,0.0,0.0,0.0,0.0,0.0,0.0,0.0,0.0,0.0,0.0,0.0,0.0,0.0,0.0,0.0,0.0,0.0,0.0,0.0,0.0,0.0,0.0,0.0,0.0,2.5879,2.6683,2.7336,0.0,0.0,0.0,0.0,0.0,0.0,0.0,0.0,0.0,0.0,3.1748,3.2528,3.3164,3.297,3.2835,3.2832,3.2055,3.1671,3.2185,3.1837,3.119,0.0,0.0,0.0,0.0,0.0,0.0,0.0,0.0,0.0,0.0,0.0,0.0,0.0,0.0,0.0,0.0,0.0,0.0,0.0,0.0,0.0,0.0,0.0,0.0,0.0,0.0,0.0,2.7745,2.6766,0.0,0.0,0.0,0.0,0.0,0.0,0.0,0.0,0.0,0.0,0.0,3.3348,3.412,0.0,0.0,0.0,0.0,0.0,0.0,0.0,0.0,0.0,0.0,0.0,0.0,3.4637,3.5727,3.9347,4.1227,4.1051,4.1051,4.0951,4.0775,4.0775,3.9572,3.7009,0.0,0.0,0.0,0.0,0.0,0.0,0.0,0.0,0.0,0.0,0.0,0.0,0.0,0.0,0.0,0.0,0.0,0.0,0.0,0.0,0.0,0.0,0.0,0.0,0.0,2.767,0.0,0.0,0.0,0.0,0.0,0.0,0.0,0.0,0.0,0.0,0.0,3.1251,3.1788,3.2157,3.2582,3.3146,3.2933,3.2861,0.0,0.0,0.0,0.0,0.0,0.0,0.0,0.0,0.0,0.0,0.0,0.0,0.0,0.0,2.8171,2.758,2.7215,2.7238,2.79,0.0,0.0,0.0,0.0,0.0,0.0,0.0,0.0,0.0,0.0,0.0,0.0,0.0,0.0,3.0758,0.0,2.9955,0.0,0.0,0.0,0.0,0.0,0.0,0.0,0.0,3.4675,3.5857,3.6735,3.7487,3.7538,0.0,3.6234,3.4098,0.0,0.0,0.0,0.0,0.0,0.0,0.0,0.0,3.5525,3.6721,4.0101,4.1831,4.1603,4.163,4.1503,4.1302,4.1302,4.0449,3.8668,3.654,3.4615,0.0,0.0,0.0,0.0,0.0,0.0,0.0,0.0,0.0,0.0,0.0,0.0,0.0,0.0,0.0,0.0,0.0,0.0,0.0,0.0,0.0,0.0,0.0,2.8797,0.0,0.0,0.0,0.0,0.0,0.0,0.0,0.0,0.0,3.0071,3.1076,3.1805,3.2096,3.2601,3.2798,3.2404,0.0,0.0,0.0,0.0,0.0,0.0,0.0,2.9743,2.9864,2.9386,2.9125,2.9675,2.9964,3.011,3.0083,0.0,0.0,2.8753,2.8512,2.8705,2.9412,3.0101,3.069,3.1012,3.1534,3.1659,0.0,0.0,0.0,0.0,0.0,0.0,0.0,0.0,3.4603,3.39,0.0,3.352,0.0,0.0,0.0,0.0,0.0,3.3696,0.0,0.0,3.9621,4.1001,4.0575,4.0575,4.0851,4.1252,3.922,3.7965,3.7336,3.5782,0.0,0.0,0.0,0.0,0.0,0.0,3.6434,3.8115,4.1304,4.2763,4.2288,4.2238,4.1932,4.1349,4.1351,4.1326,4.1198,3.8464,3.6971,3.7087,3.2361,0.0,0.0,0.0,0.0,0.0,0.0,0.0,0.0,0.0,0.0,0.0,0.0,0.0,0.0,0.0,0.0,0.0,0.0,0.0,0.0,2.9407,0.0,0.0,0.0,0.0,0.0,0.0,0.0,0.0,0.0,0.0,3.0855,3.1213,3.1509,3.1803,0.0,0.0,0.0,0.0,3.1763,3.0534,2.9589,2.9266,2.9844,2.978,2.9701,2.9875,0.0,0.0,3.0012,3.0912,3.1431,3.063,3.1471,3.1903,3.0342,3.0469,3.1004,3.1566,3.1615,3.1769,3.2162,3.212,3.1903,3.6281,0.0,0.0,0.0,0.0,3.4974,3.5904,3.7487,3.7637,3.7186,3.6358,3.6684,0.0,0.0,0.0,0.0,0.0,0.0,3.6934,3.8743,3.9722,4.1103,4.2808,4.2861,4.3134,4.3611,4.3009,4.2632,4.2484,4.198,3.8241,3.1532,0.0,0.0,0.0,0.0,3.8542,3.9873,4.2283,4.3489,4.3313,4.2964,4.2549,4.2149,4.2124,4.2177,4.2124,4.0757,3.9303,3.7814,3.6148,0.0,0.0,0.0,0.0,0.0,0.0,0.0,0.0,0.0,0.0,0.0,0.0,0.0,0.0,0.0,0.0,0.0,0.0,0.0,2.8729,3.014,3.0382,0.0,0.0,0.0,0.0,0.0,0.0,0.0,0.0,0.0,3.1176,3.1484,3.1882,0.0,0.0,3.1448,3.1512,3.1043,3.064,3.0506,2.9897,0.0,0.0,2.9433,2.9066,2.961,3.0303,3.076,3.0643,3.1407,3.1988,3.1732,3.1988,3.2076,3.1732,3.2053,3.2452,3.2661,3.2673,3.2767,3.3187,3.3394,3.3628,3.9924,3.8869,3.7136,3.6761,3.7387,3.7612,3.8642,4.0225,4.0426,4.0074,3.932,3.9772,3.8492,3.5983,3.5805,0.0,0.0,0.0,3.9421,4.1329,4.1555,4.2534,4.4066,4.4116,4.4263,4.4564,4.4166,4.4163,4.4564,4.3485,4.0399,3.5504,0.0,0.0,3.5278,3.8291,4.04,4.1505,4.3237,4.4116,4.4116,4.379,4.3429,4.3031,4.3006,4.2874,4.2509,4.1931,4.0939,3.9475,3.8325,3.6159,0.0,0.0,0.0,0.0,0.0,0.0,0.0,0.0,0.0,0.0,0.0,2.6016,0.0,0.0,0.0,0.0,2.7854,2.8727,2.9618,3.0684,0.0,0.0,0.0,0.0,0.0,0.0,0.0,3.1343,3.0847,3.0633,3.1134,3.147,3.1683,3.1725,3.1436,3.1255,3.1188,0.0,3.1057,3.0756,3.0388,3.0176,3.043,3.0074,2.9945,3.0517,3.1201,3.1621,3.166,3.2207,3.2637,3.2656,3.2656,3.2746,3.2922,3.3251,3.3342,3.2974,3.3075,3.3304,3.3693,3.4006,3.4329,4.314,4.276,3.8768,3.7914,3.9245,3.9772,4.0904,4.2336,4.2889,4.2559,4.1654,4.266,4.1404,3.8517,3.8015,0.0,4.0149,4.1102,4.2381,4.389,4.4364,4.4614,4.4665,4.4665,4.469,4.4744,4.3714,4.3765,4.4618,4.2231,4.1177,4.1628,4.1628,4.1001,3.9898,4.0826,4.1957,4.3115,4.4066,4.451,4.456,4.456,4.4306,4.3747,4.3751,4.3383,4.2602,4.229,4.1956,4.1606,3.9427,3.7836,3.6885,0.0,0.0,0.0,0.0,0.0,0.0,0.0,0.0,0.0,0.0,0.0,0.0,0.0,0.0,0.0,3.0799,0.0,3.1031,3.1111,0.0,0.0,0.0,3.0245,3.0225,3.0542,3.0748,3.0722,0.0,0.0,3.0937,3.1328,3.1269,3.0469,3.1615,3.206,3.0666,3.1821,3.238,3.1221,3.1025,3.1025,3.1035,3.1289,3.1641,3.2061,3.2628,3.2851,3.2891,3.3223,3.3464,3.3516,3.3555,3.3659,3.4101,3.4244,3.3963,3.3144,3.3245,3.3633,3.4077,3.4384,3.4687,4.4242,4.4113,4.3084,4.2409,4.2085,4.2585,4.3037,4.3463,4.3991,4.4062,4.3837,4.4088,4.379,4.3009,4.2883,4.3062,4.3463,4.3711,4.4012,4.4389,4.4539,4.4815,4.5271,4.5296,4.5497,4.5874,4.5648,4.5648,4.5874,4.5246,4.4794,4.4518,4.4493,4.3112,4.0475,4.1404,4.271,4.4217,4.4037,4.4102,4.4269,4.4294,4.3986,4.3365,4.3335,4.3257,4.3022,4.2522,4.2241,4.221,4.1206,3.9385,3.6691,3.4701,0.0,0.0,0.0,0.0,0.0,0.0,0.0,0.0,0.0,2.8276,2.5766,0.0,2.9465,0.0,3.1362,3.2301,3.1658,3.193,0.0,0.0,3.1464,3.1672,3.1249,3.1794,3.2096,3.1839,3.1771,3.1768,3.1885,3.1983,3.1964,3.1749,3.2047,3.2395,3.2636,3.2454,3.2274,3.2004,3.1925,3.1885,3.1934,3.2207,3.2559,3.2617,3.3313,3.3801,3.3801,3.4121,3.4394,3.4414,3.4707,3.4941,3.5059,3.5332,3.543,3.5203,3.504,3.5034,3.5412,3.5959,3.6561,4.474,4.4995,4.4715,4.4418,4.4145,4.4141,4.4138,4.4192,4.4464,4.4589,4.4589,4.4589,4.4589,4.4614,4.4865,4.484,4.464,4.5367,4.5568,4.5367,4.5844,4.625,4.6552,4.6552,4.6728,4.6973,4.6747,4.6647,4.6622,4.6175,4.5899,4.5849,4.5623,4.4568,4.2836,4.3087,4.3463,4.389,4.4423,4.496,4.5455,4.5331,4.4457,4.2844,4.2744,4.2055,4.0696,4.0297,4.0035,3.9844,3.9486,3.8323,3.6162,3.4739,3.3224,0.0,0.0,0.0,0.0,0.0,0.0,0.0,0.0,0.0,0.0,0.0,3.08,0.0,3.2097,3.2674,3.1733,3.2085,3.2138,3.1635,3.2161,3.2457,3.2093,3.2615,3.2935,3.2749,3.2922,3.3117,3.3293,3.3301,3.3332,3.3332,3.3301,3.3327,3.3406,3.3336,3.3332,3.3332,3.3301,3.3379,3.3586,3.3809,3.4004,3.4219,3.4609,3.4941,3.4941,3.5137,3.5293,3.5312,3.5508,3.5742,3.5937,3.6133,3.6348,3.6543,3.6562,3.6484,3.6348,3.6676,3.7109,4.5317,4.5748,4.5246,4.5321,4.5773,4.5246,4.4941,4.4815,4.489,4.4941,4.5016,4.5016,4.5016,4.5041,4.5573,4.5522,4.5116,4.6547,4.6948,4.6577,4.7481,4.7908,4.7908,4.7752,4.7689,4.7696,4.7214,4.6984,4.6959,4.6065,4.579,4.6165,4.5595,4.5186,4.4962,4.4702,4.4148,4.3181,4.4752,4.5889,4.662,4.6104,4.4576,4.2071,4.1865,4.0588,3.7962,3.7711,3.7366,3.6838,3.6741,3.6382,3.5614,3.4234,3.2816,0.0,2.9841,0.0,0.0,0.0,0.0,0.0,0.0,0.0,0.0,3.2281,3.2502,3.2213,3.2994,3.3047,3.1903,3.2226,3.2648,3.2961,3.3008,3.3047,3.3047,3.3359,3.3562,3.3562,3.3926,3.4329,3.457,3.4687,3.4687,3.459,3.4648,3.4446,3.3919,3.4231,3.457,3.4687,3.4687,3.4648,3.5098,3.5351,3.5527,3.5937,3.6094,3.6172,3.6118,3.6138,3.6138,3.6157,3.6269,3.6426,3.6777,3.6875,3.7086,3.7402,3.7695,3.7676,3.707,3.7007,3.7031,4.7355,4.7431,4.733,4.7355,4.7431,4.733,4.6803,4.5995,4.6446,4.6873,4.728,4.728,4.7249,4.7274,4.7405,4.738,4.7305,4.7606,4.7676,4.7606,4.7807,4.7908,4.7845,4.7006,4.6587,4.6619,4.649,4.6441,4.6441,4.6245,4.5977,4.5604,4.4671,4.3543,4.235,0.0,0.0,0.0,4.409,4.4224,4.4196,4.2597,4.1348,4.0516,4.0389,0.0,3.9477,3.9181,3.8636,3.787,3.7577,0.0,0.0,0.0,0.0,0.0,0.0,0.0,0.0,0.0,0.0,0.0,3.1091,3.1261,3.1954,3.2765,3.3412,3.3799,3.3928,3.388,3.3665,3.3965,3.4121,3.3919,3.4141,3.4336,3.4336,3.4394,3.4453,3.4453,3.4531,3.4609,3.4726,3.4687,3.4726,3.4824,3.5039,3.5176,3.5059,3.4863,3.4707,3.4707,3.4824,3.4922,3.5332,3.5723,3.6133,3.6465,3.6855,3.7031,3.7051,3.7051,3.7051,3.7051,3.7344,3.7559,3.7656,3.7969,3.82,3.8337,3.8398,3.8301,3.7812,3.7969,3.8278,4.8083,0.0,4.8033,4.8083,0.0,4.7444,4.6977,4.6792,4.7289,4.7657,4.7908,4.7908,4.7757,4.75,4.7807,4.7477,4.6754,4.7304,4.7552,4.752,4.7061,4.7151,4.7634,4.6347,4.5757,4.5757,4.5521,4.537,4.5346,4.5087,4.4827,4.4559,4.4021,4.3359,4.2555,4.3591,4.4435,4.4951,4.5041,4.5012,4.4798,4.3488,4.2099,4.0808,0.0,0.0,0.0,0.0,0.0,0.0,0.0,0.0,0.0,0.0,0.0,3.3888,3.37,3.3496,3.3205,3.3334,3.3704,3.431,3.4375,3.4164,3.3757,3.47,3.5467,3.5745,3.5533,3.5273,3.5059,3.5059,3.4863,3.4486,3.457,3.4687,3.4726,3.4902,3.5039,3.5059,3.5234,3.543,3.5644,3.5717,3.5762,3.5957,3.6172,3.6309,3.6269,3.5762,3.541,3.5644,3.5879,3.6152,3.6543,3.6797,3.709,3.7519,3.7793,3.7946,3.7965,3.7965,3.7965,3.7949,3.8105,3.8242,3.8262,3.8437,3.8611,3.8611,3.8611,3.8552,3.8281,3.8418,3.8611,4.8081,4.8327,4.7848,4.7922,4.8231,4.6891,4.6585,4.7102,0.0,0.0,0.0,4.7618,4.7394,4.7022,4.7356,4.6777,4.5613,4.6456,4.6841,4.68,4.6047,4.6167,4.696,4.5571,4.4948,4.4892,4.4481,4.4265,4.4243,4.3799,4.3617,4.3584,4.3418,4.3395,4.3562,4.3551,4.4114,4.5237,4.5406,4.5494,4.5551,4.4416,4.2972,4.1198,3.9603,3.7905,3.6123,3.5912,3.5856,3.5852,3.5842,3.5737,3.5547,3.5567,3.5424,3.5177,3.5156,3.5488,3.6191,3.6216,3.6543,3.7246,3.7441,3.7012,3.582,3.6699,3.7305,3.7305,3.6973,3.6656,3.6235,3.5937,3.5586,3.5195,3.5156,3.5176,3.5195,3.5488,3.5762,3.5762,3.6055,3.6367,3.6734,3.6773,3.6929,3.7187,3.7168,3.7305,3.7226,3.666,3.6348,3.6695,3.6894,3.7363,3.7757,3.7913,3.8203,3.8535,3.8711,3.8809,3.8845,3.8845,3.8809,3.8845,3.8809,3.8828,3.8865,3.8904,3.8809,3.8845,3.8845,3.8845,3.8809,3.8845,3.8789,4.7487,4.6708,4.6637,4.6661,4.6732,4.6471,4.6428,4.6508,4.657,4.6613,4.6613,4.6613,4.6566,4.6485,4.62,4.5976,4.5762,4.56,4.5478,4.5478,4.5344,4.5368,4.5458,4.4367,4.3838,4.3816,4.3749,4.3727,4.3693,4.3626,4.3616,4.3501,4.2692,4.2692,4.3513,4.3294,4.3259,4.3456,4.2396,4.2378,4.3427,4.0774,3.9658,4.0177,3.872,3.768,3.7348,3.7004,3.669,3.6416,3.6363,3.6428,3.6513,3.6533,3.6632,3.691,3.6934,3.6992,3.7109,3.7109,3.7168,3.7324,3.7969,3.8044,3.7129,3.7187,3.7305,3.7305,3.7305,3.7187,3.7109,3.707,3.6973,3.6875,3.6914,3.6914,3.6836,3.6914,3.6973,3.6973,3.707,3.7129,3.7226,3.7246,3.7266,3.7305,3.748,3.7363,3.7402,3.7207,3.7148,3.7187,3.7246,3.748,3.7891,3.8262,3.8594,3.9043,3.9394,3.957,3.959,3.959,3.959,3.9668,3.9609,3.9629,3.9648,3.9707,3.9629,3.9609,3.9609,3.9629,3.9609,3.9609,3.9471,4.7958,4.7312,4.6985,4.6702,4.6461,4.5896,4.5305,4.4779,4.4744,4.5266,4.6069,4.636,4.6177,4.5731,4.6069,4.5611,4.4584,4.493,4.4973,4.4678,4.4154,4.4194,4.4629,4.3506,4.2885,4.2885,4.2885,4.2885,4.2885,4.2885,4.2885,4.2849,4.215,4.2042,4.2454,4.2129,4.188,4.1659,4.2386,4.2814,4.2716,4.0959,4.0274,4.0776,3.9068,3.8142,3.8122,3.7966,3.779,3.7649,3.7649,3.7677,3.7731,3.7731,3.7829,3.7988,3.8203,3.834,3.834,3.8555,3.8711,3.8711,3.9062,3.9141,3.875,3.8476,3.8437,3.8672,3.8496,3.8223,3.8027,3.8203,3.8066,3.7363,3.75,3.7539,3.7363,3.7519,3.7637,3.7656,3.7851,3.7988,3.7988,3.7988,3.8024,3.8008,3.8144,3.832,3.834,3.8535,3.8418,3.7832,3.7851,3.8047,3.8262,3.8418,3.8787,3.9121,3.9375,3.9609,3.9805,3.9902,3.9902,3.9883,3.9902,3.9883,3.9902,3.9883,3.9883,3.9883,3.9883,3.9883,3.9883,3.9883,3.9746,4.8019,4.7456,4.7012,4.6501,4.5961,4.4942,4.4055,4.3422,4.3313,4.3945,4.5094,4.562,4.5401,4.4817,4.5445,4.4848,4.3599,4.4046,4.4199,4.3787,4.3049,4.3145,4.3758,4.2779,4.2285,4.2285,4.2285,4.2285,4.2285,4.2285,4.2285,4.2249,4.1916,4.1768,4.1768,4.136,4.0975,4.0833,4.2536,4.3113,4.2407,4.1662,4.1403,4.1582,3.996,3.9014,3.9014,3.8941,3.8904,3.8904,3.8904,3.8923,3.8904,3.8904,3.8904,3.8906,3.918,3.9355,3.9375,3.9687,3.9883,3.9902,4.0078,4.0176,4.0156,3.9961,3.9785,3.9844,3.9512,3.9199,3.8965,3.9141,3.8945,3.8027,3.8164,3.8301,3.7988,3.8147,3.8359,3.8398,3.8672,3.8867,3.8867,3.8904,3.8904,3.8926,3.916,3.9336,3.9394,3.9687,3.9394,3.8809,3.8652,3.8867,3.8887,3.9004,3.9199,3.9473,3.9648,3.9922,4.0176,4.0215,4.0195,4.0254,4.0234,4.0254,4.0215,4.0215,4.0234,4.0273,4.0293,4.0234,4.0254,4.0254,4.0098,4.6587,4.5716,4.5605,4.5097,4.4313,4.3451,4.3209,4.3319,4.3005,4.2926,4.3279,4.3519,4.37,4.3512,4.3364,4.3124,4.2873,4.2648,4.2617,4.2554,4.2375,4.2396,4.2622,4.238,4.2306,4.2327,4.2348,4.2389,4.2368,4.2348,4.2306,4.2285,4.2249,4.2179,4.2159,4.1751,4.1488,4.1485,4.137,4.153,4.1952,4.1383,4.1514,4.2559,4.105,4.0213,4.0176,3.9953,3.9785,3.9766,3.9746,3.9766,3.9766,3.9766,3.9766,3.9766,3.9824,3.9824,3.9863,3.9883,3.9961,3.9941,4.0664,4.1093,4.1113,4.1348,4.1055,4.0254,3.9902,3.9863,3.9785,3.9844,3.9785,3.9512,3.957,3.9687,3.957,3.9687,3.9707,3.9707,3.9707,3.9785,3.9726,3.9687,3.9707,3.9629,3.9726,3.9824,3.9824,3.9941,4.0,3.9746,3.9766,3.9726,3.9746,4.0098,4.0156,4.0332,4.0684,4.0859,4.0937,4.1035,4.1055,4.1035,4.1054,4.1035,4.1035,4.1093,4.1035,4.0917,4.0937,4.1035,4.1074,4.1015,4.0761,4.5852,4.5218,4.4849,4.4344,4.3778,4.3402,4.3356,4.3506,4.3356,4.3281,4.3281,4.3468,4.3359,4.3108,4.3231,4.3135,4.2869,4.3007,4.2911,4.2704,4.2911,4.3056,4.3056,4.3056,4.3056,4.3056,4.3056,4.3056,4.3018,4.283,4.2717,4.2662,4.2264,4.1999,4.1961,4.1581,4.1233,4.0936,4.108,4.1133,4.1131,4.1081,4.1294,4.1632,4.1175,4.0855,4.0835,4.0486,4.0273,4.0254,4.0039,4.0019,4.0254,4.0039,4.0117,4.0605,4.0898,4.1133,4.1367,4.1387,4.1387,4.1387,4.1699,4.1914,4.1914,4.207,4.1836,4.1191,4.1016,4.0937,4.0703,4.0879,4.0742,4.0137,4.0117,4.0176,3.9922,4.0117,4.0273,4.0255,4.0488,4.0527,4.0293,4.0059,3.9902,3.9922,4.0078,4.0254,4.0273,4.0488,4.0683,4.0664,4.0644,4.0448,4.0078,4.0,4.0351,4.0742,4.082,4.0898,4.1699,4.166,4.1601,4.1836,4.168,4.1562,4.1523,4.1348,4.1211,4.1211,4.123,4.1211,4.1211,4.1211,4.1015,4.5493,4.5164,4.4496,4.3992,4.3589,4.3465,4.3348,4.3251,4.3251,4.3272,4.3272,4.3251,4.3087,4.2878,4.3356,4.3332,4.305,4.328,4.3201,4.282,4.3107,4.3251,4.3251,4.3251,4.3272,4.3272,4.3251,4.3251,4.3272,4.3004,4.2851,4.2736,4.2274,4.1966,4.1927,4.154,4.1209,4.0954,4.1113,4.1016,4.08,4.1188,4.1402,4.1323,4.1445,4.1504,4.1543,4.1211,4.1016,4.0996,4.0704,4.0723,4.0977,4.0762,4.0859,4.1445,4.1797,4.209,4.2362,4.2382,4.2382,4.2401,4.2519,4.2598,4.2617,4.2598,4.248,4.2187,4.2031,4.1738,4.1289,4.1445,4.1191,4.0391,4.0547,4.0547,4.0332,4.0547,4.0703,4.0723,4.0937,4.1113,4.0742,4.0469,4.0312,4.0332,4.0527,4.0703,4.0723,4.0957,4.1172,4.1211,4.1191,4.0957,4.0371,4.0332,4.0605,4.0859,4.0996,4.1289,4.2129,4.1973,4.1992,4.2129,4.2051,4.1992,4.1973,4.1699,4.1425,4.1406,4.1366,4.1288,4.1168,4.1189,4.1112,4.5601,4.5436,4.4654,4.4022,4.3655,4.3226,4.2851,4.26,4.2524,4.2485,4.2562,4.2524,4.2485,4.2501,4.3289,4.3365,4.3001,4.2984,4.283,4.2463,4.2465,4.2447,4.2447,4.2447,4.2485,4.2562,4.2562,4.2524,4.2485,4.2447,4.2408,4.2408,4.2293,4.2331,4.2216,4.1889,4.1734,4.1597,4.1346,4.1191,4.123,4.1875,4.209,4.1817,4.2148,4.2383,4.2363,4.2344,4.2284,4.2324,4.2187,4.2266,4.2305,4.2245,4.2245,4.2323,4.2362,4.2422,4.2421,4.246,4.244,4.246,4.2832,4.3047,4.3029,4.3027,4.2988,4.3029,4.2598,4.209,4.1406,4.1367,4.1289,4.1113,4.1113,4.1132,4.1113,4.1054,4.1172,4.1152,4.1172,4.1172,4.1152,4.1172,4.1054,4.1054,4.1132,4.1113,4.1113,4.1191,4.1211,4.1211,4.1211,4.1191,4.1132,4.0918,4.1035,4.1308,4.1562,4.1777,4.1914,4.209,4.2305,4.2421,4.2441,4.2422,4.2362,4.2224,4.1946,4.1787,4.1588,4.1487,4.1153,4.114,4.1067,4.4283,4.4322,4.3964,4.3748,4.3613,4.3448,4.331,4.3175,4.3175,4.3195,4.3195,4.3136,4.3042,4.2812,4.3348,4.3233,4.2639,4.2621,4.2524,4.2408,4.2408,4.2408,4.2408,4.2408,4.2408,4.2408,4.2408,4.2408,4.237,4.2159,4.2005,4.1966,4.1734,4.1618,4.1618,4.1521,4.1405,4.1405,4.125,4.1211,4.125,4.1738,4.207,4.2187,4.2891,4.3242,4.3201,4.2988,4.2851,4.2832,4.2538,4.2558,4.2832,4.3105,4.3125,4.291,4.3086,4.3242,4.3242,4.3242,4.3125,4.291,4.3242,4.3359,4.3224,4.332,4.3379,4.3146,4.2969,4.2558,4.209,4.1738,4.1465,4.1269,4.1211,4.125,4.1211,4.1211,4.1211,4.1211,4.1211,4.1211,4.1269,4.1211,4.1211,4.1211,4.1211,4.125,4.123,4.1211,4.125,4.1211,4.1211,4.1211,4.1211,4.1191,4.1308,4.1699,4.2051,4.2402,4.2617,4.2635,4.283,4.2843,4.2845,4.2568,4.2407,4.195,4.1788,4.1225,4.1103,4.0874,4.1152,4.0507,4.0599,4.3615,4.3615,4.3615,4.3539,4.3424,4.3424,4.331,4.3233,4.3081,4.3042,4.3004,4.2889,4.2659,4.2467,4.2697,4.2544,4.2082,4.2254,4.2254,4.2043,4.2005,4.2043,4.2005,4.1985,4.2043,4.2005,4.2005,4.2005,4.2005,4.1734,4.1618,4.1599,4.1327,4.1211,4.1211,4.1211,4.1211,4.1211,4.1211,4.1211,4.123,4.1582,4.1933,4.2305,4.3066,4.3574,4.3691,4.3437,4.3281,4.3242,4.2988,4.2969,4.3262,4.3555,4.3574,4.3359,4.3535,4.3691,4.3691,4.3691,4.3574,4.332,4.3516,4.3555,4.332,4.3418,4.334,4.3125,4.291,4.2715,4.2461,4.2168,4.1894,4.1621,4.1582,4.1582,4.1582,4.1621,4.1601,4.1621,4.1641,4.1601,4.1582,4.1601,4.1601,4.1562,4.1582,4.1582,4.1582,4.1582,4.1582,4.1582,4.1641,4.166,4.162,4.162,4.1484,4.1815,4.2126,4.2594,4.2902,4.2999,4.3094,4.3225,4.3041,4.2702,4.2223,4.1704,4.1036,4.0322,3.9728,3.9354,3.9473,3.9526,3.9395,4.3615,4.3618,4.3635,4.3392,4.3147,4.3108,4.2835,4.2568,4.22,4.2222,4.2261,4.1678,4.1718,4.1445,4.1757,4.1425,4.1562,4.2183,4.2046,4.1366,4.1288,4.1288,4.1327,4.1327,4.1366,4.1386,4.1289,4.1308,4.1406,4.1426,4.1367,4.125,4.1308,4.1269,4.1211,4.1211,4.1211,4.1211,4.1211,4.1211,4.125,4.1543,4.1797,4.1953,4.2637,4.3242,4.3672,4.3691,4.3633,4.3652,4.3633,4.3672,4.3652,4.3691,4.3691,4.3652,4.3691,4.3691,4.3691,4.3691,4.3691,4.3574,4.3672,4.3672,4.3516,4.334,4.3183,4.3125,4.2832,4.2519,4.2518,4.2479,4.2422,4.2402,4.2266,4.2285,4.2324,4.2343,4.2362,4.2284,4.2245,4.2343,4.2343,4.2245,4.2246,4.2246,4.2226,4.2206,4.2187,4.2167,4.2304,4.2264,4.2009,4.1755,4.1948,4.2062,4.185,4.1773,4.2063,4.2411,4.2592,4.2721,4.2773,4.2822,4.278,4.2359,4.0594,4.0072,3.9622,3.8947,3.8373,3.793,3.8075,3.8074,3.7573,4.361,4.3608,4.3628,4.3579,4.3492,4.3473,4.3394,4.3295,4.3158,4.3119,4.3079,4.2961,4.2764,4.2586,4.2764,4.2586,4.2111,4.2566,4.2269,4.1367,4.123,4.123,4.123,4.123,4.1367,4.1621,4.1914,4.2031,4.1992,4.1992,4.1914,4.166,4.1601,4.1445,4.123,4.1211,4.1211,4.1211,4.1211,4.1211,4.1211,4.1308,4.1641,4.2168,4.2226,4.2656,4.3613,4.3691,4.3691,4.3691,4.3691,4.3691,4.3691,4.3691,4.3691,4.3691,4.3691,4.3691,4.3691,4.3691,4.3574,4.3418,4.3535,4.3535,4.3359,4.3437,4.3476,4.3496,4.3379,4.3301,4.3301,4.3301,4.3047,4.246,4.2382,4.2421,4.246,4.2421,4.2382,4.2382,4.2382,4.2382,4.2382,4.2441,4.244,4.2382,4.2401,4.2401,4.2382,4.2382,4.2261,4.208,4.1846,4.1631,4.1508,4.1463,4.1346,4.1464,4.1812,4.1814,4.2008,4.2069,4.2159,4.1882,4.1923,4.1108,3.9381,3.8511,3.81,3.7629,3.7105,3.6907,3.6913,3.6561,3.6091,4.3754,4.3605,4.3626,4.3614,4.3646,4.3666,4.365,4.3614,4.3476,4.3458,4.3439,4.328,4.3081,4.2961,4.3121,4.2922,4.2481,4.2742,4.2328,4.1563,4.1601,4.1641,4.1641,4.1641,4.1641,4.1797,4.207,4.2109,4.1953,4.1953,4.1816,4.1601,4.1562,4.1484,4.123,4.1211,4.123,4.1367,4.1406,4.1484,4.1601,4.1641,4.1894,4.2284,4.2324,4.2695,4.3437,4.3613,4.3691,4.3691,4.3691,4.3691,4.3691,4.3691,4.3691,4.3691,4.3691,4.3691,4.3691,4.3691,4.3613,4.3418,4.3555,4.3613,4.3418,4.3594,4.3691,4.3691,4.3672,4.3691,4.3691,4.3691,4.3437,4.2988,4.293,4.285,4.287,4.287,4.2889,4.2949,4.293,4.2832,4.2715,4.2851,4.2715,4.2518,4.2558,4.2558,4.246,4.2382,4.216,4.1959,4.1744,4.1428,4.0912,4.0787,4.078,4.1125,4.1528,4.1275,4.1175,4.1016,4.0939,3.9823,3.9501,3.8674,3.7155,3.7112,3.681,3.6307,3.5629,3.5106,3.48,3.4931,3.4622,4.397,4.3639,4.3621,4.3592,4.3618,4.3621,4.3618,4.3567,4.3256,4.3161,4.3121,4.2858,4.2618,4.2539,4.2757,4.2677,4.2519,4.2598,4.2481,4.2207,4.2305,4.2402,4.2109,4.2069,4.2031,4.1836,4.1875,4.1738,4.166,4.166,4.1289,4.1543,4.1543,4.1348,4.1426,4.1308,4.1504,4.1797,4.1836,4.2012,4.2284,4.2323,4.2382,4.246,4.2754,4.2988,4.3262,4.3535,4.3691,4.3691,4.3691,4.3691,4.3691,4.3691,4.3691,4.3691,4.3691,4.3691,4.3691,4.3691,4.3691,4.3652,4.3652,4.3691,4.3672,4.3672,4.3691,4.3691,4.3691,4.3691,4.3691,4.3691,4.3672,4.3691,4.3555,4.3574,4.3672,4.3633,4.3555,4.3594,4.3652,4.3555,4.3164,4.3418,4.3203,4.285,4.291,4.291,4.2754,4.2595,4.2298,4.2037,4.1773,4.1273,4.0771,4.0621,4.0611,4.0819,4.1118,4.0814,4.0132,3.9745,3.9058,3.7946,3.7344,3.6307,3.5613,3.5613,3.509,3.4319,3.3587,3.294,3.3073,3.3514,3.3719,4.3733,4.3592,4.3666,4.3675,4.364,4.3698,4.3655,4.3672,4.3571,4.349,4.3503,4.342,4.332,4.3359,4.334,4.3359,4.332,4.332,4.334,4.3242,4.3301,4.2578,4.1797,4.1855,4.1953,4.1894,4.2148,4.2363,4.2599,4.2481,4.252,4.2578,4.2441,4.2344,4.2148,4.2051,4.2148,4.2246,4.2266,4.2305,4.2382,4.2421,4.2598,4.2871,4.2734,4.2969,4.3457,4.3633,4.3691,4.3691,4.3691,4.3691,4.3691,4.3691,4.3691,4.3691,4.3691,4.3691,4.3691,4.3691,4.3691,4.3691,4.3691,4.3691,4.3691,4.3691,4.3691,4.3691,4.3691,4.3691,4.3691,4.3691,4.3691,4.3691,4.3691,4.3691,4.3691,4.3691,4.3691,4.3691,4.3691,4.3613,4.3535,4.3574,4.3555,4.334,4.332,4.3379,4.3047,4.2769,4.2432,4.2094,4.1723,4.1222,4.0797,4.0583,4.0552,4.0644,4.0657,4.0349,3.9338,3.8289,3.7129,3.583,3.6264,3.5613,3.4756,3.4275,3.3367,3.2896,3.2852,3.2808,3.2808,3.3073,3.3117,4.3446,4.3103,4.3294,4.3399,4.344,4.3636,4.3689,4.3724,4.3703,4.3719,4.3713,4.3691,4.3691,4.3691,4.3691,4.3691,4.3691,4.3691,4.3594,4.3379,4.3203,4.2793,4.2383,4.2519,4.2519,4.2363,4.2558,4.2695,4.2754,4.2812,4.2812,4.2734,4.2793,4.2676,4.2362,4.2382,4.2499,4.2656,4.2695,4.2754,4.2949,4.2949,4.3066,4.3281,4.3086,4.3262,4.3652,4.3691,4.3691,4.3691,4.3691,4.3691,4.3691,4.3691,4.3691,4.3691,4.3691,4.3691,4.3691,4.3691,4.3691,4.3691,4.3691,4.3691,4.3691,4.3691,4.3691,4.3691,4.3691,4.3691,4.3691,4.3691,4.3691,4.3691,4.3691,4.3691,4.3691,4.3691,4.3691,4.3691,4.3691,4.3613,4.3496,4.3594,4.3496,4.3281,4.3223,4.3183,4.3066,4.2806,4.2382,4.1862,4.1328,4.0692,4.0248,4.0033,3.9985,4.0112,3.9134,3.9058,3.822,3.68,3.5411,3.4538,3.4975,3.4975,3.4071,3.3411,3.3161,3.2896,3.2852,3.2808,3.2808,3.2808,3.2808,4.3141,4.247,4.2855,4.3037,4.3178,4.3539,4.3718,4.3714,4.3691,4.3744,4.3772,4.373,4.3808,4.3828,4.3906,4.3828,4.3887,4.3984,4.3672,4.3398,4.3125,4.3047,4.3398,4.3183,4.3047,4.2851,4.2969,4.2832,4.2695,4.2578,4.2538,4.2734,4.2695,4.2577,4.2674,4.2596,4.2793,4.3066,4.3144,4.3262,4.3496,4.3535,4.3574,4.3574,4.3594,4.3574,4.3672,4.3691,4.3691,4.3691,4.3691,4.3691,4.3691,4.3691,4.3691,4.3691,4.3691,4.3691,4.3691,4.3691,4.3691,4.3691,4.3691,4.3691,4.3691,4.3691,4.3691,4.3691,4.3691,4.3691,4.3691,4.3691,4.3769,4.3789,4.3789,4.3711,4.375,4.373,4.3691,4.3691,4.3691,4.3496,4.3379,4.3359,4.3457,4.334,4.3301,4.332,4.3042,4.2663,4.2015,4.1155,4.061,4.0074,3.9704,3.9388,3.939,3.9336,3.7657,3.6956,3.6567,3.5324,3.3851,3.3205,3.3851,3.3895,3.3338,3.294,3.2896,3.2896,3.2808,3.2808,3.2808,3.2808,3.2808,4.2749,4.2875,4.3021,4.326,4.3538,4.365,4.3723,4.3739,4.3698,4.3952,4.4101,4.3887,4.4121,4.4687,4.4394,4.4414,4.4648,4.4648,4.4512,4.4141,4.4043,4.3808,4.3672,4.3223,4.2754,4.2656,4.2598,4.2695,4.2871,4.2969,4.3105,4.3359,4.3301,4.3418,4.3379,4.332,4.3437,4.3555,4.3555,4.3594,4.3691,4.375,4.3769,4.3769,4.3769,4.373,4.3711,4.3691,4.3691,4.3691,4.373,4.3808,4.3711,4.373,4.375,4.3769,4.375,4.375,4.373,4.3769,4.3711,4.3789,4.3808,4.3691,4.3711,4.3769,4.373,4.3711,4.3691,4.375,4.375,4.3711,4.3867,4.4043,4.3906,4.3848,4.4101,4.3926,4.373,4.3691,4.3691,4.3672,4.3574,4.3574,4.3555,4.3418,4.3437,4.3496,4.2992,4.2414,4.1388,4.0331,3.9593,3.8955,3.8541,3.8222,3.8182,3.8066,3.6609,3.5308,3.4931,3.445,3.3205,3.2808,3.2896,3.2808,3.2808,3.2808,3.2852,3.2808,3.2808,3.2808,3.2808,3.2808,3.2808,4.2742,4.2764,4.3,4.3235,4.3429,4.3617,4.3828,4.4004,4.4043,4.4277,4.457,4.4414,4.4609,4.4957,4.4805,4.4824,4.498,4.5019,4.486,4.4707,4.4668,4.4551,4.4355,4.3826,4.3455,4.3125,4.3006,4.3183,4.332,4.3398,4.3457,4.3672,4.3711,4.3652,4.3691,4.373,4.3672,4.3672,4.3711,4.3789,4.3984,4.4023,4.418,4.4277,4.4316,4.4316,4.4355,4.4336,4.4336,4.4316,4.4316,4.4101,4.3828,4.3906,4.4023,4.4043,4.4258,4.4316,4.4274,4.4316,4.4355,4.4316,4.4316,4.4336,4.4336,4.4316,4.4199,4.4082,4.4043,4.4023,4.4023,4.3789,4.3965,4.4199,4.3984,4.3926,4.4219,4.3984,4.3691,4.3691,4.3691,4.3691,4.3691,4.3691,4.3672,4.3555,4.339,4.3366,4.1959,4.1291,4.0246,3.9254,3.8457,3.7794,3.7356,3.6986,3.6781,3.6426,3.5636,3.4581,3.3851,3.3411,3.2896,3.2808,3.2808,3.2808,3.2808,3.2808,3.2808,3.2808,3.2778,3.2808,3.2763,3.2763,3.2763,4.2821,4.2558,4.293,4.3146,4.3223,4.3555,4.3906,4.4219,4.4297,4.4414,4.4782,4.4883,4.4707,4.4938,4.4902,4.4941,4.5019,4.5019,4.4941,4.4805,4.4743,4.4626,4.457,4.4372,4.4238,4.3828,4.3867,4.3926,4.3945,4.3906,4.4023,4.3945,4.3945,4.4043,4.3965,4.3926,4.4023,4.4043,4.4062,4.416,4.4433,4.4492,4.4648,4.4844,4.486,4.4883,4.4883,4.4902,4.4961,4.5039,4.5039,4.4629,4.4238,4.4219,4.4492,4.4512,4.4723,4.4863,4.4863,4.4879,4.4941,4.5039,4.5,4.498,4.4961,4.4902,4.4746,4.4609,4.4492,4.4492,4.4473,4.4258,4.4258,4.4453,4.4219,4.4121,4.4297,4.406,4.3762,4.3848,4.3769,4.3691,4.3691,4.3691,4.3691,4.3609,4.3402,4.2822,4.1383,4.0035,3.8955,3.8074,3.7255,3.6215,3.5673,3.5383,3.5209,3.499,3.4422,3.3748,3.2925,3.2528,3.2321,3.2719,3.2808,3.2808,3.2808,3.2808,3.2808,3.2778,3.2645,3.2498,3.2542,3.2689,3.2675,4.2717,4.2969,4.3087,4.3281,4.3594,4.3691,4.3808,4.3808,4.3965,4.4101,4.4492,4.416,4.4531,4.4844,4.4648,4.4726,4.5098,4.5156,4.4961,4.4707,4.4648,4.4531,4.4258,4.4277,4.418,4.4375,4.4531,4.4687,4.4684,4.4762,4.4648,4.4704,4.4684,4.4726,4.4707,4.4785,4.4687,4.4629,4.4606,4.4723,4.4883,4.498,4.5019,4.5156,4.5176,4.5113,4.5055,4.5058,4.5039,4.5039,4.5039,4.4918,4.4863,4.4902,4.4961,4.4961,4.5016,4.5195,4.5176,4.5055,4.5058,4.5039,4.5117,4.5055,4.5035,4.5078,4.5098,4.498,4.4902,4.4902,4.4922,4.4746,4.5,4.5176,4.4977,4.4743,4.4658,4.4217,4.382,4.3987,4.386,4.3609,4.3504,4.3319,4.3154,4.2719,4.222,4.1449,4.0144,3.8794,3.7531,3.6725,3.5955,3.4866,3.3888,3.3649,3.347,3.3515,3.3102,3.2778,3.2129,3.1774,3.1774,3.2218,3.2586,3.2719,3.2719,3.2763,3.2586,3.2454,3.2276,3.2143,3.2143,3.2188,3.2365,4.3887,4.4082,4.4082,4.4199,4.4355,4.4375,4.4512,4.4707,4.4726,4.498,4.5215,4.5176,4.5254,4.5547,4.5508,4.5527,4.5586,4.5683,4.5449,4.5137,4.5039,4.4824,4.4394,4.4375,4.4512,4.4726,4.4922,4.5039,4.5039,4.4957,4.5039,4.5019,4.5039,4.5039,4.5019,4.498,4.5039,4.5039,4.5058,4.5156,4.5371,4.5527,4.5664,4.5683,4.5664,4.5683,4.5683,4.5683,4.5703,4.5703,4.5703,4.5683,4.5664,4.5644,4.5586,4.543,4.5527,4.5664,4.5683,4.5683,4.5703,4.5703,4.5664,4.5683,4.5683,4.5703,4.5547,4.5371,4.5117,4.5137,4.5332,4.5176,4.5254,4.5445,4.5141,4.4873,4.4667,4.3964,4.3849,4.3833,4.3224,4.2895,4.2924,4.2758,4.2531,4.1969,4.1155,3.9957,3.8742,3.7428,3.611,3.5488,3.4829,3.4367,3.3423,3.3068,3.2714,3.2507,3.2183,3.1814,3.158,3.1357,3.1432,3.1729,3.2099,3.2365,3.2719,3.2719,3.2409,3.2099,3.201,3.1921,3.1729,3.1685,3.1877,4.5039,4.5039,4.5039,4.5039,4.5039,4.5019,4.5176,4.5508,4.5469,4.5625,4.6016,4.5976,4.5918,4.5996,4.5976,4.5976,4.6055,4.5957,4.5703,4.5488,4.541,4.5273,4.5098,4.5039,4.5039,4.5137,4.5176,4.5117,4.5039,4.5039,4.5039,4.5039,4.5039,4.5098,4.5156,4.5234,4.5176,4.5273,4.5293,4.5488,4.5801,4.6113,4.6308,4.6308,4.6308,4.625,4.6191,4.6191,4.6191,4.6211,4.623,4.6269,4.6289,4.6308,4.6152,4.5918,4.6133,4.6269,4.6269,4.625,4.6172,4.6152,4.625,4.6269,4.625,4.6133,4.6094,4.5801,4.5566,4.5469,4.5703,4.5508,4.5527,4.5601,4.5265,4.475,4.466,4.4171,4.3467,4.3155,4.2462,4.227,4.2358,4.1858,4.1588,4.0711,3.9905,3.8195,3.6956,3.5859,3.4729,3.4247,3.3809,3.3779,3.3341,3.3042,3.2701,3.2401,3.1932,3.1405,3.1245,3.1087,3.1207,3.1237,3.1374,3.1699,3.2188,3.2454,3.1966,3.1655,3.1699,3.1566,3.1285,3.1196,3.1329,4.5039,4.5039,4.5039,4.5039,4.5058,4.5078,4.5058,4.5156,4.5215,4.5117,4.5391,4.5273,4.5332,4.5351,4.5332,4.5211,4.5231,4.5391,4.541,4.5293,4.5254,4.5195,4.4996,4.5039,4.5195,4.5351,4.5488,4.5371,4.5156,4.5078,4.5055,4.5094,4.5215,4.5215,4.5586,4.5605,4.5801,4.6074,4.6113,4.6133,4.6191,4.6269,4.6289,4.6308,4.6308,4.6308,4.6308,4.6308,4.6308,4.6308,4.6308,4.6308,4.6308,4.6308,4.6289,4.625,4.6289,4.6308,4.6308,4.6308,4.6308,4.6308,4.6308,4.6308,4.6308,4.6308,4.6269,4.6269,4.6113,4.6074,4.6113,4.6133,4.6172,4.6046,4.5774,4.5276,4.5006,4.3976,4.3334,4.2039,4.1219,4.1549,4.1829,4.1172,4.0488,3.9532,3.8425,3.6763,3.5399,3.4489,3.3888,3.3496,3.3514,3.3466,3.3145,3.2831,3.2559,3.2257,3.17,3.1117,3.103,3.0872,3.0591,3.0667,3.0832,3.1056,3.1427,3.1516,3.1268,3.1151,3.1165,3.0987,3.0763,3.075,3.0794,4.5742,4.5742,4.5742,4.5762,4.5742,4.5742,4.5742,4.5742,4.5742,4.5742,4.5742,4.5742,4.5742,4.5703,4.5742,4.5762,4.5742,4.5703,4.5586,4.543,4.5371,4.5273,4.5078,4.5039,4.5176,4.5312,4.5293,4.5195,4.5156,4.5508,4.5742,4.5683,4.5723,4.584,4.5937,4.6016,4.6113,4.625,4.6289,4.6289,4.6308,4.6308,4.6308,4.6308,4.6308,4.6308,4.6308,4.6308,4.6308,4.6308,4.6308,4.6308,4.6308,4.6308,4.6308,4.6308,4.6289,4.6308,4.6308,4.6308,4.6308,4.6308,4.6308,4.6308,4.6308,4.6308,4.6308,4.6289,4.6308,4.6308,4.6265,4.6308,4.6133,4.6002,4.5783,4.5203,4.4599,4.3809,4.2812,4.1339,3.9975,3.9966,3.9782,3.8847,3.7979,3.7288,3.647,3.5387,3.4382,3.3724,3.3307,3.3075,3.3225,3.3407,3.2959,3.2547,3.2302,3.2001,3.1427,3.0975,3.0902,3.0716,3.0528,3.0501,3.0731,3.0859,3.0903,3.1004,3.1142,3.0908,3.0629,3.055,3.0501,3.0272,3.0361,4.6308,4.6308,4.6308,4.6308,4.6308,4.6308,4.6289,4.6289,4.6269,4.6289,4.6308,4.6269,4.6269,4.6289,4.625,4.6211,4.6269,4.6308,4.6113,4.5918,4.5801,4.5664,4.5527,4.541,4.541,4.5289,4.5527,4.5488,4.5625,4.5859,4.6094,4.6016,4.5723,4.5937,4.6094,4.6094,4.6113,4.6289,4.6308,4.6308,4.6308,4.6308,4.6308,4.6308,4.6308,4.6308,4.6308,4.6308,4.6308,4.6308,4.6308,4.6308,4.6308,4.6308,4.6308,4.6308,4.6308,4.6308,4.6308,4.6308,4.6308,4.6308,4.6308,4.6308,4.6308,4.6308,4.6308,4.6308,4.6308,4.6265,4.6133,4.609,4.5826,4.5519,4.5166,4.4636,4.396,4.2992,4.179,4.0233,3.8718,3.7148,3.6777,3.5983,3.5294,3.4837,3.4279,3.3808,3.3413,3.298,3.2896,3.2748,3.2899,3.3044,3.2655,3.2263,3.2044,3.1743,3.1214,3.0962,3.0968,3.0861,3.07,3.0681,3.0715,3.0759,3.0826,3.0954,3.1073,3.0867,3.065,3.0425,3.0281,3.0052,2.9958,4.6308,4.6308,4.6308,4.6308,4.6308,4.6308,4.6308,4.6308,4.6308,4.6308,4.6308,4.6308,4.6308,4.6308,4.6308,4.6308,4.6308,4.6308,4.625,4.623,4.623,4.6152,4.6055,4.6035,4.6113,4.6113,4.6016,4.6055,4.6172,4.6113,4.584,4.5211,4.5523,4.5547,4.5703,4.5957,4.6074,4.625,4.6308,4.6308,4.6308,4.6308,4.6308,4.6308,4.6308,4.6308,4.6308,4.6308,4.6308,4.6308,4.6308,4.6308,4.6308,4.6308,4.6308,4.6308,4.6308,4.6308,4.6308,4.6308,4.6308,4.6308,4.6308,4.6265,4.6177,4.6265,4.6308,4.6221,4.6177,4.6046,4.5826,4.5588,4.528,4.4883,4.4352,4.3667,4.2935,4.1959,4.0708,3.9121,3.7482,3.5817,3.4547,3.3918,3.3962,3.3561,3.3264,3.2793,3.2804,3.2527,3.2597,3.2577,3.2607,3.2576,3.2212,3.1945,3.1771,3.155,3.1142,3.1076,3.1129,3.1009,3.0849,3.0875,3.0902,3.0835,3.0841,3.1037,3.1102,3.0899,3.0707,3.0539,3.0298,3.0105,2.9967,4.6308,4.6308,4.6308,4.6308,4.6308,4.6308,4.6308,4.6308,4.6308,4.6308,4.6308,4.6308,4.6308,4.6308,4.6308,4.6308,4.6308,4.6308,4.6308,4.6308,4.6308,4.6308,4.6308,4.6308,4.6289,4.6308,4.6308,4.6308,4.6269,4.6308,4.6191,4.5879,4.5723,4.5898,4.6035,4.6016,4.6152,4.623,4.6308,4.6308,4.6308,4.6308,4.6308,4.6308,4.6308,4.6308,4.6308,4.6308,4.6308,4.6308,4.6308,4.6308,4.6308,4.6308,4.6308,4.6308,4.6308,4.6308,4.6308,4.6308,4.6308,4.6308,4.6265,4.6177,4.5958,4.609,4.609,4.6002,4.5763,4.55,4.5607,4.5059,4.451,4.413,4.3489,4.2712,4.1554,4.0407,3.8993,3.7184,3.5731,3.4204,3.3065,3.207,3.2274,3.2408,3.2135,3.1932,3.2053,3.2112,3.2221,3.2255,3.2282,3.2206,3.1886,3.1698,3.1605,3.1316,3.1089,3.1116,3.1156,3.1162,3.1089,3.1102,3.1129,3.1102,3.1129,3.1209,3.1142,3.0955,3.0795,3.0681,3.0394,3.0167,3.0047,4.6308,4.6308,4.6308,4.6308,4.6308,4.6308,4.6308,4.6308,4.6308,4.6308,4.6308,4.6308,4.6308,4.6308,4.6308,4.6308,4.6308,4.6308,4.6308,4.6308,4.6308,4.6308,4.6308,4.6308,4.6308,4.6308,4.6308,4.6308,4.6308,4.6308,4.625,4.625,4.6308,4.6269,4.6269,4.6308,4.6308,4.6308,4.6308,4.6308,4.6308,4.6308,4.6308,4.6308,4.6308,4.6308,4.6308,4.6308,4.6308,4.6308,4.6308,4.6308,4.6308,4.6308,4.6308,4.6308,4.6308,4.6308,4.6245,4.6114,4.609,4.6046,4.5826,4.5651,4.5607,4.5651,4.5475,4.4643,4.4643,4.4687,4.4599,4.3667,4.298,4.2398,4.1949,4.112,3.947,3.8127,3.6699,3.5108,3.3873,3.2888,3.2496,3.1647,3.1895,3.2039,3.1886,3.1743,3.1763,3.1835,3.1859,3.1874,3.1832,3.1739,3.1584,3.1605,3.1551,3.1196,3.1009,3.1022,3.1076,3.1142,3.1162,3.1149,3.1236,3.1343,3.141,3.1483,3.1263,3.1022,3.0915,3.0849,3.0728,3.0501,3.0221,4.6308,4.6308,4.6308,4.6308,4.6308,4.6308,4.6308,4.6308,4.6308,4.6308,4.6308,4.6308,4.6308,4.6308,4.6308,4.6308,4.6308,4.6308,4.6308,4.6308,4.6308,4.6308,4.6308,4.6308,4.6308,4.6308,4.6308,4.6308,4.6308,4.6308,4.6308,4.6308,4.6308,4.6308,4.6308,4.6308,4.6308,4.6308,4.6308,4.6308,4.6308,4.6308,4.6308,4.6308,4.6308,4.6308,4.6308,4.6308,4.6308,4.6308,4.6308,4.6308,4.6308,4.6308,4.6308,4.6308,4.6308,4.6265,4.6221,4.5826,4.5563,4.5563,4.5387,4.5122,4.4946,4.4902,4.4485,4.3604,4.3051,4.2649,4.2201,4.1589,4.0985,4.0532,4.0033,3.9059,3.7407,3.6344,3.5057,3.384,3.2738,3.1779,3.1685,3.1537,3.1735,3.1775,3.1698,3.1611,3.1578,3.1582,3.1574,3.1684,3.1685,3.1537,3.1497,3.1564,3.147,3.1102,3.0902,3.0902,3.0969,3.1062,3.1096,3.1176,3.1303,3.137,3.1503,3.1671,3.137,3.1129,3.1109,3.1102,3.0996,3.0808,3.0515,4.6308,4.6308,4.6308,4.6308,4.6308,4.6308,4.6308,4.6308,4.6308,4.6308,4.6308,4.6308,4.6308,4.6308,4.6308,4.6308,4.6308,4.6308,4.6308,4.6308,4.6308,4.6308,4.6308,4.6308,4.6308,4.6308,4.6308,4.6308,4.6308,4.6308,4.6308,4.6308,4.6308,4.6308,4.6308,4.6308,4.6308,4.6308,4.6308,4.6308,4.6308,4.6308,4.6308,4.6308,4.6308,4.6308,4.6308,4.6308,4.6308,4.6308,4.6308,4.6308,4.6308,4.6265,4.6265,4.6265,4.6265,4.5939,4.5368,4.4794,4.4573,4.475,4.4857,4.4548,4.4459,4.4769,4.3889,4.247,4.1509,4.0905,4.0271,3.8968,3.8297,3.8067,3.7515,3.6529,3.5337,3.4791,3.3916,3.288,3.1758,3.1724,3.161,3.157,3.1698,3.163,3.1554,3.1421,3.1388,3.1395,3.1376,3.1625,3.1665,3.1497,3.141,3.1463,3.1417,3.1049,3.0835,3.0728,3.0822,3.0982,3.1183,3.1343,3.1356,3.1383,3.1476,3.153,3.1383,3.1249,3.1289,3.1203,3.1129,3.0955,3.0742,4.6308,4.6308,4.6308,4.6308,4.6308,4.6308,4.6308,4.6308,4.6308,4.6308,4.6308,4.6308,4.6308,4.6308,4.6308,4.6308,4.6308,4.6308,4.6308,4.6308,4.6308,4.6308,4.6308,4.6308,4.6308,4.6308,4.6308,4.6308,4.6308,4.6308,4.6308,4.6308,4.6308,4.6308,4.6308,4.6308,4.6308,4.6308,4.6308,4.6308,4.6308,4.6308,4.6308,4.6308,4.6308,4.6308,4.6308,4.6308,4.6308,4.6308,4.6308,4.6265,4.6265,4.6133,4.609,4.6046,4.5631,4.5191,4.444,4.3774,4.3596,4.3685,4.3908,4.3685,4.3195,4.2909,4.1571,4.0334,3.9726,3.8843,3.7805,3.6452,3.6174,3.6003,3.5523,3.4604,3.376,3.3257,3.3069,3.1995,3.1711,3.1724,3.1724,3.1711,3.1725,3.1557,3.1403,3.133,3.1316,3.1356,3.1383,3.1543,3.1711,3.1557,3.145,3.141,3.1263,3.0996,3.0875,3.0795,3.0822,3.1009,3.1236,3.1436,3.1463,3.1476,3.1436,3.141,3.141,3.141,3.1436,3.137,3.1203,3.1089,3.0915,4.6308,4.6308,4.6308,4.6308,4.6308,4.6308,4.6308,4.6308,4.6308,4.6308,4.6308,4.6308,4.6308,4.6308,4.6308,4.6308,4.6308,4.6308,4.6308,4.6308,4.6308,4.6308,4.6308,4.6308,4.6308,4.6308,4.6308,4.6308,4.6308,4.6308,4.6308,4.6308,4.6308,4.6308,4.6308,4.6308,4.6308,4.6308,4.6308,4.6308,4.6308,4.6308,4.6308,4.6308,4.6308,4.6308,4.6308,4.6308,4.6265,4.6265,4.6201,4.6221,4.609,4.5783,4.5651,4.528,4.4617,4.4041,4.3444,4.2819,4.2147,4.1922,4.1607,4.1471,4.1318,4.0759,3.9333,3.7805,3.6791,3.6112,3.5228,3.487,3.4511,3.4276,3.4089,3.3257,3.2327,3.1948,3.1995,3.1724,3.1724,3.1724,3.1724,3.1724,3.1724,3.1671,3.1564,3.1577,3.1517,3.1543,3.157,3.1583,3.1711,3.1698,3.1591,3.1396,3.1303,3.1089,3.1116,3.1062,3.1062,3.1076,3.1263,3.1436,3.1604,3.1631,3.1543,3.1557,3.1631,3.1631,3.149,3.1423,3.1289,3.1189,3.1076,4.6308,4.6308,4.6308,4.6308,4.6308,4.6308,4.6308,4.6308,4.6308,4.6308,4.6308,4.6308,4.6308,4.6308,4.6308,4.6308,4.6308,4.6308,4.6308,4.6308,4.6308,4.6308,4.6308,4.6308,4.6308,4.6308,4.6308,4.6308,4.6308,4.6308,4.6308,4.6308,4.6308,4.6308,4.6308,4.6308,4.6308,4.6308,4.6308,4.6308,4.6308,4.6308,4.6308,4.6308,4.6308,4.6308,4.6308,4.6265,4.6133,4.587,4.5807,4.5695,4.5255,4.4838,4.451,4.4023,4.3444,4.2909,4.2281,4.1002,4.0078,3.9623,3.8801,3.9105,3.9196,3.8785,3.7253,3.588,3.4823,3.4356,3.3807,3.3351,3.3116,3.2974,3.2833,3.2469,3.1724,3.1724,3.1724,3.1724,3.1724,3.1724,3.1724,3.1724,3.1724,3.1724,3.1724,3.1724,3.1724,3.1724,3.1724,3.1724,3.1711,3.1684,3.1476,3.1316,3.1276,3.1223,3.1263,3.133,3.137,3.1383,3.1383,3.1463,3.1644,3.1698,3.1698,3.1711,3.1698,3.153,3.1436,3.1383,3.133,3.1263,3.1136,4.6308,4.6308,4.6308,4.6308,4.6308,4.6308,4.6308,4.6308,4.6308,4.6308,4.6308,4.6308,4.6308,4.6308,4.6308,4.6308,4.6308,4.6308,4.6308,4.6308,4.6308,4.6308,4.6308,4.6308,4.6308,4.6308,4.6308,4.6308,4.6308,4.6308,4.6308,4.6308,4.6308,4.6308,4.6308,4.6308,4.6308,4.6308,4.6308,4.6308,4.6308,4.6308,4.6308,4.6308,4.6308,4.6308,4.6265,4.6221,4.587,4.5563,4.5519,4.5103,4.4573,4.4023,4.2828,4.2246,4.1436,4.0623,3.976,3.8647,3.8097,3.7499,3.6313,3.6251,3.6483,3.6298,3.5275,3.4215,3.3652,3.3102,3.2455,3.1948,3.1853,3.1772,3.1772,3.1772,3.1724,3.1724,3.1724,3.1724,3.1724,3.1724,3.1724,3.1724,3.1724,3.1724,3.1724,3.1724,3.1724,3.1724,3.1724,3.1724,3.1711,3.1684,3.145,3.1356,3.1396,3.1423,3.1463,3.153,3.1657,3.1657,3.1543,3.157,3.1698,3.1724,3.1724,3.1711,3.1637,3.153,3.1463,3.1436,3.137,3.1203,3.1156,4.6308,4.6308,4.6308,4.6308,4.6308,4.6308,4.6308,4.6308,4.6308,4.6308,4.6308,4.6308,4.6308,4.6308,4.6308,4.6308,4.6308,4.6308,4.6308,4.6308,4.6308,4.6308,4.6308,4.6308,4.6308,4.6308,4.6308,4.6308,4.6308,4.6308,4.6308,4.6308,4.6308,4.6308,4.6308,4.6308,4.6308,4.6308,4.6308,4.6308,4.6308,4.6308,4.6308,4.6308,4.6308,4.6308,4.6177,4.5958,4.5544,4.5387,4.5015,4.4529,4.3667,4.2712,4.1346,4.0243,3.9441,3.8556,3.7653,3.6637,3.622,3.5569,3.4636,3.4183,3.4183,3.4262,3.3478,3.3102,3.2597,3.2455,3.1948,3.1819,3.1772,3.1724,3.1724,3.1724,3.1724,3.1724,3.1724,3.1724,3.1724,3.1724,3.1724,3.1724,3.1724,3.1724,3.1724,3.1724,3.1724,3.1724,3.1724,3.1724,3.1711,3.1698,3.1671,3.1557,3.1644,3.1684,3.1623,3.1623,3.1698,3.1711,3.1724,3.1724,3.1724,3.1724,3.1724,3.1711,3.1711,3.1684,3.157,3.1517,3.1423,3.1303,3.1136,4.6308,4.6308,4.6308,4.6308,4.6308,4.6308,4.6308,4.6308,4.6308,4.6308,4.6308,4.6308,4.6308,4.6308,4.6308,4.6308,4.6308,4.6308,4.6308,4.6308,4.6308,4.6308,4.6308,4.6308,4.6308,4.6308,4.6308,4.6308,4.6308,4.6308,4.6308,4.6308,4.6308,4.6308,4.6308,4.6308,4.6308,4.6308,4.6308,4.6308,4.6308,4.6308,4.6308,4.6308,4.6308,4.6265,4.609,4.5826,4.5191,4.4662,4.4086,4.324,4.2029,4.0731,3.9669,3.8726,3.7469,3.6684,3.5895,3.501,3.4511,3.4042,3.3304,3.2597,3.2232,3.2232,3.2138,3.1948,3.1806,3.1772,3.1724,3.1724,3.1724,3.1724,3.1711,3.1711,3.1711,3.1711,3.1711,3.1698,3.1698,3.1724,3.1724,3.1724,3.1724,3.1724,3.1724,3.1724,3.1724,3.1724,3.1724,3.1724,3.1724,3.1711,3.1724,3.1724,3.1724,3.1724,3.1698,3.1711,3.1724,3.1724,3.1724,3.1724,3.1724,3.1724,3.1724,3.1724,3.1724,3.1724,3.1711,3.1597,3.1517,3.141,3.1276,4.6308,4.6308,4.6308,4.6308,4.6308,4.6308,4.6308,4.6308,4.6308,4.6308,4.6308,4.6308,4.6308,4.6308,4.6308,4.6308,4.6308,4.6308,4.6308,4.6308,4.6308,4.6308,4.6308,4.6308,4.6308,4.6308,4.6308,4.6308,4.6308,4.6308,4.6308,4.6308,4.6308,4.6308,4.6308,4.6308,4.6308,4.6308,4.6308,4.6265,4.6265,4.6265,4.6308,4.6308,4.6133,4.6046,4.5739,4.5387,4.4769,4.3667,4.2756,4.1499,4.0141,3.8755,3.7423,3.6452,3.5538,3.4838,3.423,3.3619,3.3022,3.2658,3.2421,3.1901,3.1901,3.1948,3.1948,3.1772,3.1772,3.1724,3.1724,3.1724,3.1724,3.1724,3.1698,3.1671,3.1644,3.1617,3.1503,3.1423,3.1503,3.1724,3.1724,3.1724,3.1724,3.1724,3.1724,3.1724,3.1724,3.1724,3.1724,3.1724,3.1724,3.1724,3.1724,3.1724,3.1724,3.1724,3.1724,3.1724,3.1724,3.1724,3.1724,3.1724,3.1724,3.1724,3.1724,3.1724,3.1724,3.1724,3.1724,3.1711,3.1644,3.153,3.145,4.6308,4.6308,4.6308,4.6308,4.6308,4.6308,4.6308,4.6308,4.6308,4.6308,4.6308,4.6308,4.6308,4.6308,4.6308,4.6308,4.6308,4.6308,4.6308,4.6308,4.6308,4.6308,4.6308,4.6308,4.6308,4.6308,4.6308,4.6308,4.6308,4.6308,4.6308,4.6308,4.6308,4.6308,4.6308,4.6308,4.6308,4.6245,4.6201,4.6177,4.6177,4.6221,4.6177,4.6046,4.5826,4.5563,4.5255,4.4813,4.4282,4.2533,4.0877,3.947,3.8281,3.6961,3.5709,3.4651,3.3948,3.3163,3.2374,3.2185,3.1948,3.1772,3.1724,3.1724,3.1724,3.1724,3.1724,3.1724,3.1724,3.1724,3.1724,3.1724,3.1724,3.1711,3.1684,3.1543,3.1503,3.145,3.1343,3.1176,3.1356,3.1604,3.1644,3.1657,3.1711,3.1711,3.1724,3.1724,3.1724,3.1724,3.1724,3.1724,3.1724,3.1724,3.1724,3.1724,3.1724,3.1724,3.1724,3.1724,3.1724,3.1724,3.1724,3.1724,3.1724,3.1724,3.1724,3.1724,3.1724,3.1724,3.1724,3.1724,3.1711,3.1657,3.1684,4.6308,4.6308,4.6308,4.6308,4.6308,4.6308,4.6308,4.6308,4.6308,4.6308,4.6308,4.6308,4.6308,4.6308,4.6308,4.6308,4.6308,4.6308,4.6308,4.6308,4.6308,4.6308,4.6308,4.6308,4.6308,4.6308,4.6308,4.6308,4.6308,4.6308,4.6308,4.6308,4.6308,4.6308,4.6308,4.6308,4.6265,4.6177,4.5914,4.5783,4.5739,4.5739,4.5739,4.5563,4.5299,4.5122,4.4857,4.4503,4.3025,4.1013,3.8677,3.7315,3.6251,3.5337,3.423,3.3587,3.288,3.2327,3.1819,3.1724,3.1724,3.1724,3.1724,3.1724,3.1724,3.1724,3.1724,3.1724,3.1724,3.1724,3.1724,3.1724,3.1724,3.1724,3.1698,3.1463,3.133,3.1276,3.1183,3.1116,3.1102,3.1236,3.1316,3.141,3.161,3.1623,3.1711,3.1711,3.1724,3.1724,3.1724,3.1724,3.1724,3.1724,3.1724,3.1724,3.1724,3.1724,3.1724,3.1724,3.1724,3.1724,3.1724,3.1724,3.1724,3.1724,3.1724,3.1724,3.1724,3.1724,3.1724,3.1724,3.1724,3.1724,3.1724]},{"header":{"parameterUnit":"m.s-1","parameterCategory":1,"la1":31.0,"la2":29.5877,"lo1":-88.7671,"lo2":-86.6584,"dx":0.0162,"dy":0.0185,"nx":115,"ny":88,"refTime":"2022-11-18T18:00:00:Z","depth":0,"parameterNumber":3,"parameterNumberName":"V-component_of_WINDS"},"data":[0.0,0.0,0.0,0.0,0.0,0.0,0.0,0.0,0.0,0.0,0.0,0.0,0.0,0.0,0.0,0.0,0.0,0.0,0.0,0.0,0.0,0.0,0.0,0.0,0.0,0.0,0.0,0.0,0.0,0.0,0.0,0.0,0.0,0.0,0.0,0.0,0.0,0.0,0.0,0.0,0.0,0.0,0.0,0.0,0.0,0.0,0.0,0.0,0.0,0.0,0.0,0.0,0.0,0.0,0.0,0.0,0.0,0.0,0.0,0.0,0.0,0.0,0.0,0.0,0.0,0.0,0.0,0.0,0.0,0.0,0.0,0.0,0.0,0.0,0.0,0.0,0.0,0.0,0.0,0.0,0.0,0.0,0.0,0.0,0.0,0.0,0.0,0.0,0.0,0.0,0.0,0.0,0.0,0.0,0.0,0.0,0.0,0.0,0.0,0.0,0.0,0.0,0.0,0.0,0.0,0.0,0.0,0.0,0.0,0.0,0.0,0.0,0.0,0.0,0.0,0.0,0.0,0.0,0.0,0.0,0.0,0.0,0.0,0.0,0.0,0.0,0.0,0.0,0.0,0.0,0.0,0.0,0.0,0.0,0.0,0.0,0.0,0.0,0.0,0.0,0.0,0.0,0.0,0.0,0.0,0.0,0.0,0.0,0.0,0.0,0.0,0.0,0.0,0.0,0.0,0.0,0.0,0.0,0.0,0.0,0.0,0.0,0.0,0.0,0.0,0.0,0.0,0.0,0.0,0.0,0.0,0.0,0.0,0.0,0.0,0.0,0.0,0.0,0.0,0.0,0.0,0.0,0.0,0.0,0.0,0.0,0.0,0.0,0.0,0.0,0.0,0.0,0.0,0.0,0.0,0.0,0.0,0.0,0.0,0.0,0.0,0.0,0.0,0.0,0.0,0.0,0.0,0.0,0.0,0.0,0.0,0.0,0.0,0.0,0.0,0.0,0.0,0.0,0.0,0.0,0.0,0.0,0.0,0.0,0.0,0.0,0.0,0.0,0.0,0.0,0.0,0.0,0.0,0.0,0.0,0.0,0.0,0.0,0.0,0.0,0.0,0.0,0.0,0.0,0.0,0.0,0.0,0.0,0.0,0.0,0.0,0.0,0.0,0.0,0.0,0.0,0.0,0.0,0.0,0.0,0.0,0.0,0.0,0.0,0.0,0.0,0.0,0.0,0.0,0.0,0.0,0.0,0.0,0.0,0.0,0.0,0.0,0.0,0.0,0.0,0.0,0.0,0.0,0.0,0.0,0.0,0.0,0.0,0.0,0.0,0.0,0.0,0.0,0.0,0.0,0.0,0.0,0.0,0.0,0.0,0.0,0.0,0.0,0.0,0.0,0.0,0.0,0.0,0.0,0.0,0.0,0.0,0.0,0.0,0.0,0.0,0.0,0.0,0.0,0.0,0.0,0.0,0.0,0.0,0.0,0.0,0.0,0.0,0.0,0.0,0.0,0.0,0.0,0.0,0.0,0.0,0.0,0.0,0.0,0.0,0.0,0.0,0.0,0.0,0.0,0.0,0.0,0.0,0.0,0.0,0.0,0.0,0.0,0.0,0.0,0.0,0.0,0.0,0.0,0.0,0.0,0.0,0.0,0.0,0.0,0.0,0.0,0.0,0.0,0.0,0.0,0.0,0.0,0.0,0.0,0.0,0.0,0.0,0.0,0.0,0.0,0.0,0.0,0.0,0.0,0.0,0.0,0.0,0.0,0.0,0.0,0.0,0.0,0.0,0.0,0.0,0.0,0.0,0.0,0.0,0.0,0.0,0.0,0.0,0.0,0.0,0.0,0.0,0.0,0.0,0.0,0.0,0.0,0.0,0.0,0.0,0.0,0.0,0.0,0.0,0.0,0.0,0.0,0.0,0.0,0.0,0.0,0.0,0.0,0.0,0.0,0.0,0.0,0.0,0.0,0.0,0.0,0.0,0.0,0.0,0.0,0.0,0.0,0.0,0.0,0.0,0.0,0.0,0.0,0.0,0.0,0.0,0.0,0.0,0.0,0.0,0.0,0.0,0.0,0.0,0.0,0.0,0.0,0.0,0.0,0.0,0.0,0.0,0.0,0.0,0.0,0.0,0.0,0.0,0.0,0.0,0.0,0.0,0.0,0.0,0.0,0.0,0.0,0.0,0.0,0.0,0.0,0.0,0.0,0.0,0.0,0.0,0.0,0.0,0.0,0.0,0.0,0.0,0.0,0.0,0.0,0.0,0.0,0.0,0.0,0.0,0.0,0.0,0.0,0.0,0.0,0.0,0.0,0.0,0.0,0.0,0.0,0.0,0.0,0.0,0.0,0.0,0.0,0.0,0.0,0.0,0.0,0.0,0.0,0.0,0.0,0.0,0.0,0.0,0.0,0.0,0.0,0.0,0.0,0.0,0.0,0.0,0.0,0.0,0.0,0.0,0.0,0.0,0.0,0.0,0.0,0.0,0.0,0.0,0.0,0.0,0.0,0.0,0.0,0.0,0.0,0.0,0.0,0.0,0.0,0.0,0.0,0.0,0.0,0.0,0.0,0.0,0.0,0.0,0.0,0.0,0.0,0.0,0.0,0.0,0.0,0.0,0.0,0.0,0.0,0.0,0.0,0.0,0.0,0.0,0.0,0.0,0.0,0.0,0.0,0.0,0.0,0.0,0.0,0.0,0.0,0.0,0.0,0.0,0.0,0.0,0.0,0.0,0.0,0.0,0.0,0.0,0.0,0.0,0.0,0.0,0.0,0.0,0.0,0.0,0.0,0.0,0.0,0.0,0.0,0.0,0.0,0.0,0.0,0.0,0.0,0.0,0.0,0.0,0.0,0.0,0.0,0.0,0.0,0.0,0.0,0.0,0.0,0.0,0.0,0.0,0.0,0.0,0.0,0.0,0.0,0.0,0.0,0.0,0.0,0.0,0.0,0.0,0.0,0.0,0.0,0.0,0.0,0.0,0.0,0.0,0.0,0.0,0.0,0.0,0.0,0.0,0.0,0.0,0.0,0.0,0.0,0.0,0.0,0.0,0.0,0.0,0.0,0.0,0.0,0.0,0.0,0.0,0.0,0.0,0.0,0.0,0.0,0.0,0.0,0.0,0.0,0.0,0.0,0.0,0.0,0.0,0.0,0.0,0.0,0.0,0.0,0.0,0.0,0.0,0.0,0.0,0.0,0.0,0.0,0.0,0.0,0.0,0.0,0.0,0.0,0.0,0.0,0.0,0.0,0.0,0.0,0.0,0.0,0.0,0.0,0.0,0.0,0.0,0.0,0.0,0.0,0.0,0.0,0.0,0.0,0.0,0.0,0.0,0.0,0.0,0.0,0.0,0.0,0.0,0.0,0.0,0.0,0.0,0.0,0.0,0.0,0.0,0.0,0.0,0.0,0.0,0.0,0.0,0.0,0.0,0.0,0.0,0.0,0.0,0.0,0.0,0.0,0.0,0.0,0.0,0.0,0.0,0.0,0.0,0.0,0.0,0.0,0.0,0.0,0.0,0.0,0.0,0.0,0.0,0.0,0.0,0.0,0.0,0.0,0.0,0.0,0.0,0.0,0.0,0.0,0.0,0.0,0.0,0.0,0.0,0.0,0.0,0.0,0.0,0.0,0.0,0.0,0.0,0.0,0.0,0.0,0.0,0.0,0.0,0.0,0.0,0.0,0.0,0.0,0.0,0.0,0.0,0.0,0.0,0.0,0.0,0.0,0.0,0.0,0.0,0.0,0.0,0.0,0.0,0.0,0.0,0.0,0.0,0.0,0.0,0.0,0.0,0.0,0.0,0.0,0.0,0.0,0.0,0.0,0.0,0.0,0.0,0.0,0.0,0.0,0.0,0.0,0.0,0.0,0.0,0.0,0.0,0.0,0.0,0.0,0.0,0.0,0.0,0.0,0.0,0.0,0.0,0.0,0.0,0.0,0.0,0.0,0.0,0.0,0.0,0.0,0.0,0.0,0.0,0.0,0.0,0.0,0.0,0.0,0.0,0.0,0.0,0.0,0.0,0.0,0.0,0.0,0.0,0.0,0.0,0.0,0.0,0.0,0.0,0.0,0.0,0.0,0.0,0.0,0.0,0.0,0.0,0.0,0.0,0.0,0.0,0.0,0.0,0.0,0.0,0.0,0.0,0.0,0.0,0.0,0.0,0.0,0.0,0.0,0.0,0.0,0.0,0.0,0.0,0.0,0.0,0.0,0.0,0.0,0.0,0.0,0.0,0.0,0.0,0.0,0.0,0.0,0.0,0.0,0.0,0.0,0.0,0.0,0.0,0.0,0.0,2.4878,0.0,0.0,0.0,2.2917,0.0,0.0,0.0,0.0,0.0,0.0,0.0,0.0,0.0,0.0,0.0,0.0,0.0,0.0,0.0,0.0,0.0,0.0,0.0,0.0,0.0,0.0,0.0,0.0,0.0,0.0,0.0,0.0,0.0,0.0,0.0,0.0,0.0,0.0,0.0,0.0,0.0,0.0,0.0,0.0,0.0,0.0,0.0,0.0,0.0,0.0,0.0,0.0,0.0,0.0,0.0,0.0,0.0,0.0,0.0,0.0,0.0,0.0,0.0,0.0,0.0,0.0,0.0,0.0,0.0,0.0,0.0,0.0,0.0,0.0,0.0,0.0,0.0,0.0,0.0,0.0,0.0,0.0,0.0,0.0,0.0,0.0,0.0,0.0,0.0,0.0,0.0,0.0,0.0,0.0,0.0,0.0,0.0,0.0,0.0,0.0,0.0,0.0,0.0,0.0,0.0,0.0,0.0,0.0,0.0,0.0,0.0,0.0,0.0,0.0,2.4646,2.4401,2.4065,2.3798,2.3547,0.0,0.0,0.0,0.0,0.0,0.0,0.0,0.0,0.0,0.0,0.0,0.0,0.0,0.0,0.0,0.0,0.0,0.0,0.0,0.0,0.0,0.0,0.0,0.0,0.0,0.0,0.0,0.0,0.0,0.0,0.0,0.0,0.0,0.0,0.0,0.0,0.0,0.0,0.0,0.0,0.0,0.0,0.0,0.0,0.0,0.0,0.0,0.0,0.0,0.0,0.0,0.0,0.0,0.0,0.0,0.0,0.0,0.0,0.0,0.0,0.0,0.0,0.0,0.0,0.0,0.0,0.0,0.0,0.0,0.0,0.0,0.0,0.0,0.0,0.0,0.0,0.0,0.0,0.0,0.0,0.0,0.0,0.0,0.0,0.0,0.0,0.0,0.0,0.0,0.0,0.0,0.0,0.0,0.0,0.0,0.0,0.0,0.0,0.0,0.0,0.0,0.0,0.0,0.0,0.0,0.0,0.0,0.0,0.0,0.0,0.0,0.0,2.4576,2.4252,2.4113,0.0,0.0,0.0,0.0,0.0,0.0,0.0,0.0,0.0,0.0,0.0,0.0,0.0,0.0,0.0,0.0,0.0,0.0,0.0,0.0,0.0,0.0,0.0,0.0,0.0,0.0,0.0,0.0,0.0,0.0,0.0,0.0,0.0,0.0,0.0,0.0,0.0,0.0,0.0,0.0,0.0,0.0,0.0,0.0,0.0,0.0,0.0,0.0,0.0,0.0,0.0,0.0,0.0,0.0,0.0,0.0,0.0,0.0,0.0,0.0,0.0,0.0,0.0,0.0,0.0,0.0,0.0,0.0,0.0,0.0,0.0,0.0,0.0,0.0,0.0,0.0,0.0,0.0,0.0,0.0,0.0,0.0,0.0,0.0,0.0,0.0,0.0,0.0,0.0,0.0,0.0,0.0,0.0,0.0,0.0,0.0,0.0,0.0,0.0,0.0,0.0,0.0,0.0,0.0,0.0,0.0,0.0,0.0,0.0,0.0,2.5645,2.5703,2.5645,0.0,2.4282,0.0,0.0,0.0,0.0,0.0,0.0,0.0,0.0,0.0,0.0,0.0,0.0,0.0,0.0,0.0,0.0,0.0,0.0,0.0,0.0,0.0,0.0,0.0,0.0,0.0,0.0,0.0,0.0,0.0,0.0,0.0,0.0,0.0,0.0,0.0,0.0,0.0,0.0,0.0,0.0,0.0,0.0,0.0,0.0,0.0,0.0,0.0,0.0,0.0,0.0,0.0,0.0,0.0,0.0,0.0,0.0,0.0,0.0,0.0,0.0,0.0,0.0,0.0,0.0,0.0,0.0,0.0,0.0,0.0,0.0,0.0,0.0,0.0,0.0,0.0,0.0,0.0,0.0,0.0,0.0,0.0,0.0,0.0,0.0,0.0,0.0,0.0,0.0,0.0,0.0,0.0,0.0,0.0,0.0,0.0,0.0,0.0,0.0,0.0,0.0,0.0,0.0,0.0,0.0,0.0,0.0,0.0,0.0,0.0,0.0,2.64,2.64,2.5771,2.4898,0.0,0.0,0.0,0.0,0.0,0.0,0.0,0.0,0.0,0.0,0.0,0.0,0.0,0.0,0.0,0.0,0.0,0.0,0.0,0.0,0.0,0.0,0.0,0.0,0.0,0.0,0.0,0.0,0.0,0.0,0.0,0.0,0.0,0.0,0.0,0.0,0.0,0.0,0.0,0.0,0.0,0.0,0.0,0.0,0.0,0.0,0.0,0.0,0.0,0.0,0.0,0.0,0.0,0.0,0.0,0.0,0.0,0.0,0.0,0.0,0.0,0.0,0.0,0.0,0.0,0.0,0.0,0.0,0.0,0.0,0.0,0.0,0.0,0.0,0.0,0.0,0.0,0.0,0.0,0.0,0.0,0.0,0.0,0.0,0.0,0.0,0.0,0.0,0.0,0.0,0.0,0.0,0.0,0.0,0.0,0.0,0.0,0.0,0.0,0.0,0.0,0.0,0.0,0.0,0.0,0.0,0.0,0.0,0.0,0.0,2.6633,2.6517,2.6487,2.5804,2.4752,2.3356,0.0,0.0,0.0,0.0,0.0,0.0,0.0,0.0,0.0,0.0,0.0,0.0,0.0,0.0,0.0,0.0,0.0,0.0,0.0,0.0,0.0,0.0,0.0,0.0,0.0,0.0,0.0,0.0,0.0,0.0,0.0,0.0,0.0,0.0,0.0,0.0,0.0,0.0,0.0,0.0,0.0,0.0,0.0,0.0,0.0,0.0,0.0,0.0,0.0,0.0,0.0,0.0,0.0,0.0,0.0,0.0,0.0,0.0,0.0,0.0,0.0,0.0,0.0,0.0,0.0,0.0,0.0,0.0,0.0,0.0,0.0,0.0,0.0,0.0,0.0,0.0,0.0,0.0,0.0,0.0,0.0,0.0,0.0,0.0,0.0,0.0,0.0,0.0,0.0,0.0,0.0,0.0,0.0,0.0,0.0,0.0,0.0,0.0,0.0,0.0,0.0,0.0,0.0,0.0,0.0,0.0,0.0,0.0,2.6691,2.6168,2.5849,2.5919,2.5917,2.5133,0.0,0.0,0.0,0.0,0.0,0.0,0.0,0.0,0.0,0.0,0.0,0.0,0.0,0.0,0.0,0.0,0.0,0.0,0.0,0.0,0.0,0.0,0.0,0.0,0.0,0.0,0.0,0.0,0.0,0.0,0.0,0.0,0.0,0.0,0.0,0.0,0.0,0.0,0.0,0.0,0.0,0.0,0.0,0.0,0.0,0.0,0.0,0.0,0.0,0.0,0.0,0.0,0.0,0.0,0.0,0.0,0.0,0.0,0.0,0.0,0.0,0.0,0.0,0.0,0.0,0.0,0.0,0.0,0.0,0.0,0.0,0.0,0.0,0.0,0.0,0.0,0.0,0.0,0.0,0.0,0.0,0.0,0.0,0.0,0.0,0.0,0.0,0.0,0.0,0.0,0.0,0.0,0.0,0.0,0.0,0.0,0.0,0.0,0.0,0.0,0.0,0.0,0.0,0.0,0.0,0.0,0.0,0.0,0.0,2.5558,2.5301,2.5981,2.7504,2.5396,2.4072,0.0,0.0,0.0,0.0,0.0,0.0,0.0,0.0,0.0,0.0,0.0,0.0,0.0,0.0,0.0,0.0,0.0,0.0,0.0,0.0,0.0,0.0,0.0,0.0,0.0,0.0,0.0,0.0,0.0,0.0,0.0,0.0,0.0,0.0,0.0,0.0,0.0,0.0,0.0,0.0,0.0,0.0,0.0,0.0,0.0,0.0,0.0,0.0,0.0,0.0,0.0,0.0,0.0,0.0,0.0,0.0,0.0,0.0,0.0,0.0,0.0,0.0,0.0,0.0,0.0,0.0,0.0,0.0,0.0,0.0,0.0,0.0,0.0,0.0,0.0,0.0,0.0,0.0,0.0,0.0,0.0,0.0,0.0,0.0,0.0,0.0,0.0,0.0,0.0,0.0,0.0,0.0,0.0,0.0,0.0,0.0,0.0,0.0,0.0,0.0,0.0,0.0,0.0,0.0,0.0,0.0,0.0,0.0,0.0,2.55,2.5665,2.6403,2.7562,2.5404,2.3854,0.0,0.0,0.0,0.0,0.0,0.0,0.0,0.0,0.0,0.0,0.0,0.0,0.0,0.0,0.0,0.0,0.0,0.0,0.0,0.0,0.0,0.0,0.0,0.0,0.0,0.0,0.0,0.0,0.0,0.0,0.0,0.0,0.0,0.0,0.0,0.0,0.0,0.0,0.0,0.0,0.0,0.0,0.0,0.0,0.0,0.0,0.0,0.0,0.0,0.0,0.0,0.0,0.0,0.0,0.0,0.0,0.0,0.0,0.0,0.0,0.0,0.0,0.0,0.0,0.0,0.0,0.0,0.0,0.0,0.0,0.0,0.0,0.0,0.0,0.0,0.0,0.0,0.0,0.0,0.0,0.0,0.0,0.0,0.0,0.0,0.0,0.0,0.0,0.0,0.0,0.0,0.0,0.0,0.0,0.0,0.0,0.0,0.0,0.0,0.0,0.0,0.0,0.0,0.0,0.0,0.0,0.0,0.0,2.4861,2.6704,2.7289,2.7084,2.5948,2.6017,2.4611,0.0,0.0,0.0,0.0,0.0,0.0,0.0,0.0,0.0,0.0,0.0,0.0,0.0,0.0,0.0,0.0,0.0,0.0,0.0,0.0,0.0,0.0,0.0,0.0,0.0,0.0,0.0,0.0,0.0,0.0,0.0,0.0,0.0,0.0,0.0,0.0,0.0,0.0,0.0,0.0,0.0,0.0,0.0,0.0,0.0,0.0,0.0,0.0,0.0,0.0,0.0,0.0,0.0,0.0,0.0,0.0,0.0,0.0,0.0,0.0,0.0,0.0,0.0,0.0,0.0,0.0,0.0,0.0,0.0,0.0,0.0,0.0,0.0,0.0,0.0,0.0,0.0,0.0,0.0,0.0,0.0,0.0,0.0,0.0,0.0,0.0,0.0,0.0,0.0,0.0,0.0,0.0,0.0,0.0,0.0,0.0,0.0,0.0,0.0,0.0,0.0,0.0,0.0,0.0,0.0,0.0,0.0,0.0,0.0,2.611,2.6749,2.752,2.8303,2.5941,2.4622,0.0,0.0,0.0,0.0,0.0,0.0,0.0,0.0,0.0,0.0,0.0,0.0,0.0,0.0,0.0,0.0,0.0,0.0,0.0,0.0,0.0,0.0,0.0,0.0,0.0,0.0,0.0,0.0,0.0,0.0,0.0,0.0,0.0,0.0,0.0,0.0,0.0,0.0,0.0,0.0,0.0,0.0,0.0,0.0,0.0,0.0,0.0,0.0,0.0,0.0,0.0,0.0,0.0,0.0,0.0,0.0,0.0,0.0,0.0,0.0,0.0,0.0,0.0,0.0,0.0,0.0,0.0,0.0,0.0,0.0,0.0,0.0,0.0,0.0,0.0,0.0,0.0,0.0,0.0,0.0,0.0,0.0,0.0,0.0,0.0,0.0,0.0,0.0,0.0,0.0,0.0,0.0,0.0,0.0,0.0,0.0,0.0,0.0,0.0,0.0,0.0,0.0,0.0,0.0,0.0,0.0,0.0,0.0,0.0,2.7634,2.8285,2.8941,2.9595,2.6862,2.5379,2.5255,0.0,0.0,0.0,0.0,0.0,0.0,0.0,0.0,0.0,0.0,0.0,0.0,0.0,0.0,0.0,0.0,0.0,0.0,0.0,0.0,0.0,0.0,0.0,0.0,0.0,0.0,0.0,0.0,0.0,0.0,0.0,0.0,0.0,0.0,0.0,0.0,0.0,0.0,0.0,0.0,0.0,0.0,0.0,0.0,0.0,0.0,0.0,0.0,0.0,0.0,0.0,0.0,0.0,0.0,0.0,0.0,0.0,0.0,0.0,0.0,0.0,0.0,0.0,0.0,0.0,0.0,0.0,0.0,0.0,0.0,0.0,0.0,0.0,0.0,0.0,0.0,0.0,0.0,0.0,0.0,0.0,0.0,0.0,0.0,0.0,0.0,0.0,0.0,0.0,0.0,0.0,0.0,0.0,0.0,0.0,0.0,0.0,0.0,0.0,0.0,0.0,0.0,0.0,0.0,0.0,0.0,0.0,0.0,3.0729,3.1535,3.1257,2.9827,2.8561,2.6776,0.0,0.0,0.0,0.0,0.0,0.0,0.0,0.0,0.0,0.0,0.0,0.0,0.0,0.0,0.0,0.0,0.0,0.0,0.0,0.0,0.0,0.0,0.0,0.0,0.0,0.0,0.0,0.0,0.0,0.0,0.0,0.0,0.0,0.0,0.0,0.0,0.0,0.0,0.0,0.0,0.0,0.0,0.0,0.0,0.0,0.0,0.0,0.0,0.0,0.0,0.0,0.0,0.0,0.0,0.0,0.0,0.0,0.0,0.0,0.0,0.0,0.0,0.0,0.0,0.0,0.0,0.0,0.0,0.0,0.0,0.0,0.0,0.0,0.0,0.0,0.0,0.0,0.0,0.0,0.0,0.0,0.0,0.0,0.0,0.0,0.0,0.0,0.0,0.0,0.0,0.0,0.0,0.0,0.0,0.0,0.0,0.0,0.0,0.0,0.0,0.0,0.0,0.0,0.0,0.0,0.0,0.0,0.0,0.0,3.2193,3.329,3.3197,3.1758,2.9639,2.8281,0.0,0.0,0.0,0.0,0.0,0.0,0.0,0.0,0.0,0.0,0.0,0.0,0.0,0.0,0.0,0.0,0.0,0.0,0.0,0.0,0.0,0.0,0.0,0.0,0.0,0.0,0.0,0.0,0.0,0.0,0.0,0.0,0.0,0.0,0.0,0.0,0.0,0.0,0.0,0.0,0.0,0.0,0.0,0.0,0.0,0.0,0.0,0.0,0.0,0.0,0.0,0.0,0.0,0.0,0.0,0.0,0.0,0.0,0.0,0.0,0.0,0.0,0.0,0.0,0.0,0.0,0.0,0.0,0.0,0.0,0.0,0.0,0.0,0.0,0.0,0.0,0.0,0.0,0.0,0.0,0.0,0.0,0.0,0.0,0.0,0.0,0.0,0.0,0.0,0.0,0.0,0.0,0.0,0.0,0.0,0.0,0.0,0.0,0.0,0.0,0.0,0.0,0.0,0.0,0.0,0.0,0.0,0.0,3.2335,3.3443,3.468,3.4721,3.3452,3.1212,2.9681,0.0,0.0,0.0,0.0,0.0,0.0,0.0,0.0,0.0,0.0,0.0,0.0,0.0,0.0,0.0,0.0,0.0,0.0,0.0,0.0,0.0,0.0,0.0,0.0,0.0,0.0,0.0,0.0,0.0,0.0,0.0,0.0,0.0,0.0,0.0,0.0,0.0,0.0,0.0,0.0,0.0,0.0,0.0,0.0,0.0,0.0,0.0,0.0,0.0,0.0,0.0,0.0,0.0,0.0,0.0,0.0,0.0,0.0,0.0,0.0,0.0,0.0,0.0,0.0,0.0,0.0,0.0,0.0,0.0,0.0,0.0,0.0,0.0,0.0,0.0,0.0,0.0,0.0,0.0,0.0,0.0,0.0,0.0,0.0,0.0,0.0,0.0,0.0,0.0,0.0,0.0,0.0,0.0,0.0,0.0,0.0,0.0,0.0,0.0,0.0,0.0,0.0,0.0,0.0,0.0,0.0,0.0,0.0,3.4428,3.4532,3.5677,3.5805,3.4781,3.2913,3.1056,0.0,0.0,0.0,0.0,0.0,0.0,0.0,0.0,0.0,0.0,0.0,0.0,0.0,0.0,0.0,0.0,0.0,0.0,0.0,0.0,0.0,0.0,0.0,0.0,0.0,0.0,0.0,0.0,0.0,0.0,0.0,0.0,0.0,0.0,0.0,0.0,0.0,0.0,0.0,0.0,0.0,0.0,0.0,0.0,0.0,0.0,0.0,0.0,0.0,0.0,0.0,0.0,0.0,0.0,0.0,0.0,0.0,0.0,0.0,0.0,0.0,0.0,0.0,0.0,0.0,0.0,0.0,0.0,0.0,0.0,0.0,0.0,0.0,0.0,0.0,0.0,0.0,0.0,0.0,0.0,0.0,0.0,0.0,0.0,0.0,0.0,0.0,0.0,0.0,0.0,0.0,0.0,0.0,0.0,0.0,0.0,0.0,0.0,0.0,0.0,0.0,0.0,0.0,0.0,0.0,0.0,0.0,0.0,3.47,3.5331,3.595,3.5956,3.5269,3.3537,3.2247,0.0,0.0,0.0,0.0,0.0,0.0,0.0,0.0,0.0,0.0,0.0,0.0,0.0,0.0,0.0,0.0,0.0,0.0,0.0,0.0,0.0,0.0,0.0,0.0,0.0,0.0,0.0,0.0,0.0,0.0,0.0,0.0,0.0,0.0,0.0,0.0,0.0,0.0,0.0,0.0,0.0,0.0,0.0,0.0,0.0,0.0,0.0,0.0,2.7889,0.0,0.0,0.0,0.0,0.0,0.0,0.0,0.0,0.0,0.0,0.0,0.0,0.0,0.0,0.0,0.0,0.0,0.0,0.0,0.0,0.0,0.0,0.0,0.0,0.0,0.0,0.0,0.0,0.0,0.0,0.0,0.0,0.0,0.0,0.0,0.0,0.0,0.0,0.0,0.0,0.0,0.0,0.0,0.0,0.0,0.0,0.0,0.0,0.0,0.0,0.0,0.0,0.0,0.0,0.0,0.0,0.0,0.0,0.0,3.5326,3.6055,3.6628,3.6657,3.6102,3.5293,3.3962,0.0,0.0,0.0,0.0,0.0,0.0,0.0,0.0,0.0,0.0,0.0,0.0,0.0,0.0,0.0,0.0,0.0,0.0,0.0,0.0,0.0,0.0,0.0,0.0,0.0,0.0,0.0,0.0,0.0,0.0,0.0,0.0,0.0,0.0,0.0,0.0,0.0,0.0,0.0,0.0,0.0,0.0,0.0,0.0,0.0,0.0,0.0,0.0,0.0,0.0,0.0,0.0,0.0,0.0,0.0,0.0,0.0,0.0,0.0,0.0,0.0,0.0,0.0,0.0,0.0,0.0,0.0,0.0,0.0,0.0,0.0,0.0,0.0,0.0,0.0,0.0,0.0,0.0,0.0,0.0,0.0,0.0,0.0,0.0,0.0,0.0,0.0,0.0,0.0,0.0,0.0,0.0,0.0,0.0,0.0,0.0,0.0,0.0,0.0,0.0,0.0,0.0,0.0,0.0,0.0,0.0,0.0,3.4652,3.6143,3.7045,3.7601,3.7703,3.7352,3.7356,3.5688,3.2226,0.0,0.0,0.0,0.0,0.0,0.0,0.0,0.0,0.0,0.0,0.0,0.0,0.0,0.0,0.0,0.0,0.0,0.0,0.0,0.0,0.0,0.0,0.0,0.0,0.0,0.0,0.0,0.0,0.0,0.0,0.0,0.0,0.0,0.0,0.0,0.0,0.0,0.0,2.723,2.8816,0.0,0.0,0.0,0.0,0.0,0.0,0.0,0.0,2.9505,0.0,0.0,0.0,0.0,0.0,0.0,0.0,0.0,0.0,0.0,0.0,0.0,0.0,0.0,0.0,0.0,0.0,0.0,0.0,0.0,0.0,0.0,0.0,0.0,0.0,0.0,0.0,0.0,0.0,0.0,0.0,0.0,0.0,0.0,0.0,0.0,0.0,0.0,0.0,0.0,0.0,0.0,0.0,0.0,0.0,0.0,0.0,0.0,0.0,0.0,0.0,0.0,0.0,0.0,0.0,0.0,3.5979,3.6149,3.7171,3.922,3.9199,3.9247,3.9306,3.8501,3.6632,3.3785,0.0,0.0,0.0,0.0,0.0,0.0,0.0,0.0,0.0,0.0,0.0,0.0,0.0,0.0,0.0,0.0,0.0,0.0,0.0,0.0,0.0,0.0,0.0,0.0,0.0,0.0,0.0,0.0,0.0,0.0,0.0,0.0,0.0,0.0,0.0,0.0,0.0,0.0,0.0,3.0972,3.1391,0.0,0.0,0.0,0.0,0.0,0.0,0.0,0.0,3.0911,0.0,0.0,0.0,0.0,0.0,0.0,0.0,0.0,0.0,0.0,0.0,0.0,0.0,0.0,0.0,0.0,0.0,0.0,0.0,0.0,0.0,0.0,0.0,0.0,0.0,0.0,0.0,0.0,0.0,0.0,0.0,0.0,0.0,0.0,0.0,0.0,0.0,0.0,0.0,0.0,0.0,0.0,0.0,0.0,0.0,0.0,0.0,0.0,0.0,0.0,0.0,0.0,0.0,0.0,0.0,3.5765,3.7476,3.9003,4.0412,4.0377,4.0377,4.0461,3.9728,3.7692,0.0,0.0,0.0,0.0,0.0,0.0,0.0,0.0,0.0,0.0,0.0,0.0,0.0,0.0,0.0,0.0,0.0,0.0,0.0,0.0,0.0,0.0,0.0,0.0,0.0,0.0,0.0,0.0,0.0,0.0,0.0,0.0,0.0,0.0,0.0,0.0,0.0,0.0,0.0,0.0,3.2333,3.2796,3.3455,0.0,0.0,0.0,0.0,0.0,0.0,3.1136,3.0821,0.0,0.0,0.0,0.0,0.0,0.0,0.0,0.0,0.0,0.0,0.0,0.0,0.0,0.0,0.0,0.0,0.0,0.0,0.0,0.0,0.0,0.0,0.0,0.0,0.0,0.0,0.0,0.0,0.0,0.0,0.0,0.0,0.0,0.0,0.0,0.0,0.0,0.0,0.0,0.0,0.0,0.0,0.0,0.0,0.0,0.0,0.0,0.0,0.0,0.0,0.0,0.0,0.0,0.0,0.0,3.5414,3.8465,4.0515,4.1494,4.1515,4.1515,4.1524,4.0812,3.8548,0.0,0.0,0.0,0.0,0.0,0.0,0.0,0.0,0.0,0.0,0.0,0.0,0.0,0.0,0.0,0.0,0.0,0.0,0.0,0.0,0.0,0.0,0.0,0.0,0.0,0.0,0.0,0.0,0.0,0.0,0.0,0.0,0.0,0.0,0.0,0.0,0.0,0.0,0.0,0.0,0.0,3.4023,3.4428,3.3455,0.0,0.0,0.0,0.0,3.2378,3.2063,0.0,0.0,0.0,0.0,0.0,0.0,0.0,0.0,0.0,0.0,0.0,0.0,0.0,0.0,0.0,0.0,0.0,0.0,0.0,0.0,0.0,0.0,0.0,0.0,0.0,0.0,0.0,0.0,0.0,0.0,0.0,0.0,0.0,0.0,0.0,0.0,0.0,0.0,0.0,0.0,0.0,0.0,0.0,0.0,0.0,0.0,0.0,0.0,0.0,0.0,0.0,0.0,0.0,0.0,0.0,0.0,3.6684,3.8782,4.0855,4.2902,4.2872,4.2852,4.3011,4.1335,3.8841,0.0,0.0,0.0,0.0,0.0,0.0,0.0,0.0,0.0,0.0,0.0,0.0,0.0,0.0,0.0,0.0,0.0,0.0,0.0,0.0,0.0,0.0,0.0,0.0,0.0,0.0,0.0,0.0,0.0,0.0,0.0,0.0,0.0,0.0,0.0,0.0,0.0,0.0,0.0,0.0,0.0,3.507,3.4578,3.3859,3.3544,0.0,0.0,3.4458,3.5729,3.5865,0.0,0.0,0.0,0.0,0.0,0.0,0.0,0.0,0.0,0.0,0.0,0.0,0.0,0.0,0.0,0.0,0.0,0.0,0.0,0.0,0.0,0.0,0.0,0.0,0.0,0.0,0.0,0.0,0.0,0.0,0.0,0.0,0.0,0.0,0.0,0.0,0.0,0.0,0.0,0.0,0.0,0.0,0.0,0.0,0.0,0.0,0.0,0.0,0.0,0.0,0.0,0.0,0.0,0.0,0.0,3.5422,3.7606,4.1109,4.3409,4.4386,4.4355,4.4335,4.4416,4.2541,3.9762,0.0,0.0,0.0,0.0,0.0,0.0,0.0,0.0,0.0,0.0,0.0,0.0,0.0,0.0,0.0,0.0,0.0,0.0,0.0,0.0,0.0,0.0,0.0,0.0,0.0,0.0,0.0,0.0,0.0,0.0,0.0,0.0,0.0,0.0,0.0,0.0,0.0,0.0,0.0,0.0,0.0,0.0,3.6643,3.5865,0.0,0.0,0.0,3.5266,3.5848,0.0,0.0,0.0,0.0,0.0,0.0,0.0,0.0,0.0,0.0,0.0,0.0,0.0,0.0,0.0,0.0,0.0,0.0,0.0,0.0,0.0,0.0,0.0,0.0,0.0,0.0,0.0,0.0,0.0,0.0,0.0,0.0,0.0,0.0,0.0,0.0,0.0,0.0,0.0,0.0,0.0,0.0,0.0,0.0,0.0,0.0,0.0,0.0,0.0,0.0,0.0,0.0,0.0,0.0,0.0,0.0,0.0,3.8067,4.2812,4.5274,4.5274,4.5274,4.5274,4.5244,4.3738,0.0,0.0,0.0,0.0,0.0,0.0,0.0,0.0,0.0,0.0,0.0,0.0,0.0,0.0,0.0,0.0,0.0,0.0,0.0,0.0,0.0,0.0,0.0,0.0,0.0,0.0,0.0,2.34,0.0,0.0,0.0,0.0,0.0,0.0,0.0,0.0,0.0,0.0,0.0,0.0,0.0,0.0,3.6716,3.7973,3.7315,3.7182,0.0,0.0,3.6088,3.6447,3.6896,3.6613,0.0,0.0,0.0,0.0,0.0,0.0,0.0,0.0,0.0,0.0,0.0,0.0,0.0,0.0,0.0,0.0,0.0,0.0,0.0,0.0,0.0,0.0,0.0,0.0,0.0,0.0,0.0,0.0,0.0,0.0,0.0,0.0,0.0,0.0,0.0,0.0,0.0,0.0,0.0,0.0,0.0,0.0,0.0,0.0,0.0,0.0,0.0,0.0,0.0,0.0,0.0,0.0,0.0,0.0,0.0,3.8097,4.2812,4.5304,4.5304,4.5274,4.5274,4.5274,4.4586,4.2023,0.0,0.0,0.0,0.0,0.0,0.0,0.0,0.0,0.0,0.0,0.0,0.0,0.0,0.0,0.0,0.0,0.0,0.0,0.0,0.0,0.0,0.0,0.0,0.0,0.0,0.0,0.0,0.0,0.0,0.0,0.0,0.0,0.0,0.0,0.0,0.0,0.0,0.0,0.0,0.0,0.0,3.6028,3.7268,3.7387,3.7806,0.0,0.0,3.7704,3.8943,3.9152,3.8123,3.5027,0.0,0.0,0.0,0.0,0.0,0.0,0.0,0.0,0.0,0.0,0.0,0.0,0.0,0.0,0.0,0.0,0.0,0.0,0.0,0.0,0.0,0.0,0.0,0.0,0.0,0.0,0.0,0.0,0.0,0.0,0.0,0.0,0.0,0.0,0.0,0.0,0.0,0.0,0.0,0.0,0.0,0.0,0.0,0.0,0.0,0.0,0.0,0.0,0.0,0.0,0.0,0.0,0.0,3.8091,3.9203,4.4035,4.6531,4.6531,4.6531,4.6531,4.6531,4.5463,4.315,0.0,0.0,0.0,0.0,0.0,0.0,0.0,0.0,0.0,0.0,0.0,0.0,0.0,0.0,0.0,0.0,0.0,0.0,0.0,0.0,0.0,0.0,0.0,0.0,0.0,0.0,0.0,0.0,3.0775,3.1284,3.139,0.0,0.0,0.0,0.0,0.0,0.0,0.0,0.0,0.0,0.0,3.8374,3.9679,3.9876,0.0,0.0,4.0098,3.9439,3.993,3.966,3.8823,3.7182,3.6357,0.0,0.0,0.0,0.0,0.0,0.0,0.0,0.0,0.0,0.0,0.0,0.0,0.0,0.0,0.0,0.0,0.0,0.0,0.0,0.0,0.0,0.0,0.0,0.0,0.0,0.0,0.0,0.0,0.0,0.0,0.0,0.0,0.0,0.0,0.0,0.0,0.0,0.0,0.0,0.0,0.0,0.0,0.0,0.0,0.0,0.0,0.0,0.0,0.0,0.0,0.0,0.0,3.9205,4.0264,4.5308,4.7788,4.7608,4.7608,4.7489,4.7279,4.6381,4.4436,0.0,0.0,0.0,0.0,0.0,0.0,0.0,0.0,0.0,0.0,0.0,0.0,0.0,0.0,0.0,0.0,0.0,0.0,0.0,0.0,0.0,0.0,0.0,0.0,0.0,0.0,0.0,0.0,3.2976,3.3036,3.2542,0.0,0.0,0.0,0.0,0.0,0.0,0.0,0.0,0.0,0.0,4.001,4.1122,4.1066,4.1048,4.1528,4.0404,3.9559,3.9768,3.9757,3.9561,3.8957,0.0,0.0,0.0,0.0,0.0,0.0,0.0,0.0,0.0,0.0,0.0,0.0,0.0,0.0,0.0,0.0,0.0,0.0,0.0,0.0,0.0,0.0,0.0,0.0,0.0,0.0,0.0,0.0,0.0,0.0,2.7705,0.0,0.0,0.0,0.0,0.0,0.0,0.0,0.0,0.0,0.0,0.0,0.0,0.0,0.0,0.0,0.0,0.0,0.0,0.0,0.0,0.0,0.0,3.9946,4.1137,4.6437,4.8917,4.8319,4.8267,4.7967,4.7369,4.7279,4.5971,4.328,0.0,0.0,0.0,0.0,0.0,0.0,0.0,0.0,0.0,0.0,0.0,0.0,0.0,0.0,0.0,0.0,0.0,0.0,0.0,0.0,0.0,0.0,0.0,0.0,0.0,0.0,3.0807,3.1764,3.2542,0.0,0.0,0.0,0.0,0.0,0.0,0.0,0.0,0.0,0.0,3.9031,4.0259,4.1,4.0353,4.0009,3.9961,3.8627,3.7828,3.857,3.9712,4.0419,0.0,0.0,0.0,0.0,0.0,0.0,0.0,0.0,0.0,0.0,0.0,0.0,0.0,0.0,0.0,0.0,0.0,0.0,0.0,0.0,0.0,0.0,0.0,0.0,0.0,0.0,0.0,3.3066,3.1898,0.0,0.0,0.0,0.0,0.0,0.0,0.0,0.0,0.0,0.0,0.0,3.9787,4.0618,0.0,0.0,0.0,0.0,0.0,0.0,0.0,0.0,0.0,0.0,0.0,0.0,4.1051,4.197,4.6736,4.9187,4.8977,4.8977,4.8858,4.8648,4.8648,4.716,4.4057,0.0,0.0,0.0,0.0,0.0,0.0,0.0,0.0,0.0,0.0,0.0,0.0,0.0,0.0,0.0,0.0,0.0,0.0,0.0,0.0,0.0,0.0,0.0,0.0,0.0,3.2976,0.0,0.0,0.0,0.0,0.0,0.0,0.0,0.0,0.0,0.0,0.0,4.0225,4.1241,4.2385,4.3385,4.4037,4.3952,4.4006,0.0,0.0,0.0,0.0,0.0,0.0,0.0,0.0,0.0,0.0,0.0,0.0,0.0,0.0,4.481,4.1424,4.0682,4.0572,4.0405,0.0,0.0,0.0,0.0,0.0,0.0,0.0,0.0,0.0,0.0,0.0,0.0,0.0,0.0,3.6656,0.0,3.5699,0.0,0.0,0.0,0.0,0.0,0.0,0.0,0.0,4.1324,4.278,4.3828,4.4625,4.4736,0.0,4.3229,4.0636,0.0,0.0,0.0,0.0,0.0,0.0,0.0,0.0,4.2243,4.3329,4.7684,4.9853,4.9636,4.9613,4.9516,4.9277,4.9277,4.8259,4.6082,4.3788,4.1528,0.0,0.0,0.0,0.0,0.0,0.0,0.0,0.0,0.0,0.0,0.0,0.0,0.0,0.0,0.0,0.0,0.0,0.0,0.0,0.0,0.0,0.0,0.0,3.4934,0.0,0.0,0.0,0.0,0.0,0.0,0.0,0.0,0.0,3.8619,4.1146,4.3427,4.4278,4.4974,4.5506,4.5692,0.0,0.0,0.0,0.0,0.0,0.0,0.0,4.3735,4.4643,4.4398,4.4476,4.575,4.7605,4.8895,4.8911,0.0,0.0,4.5736,4.4918,4.4841,4.4755,4.5424,4.5876,4.5281,4.6532,4.7718,0.0,0.0,0.0,0.0,0.0,0.0,0.0,0.0,4.1283,4.0445,0.0,3.9948,0.0,0.0,0.0,0.0,0.0,4.0157,0.0,0.0,4.7271,4.8917,4.8409,4.8409,4.8738,4.9217,4.6792,4.5244,4.4446,4.269,0.0,0.0,0.0,0.0,0.0,0.0,4.3469,4.5424,4.9224,5.0907,5.0285,5.0226,4.9972,4.9442,4.9389,4.9359,4.9262,4.6506,4.47,4.4247,3.9083,0.0,0.0,0.0,0.0,0.0,0.0,0.0,0.0,0.0,0.0,0.0,0.0,0.0,0.0,0.0,0.0,0.0,0.0,0.0,0.0,3.6804,0.0,0.0,0.0,0.0,0.0,0.0,0.0,0.0,0.0,0.0,4.1604,4.3759,4.5793,4.6491,0.0,0.0,0.0,0.0,4.4996,4.4898,4.3509,4.2831,4.3524,4.5261,4.6847,4.7753,0.0,0.0,5.1141,5.2152,5.257,5.1229,5.2637,5.3426,5.1445,4.9177,4.7914,4.8434,4.8682,4.8861,4.9584,5.1278,5.2834,4.319,0.0,0.0,0.0,0.0,4.1634,4.2741,4.4625,4.4805,4.4317,4.3329,4.3718,0.0,0.0,0.0,0.0,0.0,0.0,4.3967,4.6172,4.7339,4.8985,5.1073,5.1079,5.1462,5.2031,5.1312,5.0863,5.0631,5.0085,4.5624,3.7537,0.0,0.0,0.0,0.0,4.5933,4.7519,5.0391,5.1828,5.1618,5.1146,5.0933,5.0961,5.0931,5.0938,5.0931,4.9829,4.789,4.5115,4.3657,0.0,0.0,0.0,0.0,0.0,0.0,0.0,0.0,0.0,0.0,0.0,0.0,0.0,0.0,0.0,0.0,0.0,0.0,0.0,3.4889,3.9059,4.0641,0.0,0.0,0.0,0.0,0.0,0.0,0.0,0.0,0.0,4.7382,4.8021,4.8226,0.0,0.0,4.9068,4.7722,4.8493,4.9393,4.9843,4.9208,0.0,0.0,4.8804,4.8614,5.0018,5.1831,5.3011,5.2808,5.399,5.4782,5.4343,5.4782,5.5002,5.4479,5.3609,5.2957,5.3103,5.3188,5.3405,5.4156,5.4762,5.5214,4.7527,4.6271,4.4257,4.3858,4.4556,4.4775,4.6001,4.7886,4.8125,4.7758,4.6912,4.7399,4.5873,4.293,4.2671,0.0,0.0,0.0,4.698,4.9254,4.9523,5.069,5.2516,5.2576,5.2809,5.3169,5.2636,5.269,5.3169,5.1881,4.8199,4.2312,0.0,0.0,4.2043,4.5633,4.8147,4.9464,5.1528,5.2576,5.2576,5.2187,5.1929,5.1854,5.1824,5.178,5.1625,5.1493,5.0387,4.8153,4.7327,4.5458,0.0,0.0,0.0,0.0,0.0,0.0,0.0,0.0,0.0,0.0,0.0,3.5562,0.0,0.0,0.0,0.0,3.9005,3.9676,4.0719,4.3367,0.0,0.0,0.0,0.0,0.0,0.0,0.0,4.7131,4.9126,5.0543,5.1244,5.1543,5.1137,4.9679,5.0554,5.0941,4.9972,0.0,5.2202,5.2606,5.2369,5.2266,5.2706,5.1828,5.1542,5.279,5.3974,5.4769,5.4837,5.5784,5.6528,5.6562,5.6562,5.6646,5.695,5.6803,5.6252,5.5425,5.5456,5.591,5.6633,5.6947,5.7346,5.1355,5.096,4.6202,4.5185,4.6719,4.7399,4.8693,5.0398,5.1056,5.072,4.9696,5.084,4.9344,4.5903,4.5304,0.0,4.7848,4.9037,5.0564,5.2306,5.2929,5.3228,5.3288,5.3288,5.3318,5.3324,5.2097,5.2157,5.3174,5.0384,4.9127,4.9666,4.9666,4.8917,4.7549,4.8708,5.0002,5.1325,5.2516,5.3163,5.3223,5.3223,5.2977,5.2426,5.2372,5.2221,5.1853,5.2108,5.2277,5.2306,5.0294,4.8811,4.8015,0.0,0.0,0.0,0.0,0.0,0.0,0.0,0.0,0.0,0.0,0.0,0.0,0.0,0.0,0.0,4.6976,0.0,5.0024,4.8542,0.0,0.0,0.0,4.4999,4.5341,4.7654,4.9326,4.9526,0.0,0.0,5.3585,5.4262,5.416,5.2773,5.2551,5.251,5.2387,5.3156,5.3823,5.3737,5.367,5.367,5.3754,5.4194,5.4803,5.5462,5.6443,5.69,5.6968,5.7543,5.8035,5.8051,5.8118,5.8373,5.9066,5.9163,5.8604,5.6549,5.6581,5.7168,5.7995,5.8811,5.9629,5.2725,5.263,5.1402,5.0541,5.0099,5.075,5.1289,5.1798,5.2426,5.257,5.23,5.26,5.2187,5.1312,5.1163,5.1319,5.1798,5.2151,5.251,5.2959,5.3139,5.3468,5.3952,5.3982,5.4221,5.467,5.4401,5.4401,5.467,5.3922,5.3384,5.3054,5.3025,5.1379,4.8237,4.9344,5.09,5.2695,5.254,5.2792,5.3465,5.3495,5.3597,5.3851,5.3874,5.3837,5.3725,5.4121,5.3945,5.3124,5.2919,5.2444,5.1558,4.5946,0.0,0.0,0.0,0.0,0.0,0.0,0.0,0.0,0.0,4.1142,3.608,0.0,4.3735,0.0,5.1746,5.2775,4.8,4.9641,0.0,0.0,4.7707,4.8365,5.1814,5.1756,5.2121,5.3918,5.4547,5.4955,5.5158,5.5327,5.5293,5.4921,5.4883,5.4451,5.3257,5.428,5.5203,5.5224,5.5225,5.5158,5.531,5.5784,5.6393,5.6494,5.7627,5.8472,5.8472,5.9099,5.9573,5.9607,6.0114,6.052,6.0723,6.1197,6.1366,6.082,6.0463,6.0376,6.1105,6.1736,6.238,5.3378,5.3623,5.3348,5.2935,5.2552,5.2606,5.266,5.2665,5.3049,5.3198,5.3198,5.3198,5.3198,5.3228,5.3528,5.3498,5.3258,5.4127,5.4366,5.4127,5.4695,5.5119,5.5478,5.5478,5.5688,5.6042,5.5773,5.5653,5.5623,5.5029,5.47,5.464,5.4371,5.3114,5.105,5.1349,5.1798,5.2306,5.3236,5.4059,5.4715,5.4868,5.4171,5.2614,5.3497,5.3346,5.2029,5.3174,5.3128,5.1751,5.1927,5.1968,5.1645,4.7814,4.5728,0.0,0.0,0.0,0.0,0.0,0.0,0.0,0.0,0.0,0.0,0.0,4.7999,0.0,5.4219,5.5331,5.0599,5.2357,5.3421,5.2585,5.2035,5.2771,5.5308,5.5093,5.5221,5.6509,5.695,5.7288,5.7593,5.7679,5.766,5.766,5.7679,5.7076,5.5804,5.6663,5.766,5.766,5.7679,5.7814,5.81,5.8558,5.8896,5.9268,5.9945,6.052,6.052,6.0858,6.1129,6.1163,6.1501,6.1907,6.2245,6.2584,6.2956,6.3294,6.3328,6.3193,6.2956,6.3127,6.3553,5.4067,5.4521,5.3922,5.4012,5.4551,5.3922,5.3618,5.3468,5.3558,5.3618,5.3707,5.3707,5.3707,5.3737,5.4311,5.4251,5.3827,5.5534,5.6013,5.5508,5.6585,5.7094,5.7094,5.7225,5.7277,5.7221,5.6706,5.6492,5.6462,5.5325,5.4995,5.5445,5.5005,5.4633,5.4362,5.3868,5.2906,5.1575,5.3928,5.5421,5.593,5.6053,5.4376,5.0923,5.2749,5.2657,5.0092,5.1786,5.2084,5.0587,5.0512,5.0771,5.1218,4.9986,4.8824,0.0,4.6897,0.0,0.0,0.0,0.0,0.0,0.0,0.0,0.0,5.242,5.2651,5.1865,5.5595,5.7239,5.5328,5.5818,5.6477,5.7018,5.7171,5.7239,5.7239,5.778,5.8204,5.8204,5.8761,5.9385,5.9877,6.008,6.008,5.9911,6.0013,5.9588,5.8675,5.9216,5.9877,6.008,6.008,6.0013,6.0791,6.1231,6.1535,6.2245,6.2516,6.2651,6.2637,6.2671,6.2671,6.2705,6.2821,6.3091,6.37,6.3869,6.4153,6.4783,6.529,6.5256,6.4208,6.4018,6.414,5.6436,5.6526,5.6406,5.6436,5.6526,5.6406,5.5777,5.4875,5.5414,5.5923,5.6346,5.6346,5.6372,5.6402,5.6496,5.6466,5.6376,5.6735,5.6881,5.6735,5.6974,5.7094,5.7146,5.7789,5.8176,5.8151,5.8055,5.7994,5.7994,5.775,5.7414,5.7012,5.7499,5.6939,5.5441,0.0,0.0,0.0,5.2954,5.3351,5.4334,5.3913,5.3402,5.2861,5.4958,0.0,5.5281,5.5826,5.5824,5.5166,5.5319,0.0,0.0,0.0,0.0,0.0,0.0,0.0,0.0,0.0,0.0,0.0,5.318,5.2808,5.2529,5.5141,5.6301,5.5155,5.7312,5.8607,5.8235,5.8829,5.9099,5.8675,5.9133,5.9471,5.9471,5.9573,5.9674,5.9674,5.981,5.9945,6.0148,6.008,6.0148,6.0317,6.0689,6.0926,6.0723,6.0385,6.0114,6.0114,6.0317,6.0486,6.1197,6.1873,6.2584,6.3159,6.3835,6.414,6.4174,6.4174,6.4174,6.4174,6.4681,6.5053,6.5222,6.5764,6.6081,6.6318,6.6508,6.6339,6.5493,6.5764,6.6216,5.7304,0.0,5.7244,5.7304,0.0,5.7682,5.756,5.7207,5.6796,5.6795,5.7094,5.7094,5.6915,5.6671,5.6974,5.7148,5.7288,5.7898,5.82,5.8226,5.9098,5.9276,5.8889,5.9858,6.031,6.031,5.9998,5.9868,5.9836,5.9494,5.9152,5.8865,5.922,5.8932,5.7971,5.8176,5.7583,5.6134,5.5559,5.5834,5.6954,5.6931,5.6121,5.4648,0.0,0.0,0.0,0.0,0.0,0.0,0.0,0.0,0.0,0.0,0.0,5.6608,5.5399,5.4928,5.5606,5.6029,5.7217,5.9351,5.9539,5.8803,5.7095,5.9576,6.0893,6.0231,6.0854,6.1095,6.0723,6.0723,6.0385,5.9656,5.9877,6.008,6.0148,6.0452,6.0689,6.0723,6.1028,6.1366,6.1738,6.1786,6.1941,6.2279,6.2651,6.2888,6.2821,6.1941,6.1332,6.1738,6.2144,6.2618,6.3294,6.3734,6.4241,6.4986,6.5459,6.5641,6.5675,6.5675,6.5675,6.573,6.6,6.6237,6.6271,6.6576,6.6791,6.6791,6.6791,6.669,6.6305,6.6542,6.6791,5.8068,5.8625,5.8109,5.8199,5.8704,5.8884,5.9226,5.9614,0.0,0.0,0.0,5.7894,5.7622,5.717,5.7704,5.8024,5.8251,5.9327,5.9819,5.9901,6.1314,6.1615,6.1062,6.2009,6.2509,6.2502,6.1931,6.1701,6.167,6.1122,6.0868,6.0892,6.1011,6.0979,6.086,6.0916,6.0509,5.9625,5.8709,5.869,5.9632,6.0094,5.8876,5.5866,5.8853,5.9498,5.739,5.9036,5.9162,5.7514,5.7428,5.754,5.7795,5.7828,5.8738,6.0699,6.0892,6.1467,6.2685,6.2806,6.3294,6.4512,6.485,6.4106,6.2042,6.3565,6.4613,6.4613,6.4038,6.3409,6.284,6.2245,6.1637,6.096,6.0892,6.0926,6.096,6.1467,6.1941,6.1941,6.2448,6.299,6.3545,6.3612,6.3883,6.441,6.4377,6.4613,6.4478,6.3497,6.2956,6.3477,6.3903,6.4715,6.548,6.5751,6.617,6.6745,6.7049,6.7218,6.7197,6.7197,6.7218,6.7197,6.7218,6.7252,6.7231,6.7299,6.7218,6.7197,6.7197,6.7197,6.7218,6.7197,6.7184,6.0305,6.1009,6.0916,6.0947,6.104,6.1043,6.1125,6.1161,6.0967,6.0885,6.0885,6.0885,6.0823,6.0786,6.1101,6.1221,6.1283,6.1696,6.1883,6.1883,6.2126,6.2157,6.2139,6.2923,6.334,6.3308,6.3212,6.318,6.3203,6.3107,6.3019,6.3146,6.3743,6.3743,6.309,6.3288,6.3312,6.3082,5.9437,5.7665,5.7957,5.8096,5.7635,5.6653,5.9624,6.1114,6.0723,6.1207,6.1441,6.1286,6.1272,6.1688,6.2453,6.2487,6.2972,6.3849,6.3971,6.4072,6.4275,6.4275,6.4377,6.4647,6.5764,6.5811,6.4309,6.441,6.4613,6.4613,6.4613,6.441,6.4275,6.4208,6.4038,6.3869,6.3937,6.3937,6.3802,6.3937,6.4038,6.4038,6.4208,6.4309,6.4478,6.4512,6.4546,6.4613,6.4918,6.4715,6.4783,6.4444,6.4343,6.441,6.4512,6.4918,6.5628,6.6271,6.6846,6.7624,6.8233,6.8538,6.8571,6.8571,6.8571,6.8707,6.8605,6.8639,6.8673,6.8774,6.8639,6.8605,6.8605,6.8639,6.8605,6.8605,6.8279,6.1177,6.1727,6.2564,6.297,6.3148,6.3608,6.403,6.4399,6.4423,6.3387,6.1834,6.2154,6.2192,6.2085,6.2902,6.3139,6.2866,6.3721,6.393,6.3659,6.4546,6.4755,6.4408,6.5266,6.5722,6.5722,6.5722,6.5722,6.5722,6.5722,6.5722,6.5746,6.6242,6.6311,6.6002,6.6209,6.6136,6.5629,6.2252,6.0721,6.1218,6.1518,6.1502,6.117,6.3287,6.435,6.4316,6.4454,6.4557,6.4639,6.4639,6.4849,6.5269,6.5269,6.5439,6.5797,6.617,6.6406,6.6406,6.6779,6.7049,6.7049,6.7658,6.7793,6.7117,6.6643,6.6576,6.6981,6.6677,6.6203,6.5865,6.617,6.5933,6.4715,6.4952,6.5019,6.4715,6.4986,6.5189,6.5222,6.5561,6.5797,6.5797,6.5797,6.5777,6.5831,6.6068,6.6373,6.6406,6.6745,6.6542,6.5527,6.5561,6.5899,6.6271,6.6542,6.7096,6.776,6.8199,6.8605,6.8944,6.9113,6.9113,6.9079,6.9113,6.9079,6.9113,6.9079,6.9079,6.9079,6.9079,6.9079,6.9079,6.9079,6.8842,6.3006,6.348,6.4632,6.5193,6.5336,6.5852,6.6402,6.6864,6.6935,6.5536,6.3366,6.3662,6.3723,6.3562,6.4601,6.4874,6.4639,6.5609,6.5837,6.5454,6.6687,6.6997,6.6505,6.7231,6.7589,6.7589,6.7589,6.7589,6.7589,6.7589,6.7589,6.7612,6.7818,6.791,6.791,6.8159,6.8026,6.7291,6.5344,6.4448,6.4681,6.5396,6.5698,6.5585,6.6586,6.7235,6.7235,6.7277,6.7299,6.7299,6.7299,6.7332,6.7299,6.7299,6.7299,6.7387,6.7861,6.8166,6.8199,6.8741,6.9079,6.9113,6.9417,6.9586,6.9553,6.9214,6.891,6.9011,6.8436,6.7895,6.7489,6.7793,6.7455,6.5865,6.6102,6.6339,6.5797,6.6157,6.644,6.6508,6.6981,6.732,6.732,6.7299,6.7299,6.7421,6.7827,6.8132,6.8233,6.8741,6.8233,6.7218,6.6948,6.732,6.7354,6.7557,6.7895,6.8368,6.8673,6.9147,6.9586,6.9654,6.962,6.9722,6.9688,6.9722,6.9654,6.9654,6.9688,6.9755,6.9789,6.9688,6.9722,6.9722,6.9451,6.7233,6.8017,6.8092,6.8054,6.7589,6.7311,6.7095,6.7024,6.718,6.7137,6.6724,6.6615,6.6496,6.6526,6.6855,6.6964,6.6893,6.7268,6.738,6.7281,6.7486,6.7519,6.747,6.7576,6.7622,6.7655,6.7688,6.7754,6.7721,6.7688,6.7622,6.7589,6.7612,6.7747,6.7714,6.7966,6.8035,6.7946,6.7924,6.7276,6.609,6.7367,6.7745,6.7047,6.7982,6.8525,6.8547,6.8767,6.891,6.8876,6.8842,6.8876,6.8876,6.8876,6.8876,6.8876,6.8977,6.8977,6.9045,6.9079,6.9214,6.918,7.0432,7.1086,7.112,7.1616,7.1109,6.9722,6.9113,6.9045,6.891,6.9011,6.891,6.8436,6.8538,6.8741,6.8538,6.8741,6.8774,6.8774,6.8774,6.891,6.8808,6.8741,6.8774,6.8639,6.8808,6.8977,6.8977,6.918,6.9282,6.8842,6.8876,6.8808,6.8842,6.9451,6.9553,6.9857,7.0466,7.077,7.0906,7.1075,7.1109,7.1075,7.1019,7.0985,7.0985,7.1086,7.0985,7.0782,7.0816,7.0985,7.1052,7.0951,7.0511,6.7264,6.7833,6.8732,6.9105,6.9049,6.8871,6.8715,6.862,6.8715,6.8762,6.8762,6.8644,6.839,6.7994,6.8517,6.8531,6.8191,6.8658,6.8672,6.8341,6.8672,6.8904,6.8904,6.8904,6.8904,6.8904,6.8904,6.8904,6.8927,6.9044,6.9114,6.9194,6.9392,6.9553,6.9576,6.9804,6.9738,6.9323,6.9828,6.957,6.8708,6.8965,6.9065,6.8862,6.9727,7.0231,7.0197,6.9948,6.9755,6.9722,6.935,6.9316,6.9722,6.935,6.9485,7.0331,7.0838,7.1244,7.165,7.1684,7.1684,7.1684,7.2225,7.2597,7.2597,7.2868,7.2462,7.1345,7.1041,7.0906,7.05,7.0804,7.0567,6.9519,6.9485,6.9586,6.9147,6.9485,6.9755,6.9811,7.0128,7.0195,6.9789,6.9383,6.9113,6.9147,6.9417,6.9722,6.9755,7.0128,7.0376,7.0432,7.0398,6.997,6.9417,6.9282,6.9891,7.0567,7.0703,7.0838,7.2225,7.2157,7.2056,7.2462,7.2191,7.1988,7.1921,7.1526,7.1289,7.1379,7.1323,7.1289,7.1289,7.1289,7.0951,6.8166,6.8479,6.9426,6.9977,7.0182,6.9983,6.9964,6.9978,6.9978,7.0011,7.0011,6.9978,6.9712,6.929,6.9637,6.9514,6.923,6.9685,6.9642,6.928,6.9746,6.9978,6.9978,6.9978,7.0011,7.0011,6.9978,6.9978,7.0011,7.0176,7.027,7.034,7.0618,7.0802,7.0825,7.1052,7.0929,7.049,7.103,7.1041,7.0579,7.0715,7.0726,7.0591,7.1424,7.1887,7.1864,7.1379,7.1131,7.1097,7.059,7.0534,7.1063,7.0601,7.077,7.1785,7.2394,7.2902,7.3466,7.35,7.35,7.3534,7.3646,7.3781,7.3815,7.3781,7.3578,7.3071,7.28,7.2293,7.1515,7.1785,7.1345,6.9958,7.0229,7.0229,6.9857,7.0229,7.05,7.0534,7.0906,7.112,7.0567,7.0094,6.9823,6.9857,7.0195,7.05,7.0534,7.0939,7.1222,7.1289,7.1255,7.085,6.9925,6.9857,7.0331,7.077,7.1007,7.1515,7.2969,7.2699,7.2732,7.2969,7.2834,7.2732,7.2699,7.2225,7.1932,7.1988,7.2011,7.2056,7.2395,7.2157,7.2022,7.1408,7.1235,7.0944,7.0879,7.1152,7.0452,7.027,7.0376,7.0423,7.0446,7.0399,7.0423,7.0446,7.0299,6.9955,6.9907,7.0086,7.0143,7.0236,7.0322,7.0412,7.0469,7.0469,7.0469,7.0446,7.0399,7.0399,7.0423,7.0446,7.0469,7.0492,7.0492,7.0561,7.0538,7.0608,7.0848,7.0939,7.0883,7.1165,7.1255,7.1413,7.2529,7.2811,7.2338,7.3003,7.3409,7.3375,7.3341,7.3331,7.3308,7.3161,7.3206,7.3274,7.3263,7.3263,7.3398,7.3466,7.3477,7.3567,7.3635,7.3601,7.3635,7.4187,7.4559,7.4434,7.4525,7.4458,7.4434,7.3781,7.2902,7.1718,7.156,7.1424,7.112,7.112,7.1154,7.112,7.1019,7.1222,7.1188,7.1222,7.1222,7.1188,7.1222,7.1019,7.1019,7.1154,7.121,7.112,7.1255,7.1289,7.1289,7.1289,7.1255,7.1154,7.0872,7.0985,7.1548,7.1988,7.236,7.2597,7.2902,7.3274,7.3567,7.351,7.3477,7.3466,7.3411,7.339,7.339,7.3413,7.3515,7.339,7.3934,7.3706,7.044,7.0415,7.0271,7.0267,7.0306,7.004,6.9988,7.0025,7.0025,7.0059,7.0059,7.0049,7.0153,7.0293,6.9964,7.0035,7.0353,7.041,7.0423,7.0492,7.0492,7.0492,7.0492,7.0492,7.0492,7.0492,7.0492,7.0492,7.0515,7.0687,7.0779,7.0802,7.0939,7.1007,7.1007,7.1109,7.1176,7.1176,7.1267,7.1289,7.1357,7.2293,7.2868,7.3161,7.4289,7.4897,7.4921,7.4458,7.4221,7.4187,7.3771,7.3713,7.4187,7.4661,7.4695,7.4322,7.4627,7.4897,7.4897,7.4897,7.4695,7.4322,7.4897,7.51,7.4772,7.5033,7.5134,7.4637,7.4424,7.3713,7.2902,7.2293,7.1819,7.1391,7.1289,7.1357,7.1289,7.1289,7.1289,7.1289,7.1289,7.1289,7.1391,7.1289,7.1289,7.1289,7.1289,7.1357,7.1323,7.1289,7.1357,7.1289,7.1289,7.1289,7.1289,7.1255,7.1458,7.2225,7.2834,7.3443,7.3815,7.394,7.4278,7.4676,7.4585,7.4384,7.4386,7.4241,7.4332,7.4467,7.4535,7.4794,7.424,7.4994,7.4677,6.9798,6.9798,6.9798,6.9846,6.9917,6.9917,6.9988,7.0035,7.0129,7.0153,7.0176,7.0246,7.0386,7.0502,7.0363,7.0456,7.0733,7.0584,7.0584,7.0756,7.0779,7.0756,7.0779,7.0745,7.0756,7.0779,7.0779,7.0779,7.0779,7.0939,7.1007,7.1063,7.1222,7.1289,7.1289,7.1289,7.1289,7.1289,7.1289,7.1289,7.1413,7.2022,7.2631,7.3274,7.4593,7.5473,7.5676,7.5236,7.4965,7.4897,7.4458,7.4424,7.4931,7.5439,7.5473,7.51,7.5405,7.5676,7.5676,7.5676,7.5473,7.5033,7.5371,7.5439,7.5033,7.5202,7.5067,7.4695,7.4322,7.3984,7.3544,7.3037,7.2563,7.209,7.2022,7.2022,7.2022,7.1999,7.2056,7.209,7.2124,7.2056,7.2022,7.2056,7.2056,7.1988,7.2022,7.2022,7.2022,7.2022,7.2022,7.2022,7.2124,7.2157,7.227,7.2361,7.2033,7.2609,7.3241,7.4054,7.4778,7.4947,7.5208,7.5628,7.5688,7.5476,7.5298,7.514,7.5284,7.5536,7.6115,7.6616,7.6335,7.6132,7.598,6.9798,6.9888,6.9831,7.0121,7.0409,7.0433,7.0417,7.067,7.0844,7.0968,7.1035,7.1198,7.1356,7.1334,7.1333,7.13,7.1356,7.0991,7.0936,7.1199,7.1244,7.1244,7.1222,7.1222,7.1289,7.1323,7.1334,7.1368,7.1447,7.1481,7.147,7.1357,7.1368,7.1391,7.1289,7.1289,7.1289,7.1289,7.1289,7.1289,7.1357,7.1954,7.2394,7.2665,7.3849,7.4897,7.5642,7.5676,7.5574,7.5608,7.5574,7.5642,7.5608,7.5676,7.5676,7.5608,7.5676,7.5676,7.5676,7.5676,7.5676,7.5473,7.5642,7.5642,7.5371,7.5067,7.4796,7.4695,7.4187,7.3646,7.3737,7.3669,7.3477,7.3443,7.3206,7.324,7.3308,7.3432,7.3466,7.3331,7.3263,7.3432,7.3432,7.3263,7.3172,7.3172,7.3229,7.3195,7.3161,7.3128,7.3364,7.3388,7.3038,7.2779,7.3208,7.3593,7.313,7.2903,7.3502,7.4204,7.509,7.551,7.5795,7.6171,7.6194,7.6027,7.6851,7.6773,7.7138,7.748,7.8028,7.8201,7.7956,7.7739,7.7896,7.0216,7.0814,7.0847,7.1289,7.1937,7.1994,7.2042,7.2055,7.2183,7.2207,7.223,7.2301,7.2418,7.2477,7.2418,7.2477,7.2754,7.2443,7.1938,7.1379,7.1323,7.1323,7.1323,7.1323,7.156,7.209,7.2597,7.28,7.2732,7.2732,7.2597,7.2157,7.2056,7.1785,7.1323,7.1289,7.1289,7.1289,7.1289,7.1289,7.1289,7.1548,7.2124,7.3037,7.3138,7.3883,7.554,7.5676,7.5676,7.5676,7.5676,7.5676,7.5676,7.5676,7.5676,7.5676,7.5676,7.5676,7.5676,7.5676,7.5473,7.5202,7.5405,7.5405,7.51,7.5236,7.5303,7.5337,7.5134,7.4999,7.4999,7.4999,7.4559,7.3635,7.35,7.3567,7.3635,7.3567,7.35,7.35,7.35,7.35,7.35,7.351,7.3601,7.35,7.3534,7.3534,7.35,7.35,7.3569,7.3718,7.3402,7.3209,7.3459,7.3753,7.364,7.3663,7.4185,7.4855,7.5686,7.6188,7.645,7.6736,7.6714,7.7109,7.7918,7.8308,7.8552,7.8779,7.8898,7.9034,7.916,7.9194,7.9195,7.0448,7.0724,7.0757,7.1085,7.1661,7.1694,7.1933,7.2228,7.2357,7.2595,7.2834,7.302,7.3137,7.3208,7.3114,7.3231,7.3487,7.3291,7.2673,7.1898,7.2056,7.2124,7.2124,7.2124,7.2124,7.2394,7.2868,7.2935,7.2665,7.2665,7.2428,7.2056,7.1988,7.1763,7.1323,7.1289,7.1413,7.165,7.1718,7.1853,7.2056,7.2124,7.2563,7.3331,7.3308,7.395,7.5236,7.554,7.5676,7.5676,7.5676,7.5676,7.5676,7.5676,7.5676,7.5676,7.5676,7.5676,7.5676,7.5676,7.554,7.5202,7.5439,7.554,7.5202,7.5506,7.5676,7.5676,7.5642,7.5676,7.5676,7.5676,7.5236,7.4458,7.4356,7.4312,7.4346,7.4346,7.438,7.439,7.4356,7.4187,7.3984,7.4221,7.3984,7.3737,7.3713,7.3713,7.3635,7.35,7.3672,7.3787,7.3595,7.3504,7.3524,7.3772,7.4044,7.4478,7.5014,7.5821,7.663,7.6937,7.7199,7.7737,7.7945,7.8315,7.9004,7.9024,7.9165,7.944,7.9789,8.0021,8.0154,8.0097,8.0103,7.0452,6.9921,6.9978,7.0272,7.0486,7.0576,7.1266,7.1709,7.2079,7.2727,7.3295,7.3675,7.3724,7.368,7.3779,7.3826,7.3646,7.3781,7.3487,7.3105,7.3274,7.3443,7.2935,7.2958,7.28,7.2462,7.2529,7.2293,7.2157,7.2067,7.1515,7.1864,7.1954,7.1526,7.1661,7.1458,7.1887,7.2394,7.2462,7.2766,7.3331,7.3398,7.35,7.3635,7.4052,7.4458,7.4931,7.5405,7.5676,7.5676,7.5676,7.5676,7.5676,7.5676,7.5676,7.5676,7.5676,7.5676,7.5676,7.5676,7.5676,7.5608,7.5608,7.5676,7.5642,7.5642,7.5676,7.5676,7.5676,7.5676,7.5676,7.5676,7.5642,7.5676,7.5439,7.5473,7.5642,7.5574,7.5439,7.5506,7.5608,7.5439,7.4762,7.5202,7.483,7.4312,7.4322,7.4322,7.4052,7.3963,7.3818,7.3923,7.4117,7.4173,7.4316,7.4621,7.4893,7.518,7.5729,7.6558,7.7402,7.7689,7.8124,7.867,7.8958,7.944,7.9754,7.9754,7.9985,8.0361,8.0712,8.1021,8.0967,8.0785,8.0657,7.0415,7.0961,7.1694,7.2419,7.317,7.3816,7.4205,7.4512,7.4526,7.4573,7.4972,7.5111,7.5033,7.51,7.5067,7.51,7.5033,7.5033,7.5067,7.4897,7.4999,7.3747,7.2394,7.2496,7.2665,7.2563,7.3003,7.3375,7.369,7.3487,7.3555,7.3747,7.351,7.3341,7.3003,7.2834,7.3003,7.3172,7.3206,7.3274,7.35,7.3567,7.3781,7.4255,7.4018,7.4424,7.527,7.5574,7.5676,7.5676,7.5676,7.5676,7.5676,7.5676,7.5676,7.5676,7.5676,7.5676,7.5676,7.5676,7.5676,7.5676,7.5676,7.5676,7.5676,7.5676,7.5676,7.5676,7.5676,7.5676,7.5676,7.5676,7.5676,7.5676,7.5676,7.5676,7.5676,7.5676,7.5676,7.5676,7.5676,7.554,7.5405,7.5473,7.5439,7.5067,7.5033,7.5134,7.4559,7.4359,7.4147,7.4877,7.5174,7.5138,7.5236,7.5529,7.5768,7.594,7.6464,7.7201,7.794,7.8504,7.9059,7.9656,7.9459,7.9754,8.0173,8.038,8.0804,8.1038,8.1056,8.1074,8.1074,8.0967,8.0948,7.0638,7.1031,7.1965,7.2676,7.3288,7.408,7.4728,7.5069,7.5127,7.5344,7.5618,7.5676,7.5676,7.5676,7.5676,7.5676,7.5676,7.5676,7.5506,7.5134,7.483,7.4119,7.3409,7.3646,7.3646,7.3375,7.3713,7.395,7.4052,7.4153,7.4153,7.4018,7.4119,7.3916,7.3466,7.35,7.3703,7.3883,7.395,7.4052,7.439,7.439,7.4593,7.4965,7.4627,7.4931,7.5608,7.5676,7.5676,7.5676,7.5676,7.5676,7.5676,7.5676,7.5676,7.5676,7.5676,7.5676,7.5676,7.5676,7.5676,7.5676,7.5676,7.5676,7.5676,7.5676,7.5676,7.5676,7.5676,7.5676,7.5676,7.5676,7.5676,7.5676,7.5676,7.5676,7.5676,7.5676,7.5676,7.5676,7.5676,7.554,7.5337,7.5506,7.5337,7.4965,7.4864,7.4796,7.4593,7.4517,7.4625,7.5231,7.5526,7.5337,7.5398,7.569,7.6201,7.6443,7.743,7.8124,7.8581,7.9256,7.9886,8.0268,8.0078,8.0078,8.0509,8.0785,8.093,8.1038,8.1056,8.1074,8.1074,8.1074,8.1074,7.1007,7.0683,7.15,7.1892,7.2217,7.282,7.3941,7.4397,7.4637,7.5103,7.5719,7.5743,7.5879,7.5912,7.6048,7.5912,7.6014,7.6183,7.5642,7.5168,7.4695,7.4559,7.5168,7.4796,7.4559,7.4221,7.4424,7.4187,7.395,7.3747,7.3771,7.4018,7.395,7.3838,7.4007,7.3872,7.4119,7.4593,7.4728,7.4931,7.5337,7.5405,7.5473,7.5473,7.5506,7.5473,7.5642,7.5676,7.5676,7.5676,7.5676,7.5676,7.5676,7.5676,7.5676,7.5676,7.5676,7.5676,7.5676,7.5676,7.5676,7.5676,7.5676,7.5676,7.5676,7.5676,7.5676,7.5676,7.5676,7.5676,7.5676,7.5676,7.5811,7.5845,7.5845,7.5709,7.5777,7.5743,7.5676,7.5676,7.5676,7.5337,7.5134,7.51,7.527,7.5067,7.4999,7.5033,7.4833,7.4645,7.4832,7.5308,7.5382,7.527,7.5466,7.5764,7.6378,7.6889,7.8289,7.914,7.932,7.9925,8.0602,8.0912,8.0602,8.0583,8.0858,8.1021,8.1038,8.1038,8.1074,8.1074,8.1074,8.1074,8.1074,7.0971,7.1533,7.2401,7.3168,7.382,7.4661,7.5161,7.5377,7.5401,7.5841,7.6386,7.6014,7.642,7.7401,7.6893,7.6927,7.7333,7.7333,7.7096,7.6454,7.6284,7.5879,7.5642,7.4864,7.4052,7.3883,7.3781,7.395,7.4255,7.4424,7.4661,7.51,7.4999,7.5202,7.5134,7.5033,7.5236,7.5439,7.5439,7.5506,7.5676,7.5777,7.5811,7.5811,7.5811,7.5743,7.5709,7.5676,7.5676,7.5676,7.5743,7.5879,7.5709,7.5743,7.5777,7.5811,7.5777,7.5777,7.5743,7.5811,7.5709,7.5845,7.5879,7.5676,7.5709,7.5811,7.5743,7.5709,7.5676,7.5777,7.5777,7.5709,7.598,7.6284,7.6048,7.5946,7.6386,7.6082,7.5743,7.5676,7.5676,7.5642,7.5473,7.5473,7.5439,7.5202,7.5236,7.5337,7.5221,7.4966,7.5537,7.6151,7.6361,7.6557,7.6985,7.7188,7.7425,7.783,7.8957,7.9889,8.0097,8.0305,8.0912,8.1074,8.1038,8.1074,8.1074,8.1074,8.1056,8.1074,8.1074,8.1074,8.1074,8.1074,8.1074,7.2022,7.2599,7.3457,7.4043,7.4563,7.5357,7.5912,7.6217,7.6284,7.669,7.7198,7.6927,7.7266,7.7967,7.7604,7.7638,7.7908,7.7976,7.7797,7.7435,7.7367,7.7164,7.6826,7.6004,7.5361,7.4695,7.4583,7.4796,7.5033,7.5168,7.527,7.5642,7.5709,7.5608,7.5676,7.5743,7.5642,7.5642,7.5709,7.5845,7.6183,7.6251,7.6521,7.669,7.6758,7.6758,7.6826,7.6792,7.6792,7.6758,7.6758,7.6386,7.5912,7.6048,7.6251,7.6284,7.6657,7.6758,7.6782,7.6758,7.6826,7.6758,7.6758,7.6792,7.6792,7.6758,7.6555,7.6352,7.6284,7.6251,7.6251,7.5845,7.6149,7.6555,7.6183,7.6082,7.6589,7.6183,7.5676,7.5676,7.5676,7.5676,7.5676,7.5676,7.5642,7.5439,7.5534,7.5683,7.6382,7.6346,7.6902,7.7457,7.7769,7.8136,7.8649,7.8867,7.8877,7.9127,7.9572,8.0249,8.0602,8.0785,8.1038,8.1074,8.1074,8.1074,8.1074,8.1074,8.1074,8.1074,8.1128,8.1074,8.1092,8.1092,8.1092,7.3335,7.3713,7.4356,7.4637,7.4864,7.5439,7.6048,7.6589,7.6724,7.6927,7.7662,7.7739,7.7435,7.7933,7.7773,7.7841,7.7976,7.7976,7.7841,7.7604,7.7594,7.7391,7.7198,7.6951,7.6623,7.5912,7.598,7.6082,7.6115,7.6048,7.6251,7.6115,7.6115,7.6284,7.6149,7.6082,7.6251,7.6284,7.6318,7.6487,7.6961,7.7063,7.7333,7.7671,7.7797,7.7739,7.7739,7.7773,7.7874,7.801,7.801,7.7299,7.6623,7.6589,7.7063,7.7096,7.7561,7.7705,7.7705,7.7831,7.7841,7.801,7.7942,7.7908,7.7874,7.7773,7.7502,7.7266,7.7063,7.7063,7.7029,7.6657,7.6657,7.6995,7.6589,7.642,7.6724,7.641,7.6086,7.5946,7.5811,7.5676,7.5676,7.5676,7.5676,7.5723,7.5842,7.6171,7.6918,7.7628,7.8132,7.8825,7.9216,7.9697,8.024,7.9941,8.0018,8.0114,8.036,8.0603,8.0984,8.1145,8.127,8.111,8.1074,8.1074,8.1074,8.1074,8.1074,8.1128,8.1182,8.1199,8.1181,8.1164,8.1128,7.3802,7.4424,7.4536,7.4965,7.5506,7.5676,7.5879,7.5879,7.6149,7.6386,7.7063,7.6487,7.713,7.7671,7.7333,7.7468,7.8111,7.8213,7.7874,7.7435,7.7333,7.713,7.6657,7.669,7.6521,7.686,7.713,7.7401,7.7493,7.7628,7.7333,7.7527,7.7493,7.7468,7.7435,7.757,7.7401,7.7299,7.7358,7.7561,7.7739,7.7908,7.7976,7.8213,7.8247,7.8237,7.8136,7.8044,7.801,7.801,7.801,7.7899,7.7705,7.7773,7.7874,7.7874,7.8068,7.828,7.8247,7.8136,7.8044,7.801,7.8145,7.8136,7.8102,7.8077,7.8111,7.7908,7.7773,7.7773,7.7807,7.7502,7.7942,7.8247,7.8,7.7594,7.7643,7.7266,7.6863,7.6767,7.6255,7.5723,7.5828,7.5889,7.5983,7.6184,7.6462,7.6838,7.7528,7.8343,7.9129,7.9893,8.0756,8.1274,8.1814,8.1236,8.093,8.0911,8.1039,8.1002,8.1304,8.1443,8.1443,8.1269,8.1163,8.111,8.111,8.1092,8.1163,8.1217,8.1287,8.134,8.134,8.1322,8.1252,7.6014,7.6352,7.6352,7.6555,7.6826,7.686,7.7096,7.7435,7.7468,7.7908,7.8314,7.8247,7.8382,7.8889,7.8822,7.8855,7.8957,7.9126,7.872,7.8179,7.801,7.7638,7.6893,7.686,7.7096,7.7468,7.7807,7.801,7.801,7.7967,7.801,7.7976,7.801,7.801,7.7976,7.7908,7.801,7.801,7.8044,7.8213,7.8585,7.8855,7.9092,7.9126,7.9092,7.9126,7.9126,7.9126,7.916,7.916,7.916,7.9126,7.9092,7.9058,7.8957,7.8686,7.8855,7.9092,7.9126,7.9126,7.916,7.916,7.9092,7.9126,7.9126,7.916,7.8889,7.8585,7.8145,7.8179,7.8517,7.8247,7.8382,7.8813,7.8582,7.8511,7.8448,7.7904,7.77,7.7574,7.6886,7.6399,7.6158,7.6252,7.6334,7.6599,7.6996,7.758,7.8238,7.9134,8.0044,8.1133,8.1927,8.2207,8.2595,8.2233,8.187,8.1868,8.1702,8.1679,8.1602,8.1688,8.1617,8.146,8.1358,8.1252,8.111,8.111,8.1234,8.1358,8.1392,8.1427,8.146,8.1478,8.1445,7.801,7.801,7.801,7.801,7.801,7.7976,7.8247,7.8822,7.8754,7.9025,7.9701,7.9634,7.9532,7.9667,7.9634,7.9634,7.9769,7.96,7.916,7.8788,7.8653,7.8416,7.8111,7.801,7.801,7.8179,7.8247,7.8145,7.801,7.801,7.801,7.801,7.801,7.8111,7.8213,7.8348,7.8247,7.8416,7.845,7.8788,7.9329,7.987,8.0209,8.0209,8.0209,8.0107,8.0006,8.0006,8.0006,8.004,8.0073,8.0141,8.0175,8.0209,7.9938,7.9532,7.9904,8.0141,8.0141,8.0107,7.9972,7.9938,8.0107,8.0141,8.0107,7.9904,7.9837,7.9329,7.8923,7.8754,7.916,7.8822,7.8855,7.9083,7.9097,7.8895,7.9036,7.8773,7.8316,7.7953,7.7398,7.7147,7.701,7.6794,7.6896,7.7584,7.8002,7.8419,7.914,8.0071,8.1078,8.2299,8.3029,8.3083,8.3175,8.3085,8.2884,8.2917,8.2513,8.2214,8.2065,8.1917,8.1829,8.1776,8.1598,8.1514,8.1322,8.1217,8.141,8.1531,8.1514,8.1566,8.1632,8.1666,8.1615,7.801,7.801,7.801,7.801,7.8044,7.8077,7.8044,7.8213,7.8314,7.8145,7.8619,7.8416,7.8517,7.8551,7.8517,7.8407,7.844,7.8619,7.8653,7.845,7.8382,7.828,7.8034,7.801,7.828,7.8551,7.8788,7.8585,7.8213,7.8077,7.8136,7.8204,7.8314,7.8314,7.8957,7.8991,7.9329,7.9803,7.987,7.9904,8.0006,8.0141,8.0175,8.0209,8.0209,8.0209,8.0209,8.0209,8.0209,8.0209,8.0209,8.0209,8.0209,8.0209,8.0175,8.0107,8.0175,8.0209,8.0209,8.0209,8.0209,8.0209,8.0209,8.0209,8.0209,8.0209,8.0141,8.0141,7.987,7.9803,7.987,7.9904,7.9972,7.9954,7.9885,7.972,7.9648,7.9642,7.9192,7.8959,7.8553,7.8246,7.8052,7.7739,7.7569,7.8323,7.9002,7.9402,7.9977,8.0883,8.1687,8.2776,8.3738,8.3883,8.401,8.3882,8.3862,8.3895,8.3397,8.2949,8.2856,8.2707,8.2228,8.2158,8.2055,8.197,8.187,8.1836,8.1722,8.1683,8.172,8.1788,8.1872,8.1835,8.1818,7.9228,7.9228,7.9228,7.9261,7.9228,7.9228,7.9228,7.9228,7.9228,7.9228,7.9228,7.9228,7.9228,7.916,7.9228,7.9261,7.9228,7.916,7.8957,7.8686,7.8585,7.8416,7.8077,7.801,7.8247,7.8483,7.845,7.828,7.8213,7.8822,7.9228,7.9126,7.9194,7.9397,7.9566,7.9701,7.987,8.0107,8.0175,8.0175,8.0209,8.0209,8.0209,8.0209,8.0209,8.0209,8.0209,8.0209,8.0209,8.0209,8.0209,8.0209,8.0209,8.0209,8.0209,8.0209,8.0175,8.0209,8.0209,8.0209,8.0209,8.0209,8.0209,8.0209,8.0209,8.0209,8.0209,8.0175,8.0209,8.0209,8.0234,8.0209,8.0309,8.0385,8.051,8.0613,8.0458,8.0268,8.0096,7.9944,7.9849,7.9723,7.9465,7.91,7.8958,7.9286,7.9795,8.0068,8.0632,8.1417,8.2179,8.2903,8.381,8.4537,8.4754,8.4788,8.484,8.4745,8.4335,8.3961,8.3904,8.3681,8.3168,8.3094,8.3301,8.3087,8.2654,8.224,8.2063,8.1984,8.1922,8.2118,8.2262,8.2055,8.2022,8.0209,8.0209,8.0209,8.0209,8.0209,8.0209,8.0175,8.0175,8.0141,8.0175,8.0209,8.0141,8.0141,8.0175,8.0107,8.004,8.0141,8.0209,7.987,7.9532,7.9329,7.9092,7.8855,7.8653,7.8653,7.8542,7.8855,7.8788,7.9025,7.9431,7.9837,7.9701,7.9194,7.9566,7.9837,7.9837,7.987,8.0175,8.0209,8.0209,8.0209,8.0209,8.0209,8.0209,8.0209,8.0209,8.0209,8.0209,8.0209,8.0209,8.0209,8.0209,8.0209,8.0209,8.0209,8.0209,8.0209,8.0209,8.0209,8.0209,8.0209,8.0209,8.0209,8.0209,8.0209,8.0209,8.0209,8.0209,8.0209,8.0234,8.0309,8.0335,8.0485,8.0659,8.0857,8.1151,8.1386,8.1284,8.125,8.1248,8.1289,8.1632,8.1286,8.0701,8.045,8.0479,8.0633,8.0747,8.1292,8.2015,8.2848,8.3537,8.4191,8.4973,8.5207,8.5439,8.5563,8.5467,8.5038,8.4922,8.4795,8.4502,8.4062,8.4152,8.4389,8.4081,8.3557,8.2927,8.2423,8.2834,8.3081,8.2748,8.2634,8.2427,8.217,8.0209,8.0209,8.0209,8.0209,8.0209,8.0209,8.0209,8.0209,8.0209,8.0209,8.0209,8.0209,8.0209,8.0209,8.0209,8.0209,8.0209,8.0209,8.0107,8.0073,8.0073,7.9938,7.9769,7.9735,7.987,7.987,7.9701,7.9769,7.9972,7.987,7.9397,7.8407,7.8948,7.8889,7.916,7.96,7.9803,8.0107,8.0209,8.0209,8.0209,8.0209,8.0209,8.0209,8.0209,8.0209,8.0209,8.0209,8.0209,8.0209,8.0209,8.0209,8.0209,8.0209,8.0209,8.0209,8.0209,8.0209,8.0209,8.0209,8.0209,8.0209,8.0209,8.0234,8.0284,8.0234,8.0209,8.0259,8.0284,8.036,8.0485,8.0576,8.0749,8.097,8.1262,8.1588,8.1932,8.2348,8.2321,8.2482,8.2725,8.2991,8.302,8.2393,8.1614,8.1526,8.1057,8.1165,8.1834,8.2574,8.3554,8.4316,8.4807,8.5279,8.5584,8.5726,8.5832,8.5664,8.5272,8.538,8.5527,8.5196,8.4756,8.4829,8.4903,8.4719,8.4592,8.4271,8.4164,8.4321,8.4225,8.3621,8.2961,8.2574,8.2333,8.0209,8.0209,8.0209,8.0209,8.0209,8.0209,8.0209,8.0209,8.0209,8.0209,8.0209,8.0209,8.0209,8.0209,8.0209,8.0209,8.0209,8.0209,8.0209,8.0209,8.0209,8.0209,8.0209,8.0209,8.0175,8.0209,8.0209,8.0209,8.0141,8.0209,8.0006,7.9464,7.9194,7.9498,7.9735,7.9701,7.9938,8.0073,8.0209,8.0209,8.0209,8.0209,8.0209,8.0209,8.0209,8.0209,8.0209,8.0209,8.0209,8.0209,8.0209,8.0209,8.0209,8.0209,8.0209,8.0209,8.0209,8.0209,8.0209,8.0209,8.0209,8.0209,8.0234,8.0284,8.041,8.0335,8.0335,8.0385,8.0476,8.0625,8.061,8.0872,8.1131,8.1383,8.1683,8.2048,8.2553,8.3077,8.3621,8.3886,8.4048,8.426,8.421,8.4092,8.326,8.2537,8.1973,8.1717,8.2424,8.3113,8.4076,8.4857,8.5349,8.5711,8.5997,8.6067,8.6101,8.5749,8.5416,8.549,8.56,8.5764,8.5416,8.5453,8.5527,8.5453,8.5527,8.5747,8.5563,8.5049,8.4609,8.4152,8.3508,8.2884,8.2553,8.0209,8.0209,8.0209,8.0209,8.0209,8.0209,8.0209,8.0209,8.0209,8.0209,8.0209,8.0209,8.0209,8.0209,8.0209,8.0209,8.0209,8.0209,8.0209,8.0209,8.0209,8.0209,8.0209,8.0209,8.0209,8.0209,8.0209,8.0209,8.0209,8.0209,8.0107,8.0107,8.0209,8.0141,8.0141,8.0209,8.0209,8.0209,8.0209,8.0209,8.0209,8.0209,8.0209,8.0209,8.0209,8.0209,8.0209,8.0209,8.0209,8.0209,8.0209,8.0209,8.0209,8.0209,8.0209,8.0209,8.0209,8.0209,8.02,8.0276,8.0335,8.036,8.0485,8.0585,8.061,8.0585,8.0684,8.1058,8.1058,8.1034,8.1083,8.1588,8.1908,8.2211,8.2441,8.2814,8.357,8.4148,8.4781,8.5283,8.5445,8.5536,8.5351,8.5211,8.4325,8.3602,8.3201,8.2963,8.3289,8.3889,8.4506,8.5252,8.5851,8.6177,8.6483,8.6393,8.6246,8.5419,8.5196,8.5233,8.538,8.5563,8.5764,8.5727,8.582,8.6114,8.6297,8.6354,8.5894,8.5233,8.4939,8.4756,8.4425,8.3801,8.303,8.0209,8.0209,8.0209,8.0209,8.0209,8.0209,8.0209,8.0209,8.0209,8.0209,8.0209,8.0209,8.0209,8.0209,8.0209,8.0209,8.0209,8.0209,8.0209,8.0209,8.0209,8.0209,8.0209,8.0209,8.0209,8.0209,8.0209,8.0209,8.0209,8.0209,8.0209,8.0209,8.0209,8.0209,8.0209,8.0209,8.0209,8.0209,8.0209,8.0209,8.0209,8.0209,8.0209,8.0209,8.0209,8.0209,8.0209,8.0209,8.0209,8.0209,8.0209,8.0209,8.0209,8.0209,8.0209,8.0209,8.0209,8.0234,8.0259,8.0485,8.0635,8.0635,8.0734,8.0882,8.098,8.1005,8.119,8.1578,8.1827,8.2037,8.2268,8.2623,8.2881,8.3103,8.3345,8.3762,8.4513,8.4976,8.5557,8.6046,8.6554,8.6869,8.6613,8.6209,8.5304,8.4705,8.4358,8.4266,8.432,8.461,8.5155,8.5739,8.6321,8.6209,8.639,8.6574,8.6317,8.5453,8.4903,8.4903,8.5086,8.5343,8.558,8.58,8.6004,8.6187,8.6554,8.6867,8.6187,8.5527,8.5617,8.5453,8.5159,8.4646,8.3838,8.0209,8.0209,8.0209,8.0209,8.0209,8.0209,8.0209,8.0209,8.0209,8.0209,8.0209,8.0209,8.0209,8.0209,8.0209,8.0209,8.0209,8.0209,8.0209,8.0209,8.0209,8.0209,8.0209,8.0209,8.0209,8.0209,8.0209,8.0209,8.0209,8.0209,8.0209,8.0209,8.0209,8.0209,8.0209,8.0209,8.0209,8.0209,8.0209,8.0209,8.0209,8.0209,8.0209,8.0209,8.0209,8.0209,8.0209,8.0209,8.0209,8.0209,8.0209,8.0209,8.0209,8.0234,8.0234,8.0234,8.0234,8.0376,8.07,8.1019,8.1141,8.1044,8.1029,8.12,8.1248,8.1078,8.1469,8.213,8.2576,8.2833,8.3143,8.3805,8.4157,8.4261,8.4508,8.4896,8.5442,8.5707,8.61,8.6501,8.696,8.7014,8.6848,8.6738,8.6067,8.5593,8.5246,8.517,8.5224,8.5388,8.5769,8.6302,8.6703,8.639,8.6297,8.6444,8.617,8.5306,8.4719,8.4425,8.4682,8.5123,8.5673,8.6114,8.6151,8.6224,8.6481,8.6628,8.6224,8.5857,8.5967,8.5874,8.5527,8.5049,8.4462,8.0209,8.0209,8.0209,8.0209,8.0209,8.0209,8.0209,8.0209,8.0209,8.0209,8.0209,8.0209,8.0209,8.0209,8.0209,8.0209,8.0209,8.0209,8.0209,8.0209,8.0209,8.0209,8.0209,8.0209,8.0209,8.0209,8.0209,8.0209,8.0209,8.0209,8.0209,8.0209,8.0209,8.0209,8.0209,8.0209,8.0209,8.0209,8.0209,8.0209,8.0209,8.0209,8.0209,8.0209,8.0209,8.0209,8.0209,8.0209,8.0209,8.0209,8.0209,8.0234,8.0234,8.0309,8.0335,8.036,8.0551,8.0799,8.1214,8.1575,8.167,8.1623,8.1503,8.1623,8.1883,8.199,8.2588,8.3156,8.3405,8.3777,8.4293,8.4972,8.5091,8.5206,8.5365,8.5783,8.6119,8.6356,8.6429,8.6873,8.6978,8.7014,8.7014,8.6978,8.6723,8.641,8.6133,8.6077,8.604,8.6151,8.6224,8.6664,8.6978,8.6701,8.6407,8.6297,8.5894,8.5159,8.4829,8.4609,8.4682,8.5196,8.582,8.6371,8.6444,8.6481,8.6371,8.6297,8.6297,8.6297,8.6371,8.6187,8.5874,8.5416,8.4939,8.0209,8.0209,8.0209,8.0209,8.0209,8.0209,8.0209,8.0209,8.0209,8.0209,8.0209,8.0209,8.0209,8.0209,8.0209,8.0209,8.0209,8.0209,8.0209,8.0209,8.0209,8.0209,8.0209,8.0209,8.0209,8.0209,8.0209,8.0209,8.0209,8.0209,8.0209,8.0209,8.0209,8.0209,8.0209,8.0209,8.0209,8.0209,8.0209,8.0209,8.0209,8.0209,8.0209,8.0209,8.0209,8.0209,8.0209,8.0209,8.0234,8.0234,8.0225,8.0259,8.0335,8.051,8.0585,8.0749,8.1117,8.1431,8.1707,8.2036,8.2384,8.2498,8.2658,8.2726,8.2759,8.2992,8.3634,8.4293,8.474,8.5075,8.5444,8.5633,8.5821,8.5915,8.5989,8.6356,8.675,8.6891,8.6873,8.7014,8.7014,8.7014,8.7014,8.7014,8.7014,8.6867,8.6574,8.6611,8.6591,8.6664,8.6738,8.6775,8.6978,8.6941,8.6647,8.6261,8.6004,8.5416,8.549,8.5343,8.5343,8.538,8.5894,8.6371,8.6684,8.6757,8.6664,8.6701,8.6757,8.6757,8.6518,8.6334,8.5967,8.5837,8.538,8.0209,8.0209,8.0209,8.0209,8.0209,8.0209,8.0209,8.0209,8.0209,8.0209,8.0209,8.0209,8.0209,8.0209,8.0209,8.0209,8.0209,8.0209,8.0209,8.0209,8.0209,8.0209,8.0209,8.0209,8.0209,8.0209,8.0209,8.0209,8.0209,8.0209,8.0209,8.0209,8.0209,8.0209,8.0209,8.0209,8.0209,8.0209,8.0209,8.0209,8.0209,8.0209,8.0209,8.0209,8.0209,8.0209,8.0209,8.0234,8.0309,8.046,8.0451,8.056,8.0808,8.0995,8.1131,8.1397,8.1707,8.199,8.2315,8.2916,8.3323,8.354,8.3925,8.3741,8.3698,8.389,8.4539,8.5173,8.5652,8.5841,8.61,8.632,8.6411,8.6465,8.6518,8.6697,8.7014,8.7014,8.7014,8.7014,8.7014,8.7014,8.7014,8.7014,8.7014,8.7014,8.7014,8.7014,8.7014,8.7014,8.7014,8.7014,8.6978,8.6904,8.6481,8.604,8.593,8.5783,8.5894,8.6077,8.6187,8.6224,8.6224,8.6444,8.6794,8.6941,8.6941,8.6978,8.6941,8.6628,8.6371,8.6224,8.6077,8.5894,8.569,8.0209,8.0209,8.0209,8.0209,8.0209,8.0209,8.0209,8.0209,8.0209,8.0209,8.0209,8.0209,8.0209,8.0209,8.0209,8.0209,8.0209,8.0209,8.0209,8.0209,8.0209,8.0209,8.0209,8.0209,8.0209,8.0209,8.0209,8.0209,8.0209,8.0209,8.0209,8.0209,8.0209,8.0209,8.0209,8.0209,8.0209,8.0209,8.0209,8.0209,8.0209,8.0209,8.0209,8.0209,8.0209,8.0209,8.0234,8.0259,8.046,8.0635,8.0659,8.0848,8.1141,8.1397,8.1944,8.2245,8.2656,8.3059,8.3475,8.3953,8.4204,8.4472,8.5032,8.5015,8.4916,8.4996,8.5425,8.5897,8.6119,8.6374,8.6661,8.6891,8.6925,8.6997,8.6997,8.6997,8.7014,8.7014,8.7014,8.7014,8.7014,8.7014,8.7014,8.7014,8.7014,8.7014,8.7014,8.7014,8.7014,8.7014,8.7014,8.7014,8.6978,8.6904,8.6407,8.6151,8.6261,8.6334,8.6444,8.6628,8.6831,8.6831,8.6664,8.6738,8.6941,8.7014,8.7014,8.6978,8.6921,8.6628,8.6444,8.6371,8.6187,8.5874,8.56,8.0209,8.0209,8.0209,8.0209,8.0209,8.0209,8.0209,8.0209,8.0209,8.0209,8.0209,8.0209,8.0209,8.0209,8.0209,8.0209,8.0209,8.0209,8.0209,8.0209,8.0209,8.0209,8.0209,8.0209,8.0209,8.0209,8.0209,8.0209,8.0209,8.0209,8.0209,8.0209,8.0209,8.0209,8.0209,8.0209,8.0209,8.0209,8.0209,8.0209,8.0209,8.0209,8.0209,8.0209,8.0209,8.0209,8.0284,8.041,8.0601,8.0734,8.0897,8.1166,8.1588,8.2048,8.2701,8.32,8.3627,8.3995,8.4447,8.4892,8.5071,8.5345,8.5728,8.5952,8.5952,8.5878,8.6229,8.6374,8.6608,8.6661,8.6891,8.698,8.6997,8.7014,8.7014,8.7014,8.7014,8.7014,8.7014,8.7014,8.7014,8.7014,8.7014,8.7014,8.7014,8.7014,8.7014,8.7014,8.7014,8.7014,8.7014,8.7014,8.6978,8.6941,8.6867,8.6701,8.6794,8.6904,8.6885,8.6885,8.6941,8.6978,8.7014,8.7014,8.7014,8.7014,8.7014,8.6978,8.6978,8.6904,8.6738,8.6591,8.6334,8.6004,8.569,8.0209,8.0209,8.0209,8.0209,8.0209,8.0209,8.0209,8.0209,8.0209,8.0209,8.0209,8.0209,8.0209,8.0209,8.0209,8.0209,8.0209,8.0209,8.0209,8.0209,8.0209,8.0209,8.0209,8.0209,8.0209,8.0209,8.0209,8.0209,8.0209,8.0209,8.0209,8.0209,8.0209,8.0209,8.0209,8.0209,8.0209,8.0209,8.0209,8.0209,8.0209,8.0209,8.0209,8.0209,8.0209,8.0234,8.0335,8.0485,8.0799,8.1093,8.1407,8.186,8.2488,8.305,8.3519,8.4003,8.4529,8.4872,8.5209,8.5576,8.5821,8.6008,8.6338,8.6608,8.6786,8.6786,8.6821,8.6891,8.6943,8.6997,8.7014,8.7014,8.7014,8.7014,8.6978,8.6978,8.6978,8.6978,8.6978,8.6941,8.6941,8.7014,8.7014,8.7014,8.7014,8.7014,8.7014,8.7014,8.7014,8.7014,8.7014,8.7014,8.7014,8.6978,8.7014,8.7014,8.7014,8.7014,8.6941,8.6978,8.7014,8.7014,8.7014,8.7014,8.7014,8.7014,8.7014,8.7014,8.7014,8.7014,8.6978,8.6811,8.6591,8.6297,8.593,8.0209,8.0209,8.0209,8.0209,8.0209,8.0209,8.0209,8.0209,8.0209,8.0209,8.0209,8.0209,8.0209,8.0209,8.0209,8.0209,8.0209,8.0209,8.0209,8.0209,8.0209,8.0209,8.0209,8.0209,8.0209,8.0209,8.0209,8.0209,8.0209,8.0209,8.0209,8.0209,8.0209,8.0209,8.0209,8.0209,8.0209,8.0209,8.0209,8.0234,8.0234,8.0234,8.0209,8.0209,8.0309,8.036,8.0535,8.0734,8.1078,8.1588,8.2025,8.2668,8.3336,8.3946,8.4549,8.4972,8.5401,8.5689,8.5933,8.6174,8.6447,8.6626,8.6715,8.6908,8.6908,8.6891,8.6891,8.6997,8.6997,8.7014,8.7014,8.7014,8.7014,8.7014,8.6941,8.6867,8.6794,8.6721,8.6554,8.6334,8.6554,8.7014,8.7014,8.7014,8.7014,8.7014,8.7014,8.7014,8.7014,8.7014,8.7014,8.7014,8.7014,8.7014,8.7014,8.7014,8.7014,8.7014,8.7014,8.7014,8.7014,8.7014,8.7014,8.7014,8.7014,8.7014,8.7014,8.7014,8.7014,8.7014,8.7014,8.6978,8.6794,8.6628,8.6407,8.0209,8.0209,8.0209,8.0209,8.0209,8.0209,8.0209,8.0209,8.0209,8.0209,8.0209,8.0209,8.0209,8.0209,8.0209,8.0209,8.0209,8.0209,8.0209,8.0209,8.0209,8.0209,8.0209,8.0209,8.0209,8.0209,8.0209,8.0209,8.0209,8.0209,8.0209,8.0209,8.0209,8.0209,8.0209,8.0209,8.0209,8.02,8.0225,8.0284,8.0284,8.0259,8.0284,8.036,8.0485,8.0635,8.0808,8.1054,8.1345,8.2141,8.289,8.357,8.4121,8.4752,8.5287,8.5764,8.6045,8.6392,8.6733,8.6803,8.6891,8.6997,8.7014,8.7014,8.7014,8.7014,8.7014,8.7014,8.7014,8.7014,8.7014,8.7014,8.7014,8.6978,8.6904,8.6664,8.6554,8.6407,8.6114,8.58,8.6151,8.6684,8.6794,8.6831,8.6978,8.6978,8.7014,8.7014,8.7014,8.7014,8.7014,8.7014,8.7014,8.7014,8.7014,8.7014,8.7014,8.7014,8.7014,8.7014,8.7014,8.7014,8.7014,8.7014,8.7014,8.7014,8.7014,8.7014,8.7014,8.7014,8.7014,8.7014,8.6978,8.6831,8.6904,8.0209,8.0209,8.0209,8.0209,8.0209,8.0209,8.0209,8.0209,8.0209,8.0209,8.0209,8.0209,8.0209,8.0209,8.0209,8.0209,8.0209,8.0209,8.0209,8.0209,8.0209,8.0209,8.0209,8.0209,8.0209,8.0209,8.0209,8.0209,8.0209,8.0209,8.0209,8.0209,8.0209,8.0209,8.0209,8.0209,8.0234,8.0284,8.0435,8.051,8.0535,8.0535,8.0535,8.0635,8.0783,8.0882,8.1029,8.1224,8.1885,8.2823,8.3897,8.4554,8.5015,8.5442,8.5933,8.6229,8.6501,8.675,8.698,8.7014,8.7014,8.7014,8.7014,8.7014,8.7014,8.7014,8.7014,8.7014,8.7014,8.7014,8.7014,8.7014,8.7014,8.7014,8.6941,8.6444,8.6077,8.593,8.5673,8.549,8.5453,8.582,8.604,8.6297,8.6848,8.6885,8.6978,8.6978,8.7014,8.7014,8.7014,8.7014,8.7014,8.7014,8.7014,8.7014,8.7014,8.7014,8.7014,8.7014,8.7014,8.7014,8.7014,8.7014,8.7014,8.7014,8.7014,8.7014,8.7014,8.7014,8.7014,8.7014,8.7014,8.7014,8.7014]}]]